[[{"header":{"parameterUnit":"m.s-1","parameterCategory":1,"la1":30.6,"la2":29.2853,"lo1":-89.7004,"lo2":-87.6739,"dy":0.0162,"dx":0.0183,"nx":112,"ny":82,"refTime":"2023-10-26T18:00:00:Z","depth":0,"parameterNumber":2,"parameterNumberName":"U-component_of_WINDS"},"data":[0.0,0.0,0.0,0.0,0.0,0.0,0.0,0.0,0.0,0.0,0.0,0.0,0.0,0.0,0.0,0.0,0.0,0.0,0.0,0.0,0.0,0.0,0.0,0.0,0.0,0.0,0.0,0.0,0.0,0.0,0.0,0.0,0.0,0.0,0.0,0.0,0.0,0.0,0.0,0.0,0.0,0.0,0.0,0.0,0.0,0.0,0.0,0.0,0.0,0.0,0.0,0.0,0.0,0.0,0.0,0.0,0.0,0.0,0.0,0.0,0.0,0.0,0.0,0.0,0.0,0.0,0.0,0.0,0.0,0.0,0.0,0.0,0.0,0.0,0.0,0.0,0.0,0.0,0.0,0.0,0.0,0.0,0.0,0.0,0.0,0.0,0.0,0.0,0.0,0.0,1.0597,1.0858,1.062,1.0179,0.9536,0.9529,0.9085,0.7979,0.0,0.0,0.0,0.0,0.0,0.0,0.0,0.0,0.0,0.0,0.0,0.0,0.0,0.0,0.0,0.0,0.0,0.0,0.0,0.0,0.0,0.0,0.0,0.0,0.0,0.0,0.0,0.0,0.0,0.0,0.0,0.0,0.0,0.0,0.0,0.0,0.0,0.0,0.0,0.0,0.0,0.0,0.0,0.0,0.0,0.0,0.0,0.0,0.0,0.0,0.0,0.0,0.0,0.0,0.0,0.0,0.0,0.0,0.0,0.0,0.0,0.0,0.0,0.0,0.0,0.0,0.0,0.0,0.0,0.0,0.0,0.0,0.0,0.0,0.0,0.0,0.0,0.0,0.0,0.0,0.0,0.0,0.0,0.0,0.0,0.0,0.0,0.0,0.0,0.0,0.0,0.0,0.0,0.0,0.0,0.0,0.0,0.0,0.0,0.0,0.0,0.0,0.0,0.0,1.0239,0.9569,0.9648,0.9523,0.8976,0.8924,0.8638,0.794,0.0,0.0,0.0,0.0,0.0,0.0,0.0,0.0,0.0,0.0,0.0,0.0,0.0,0.0,0.0,0.0,0.0,0.0,0.0,0.0,0.0,0.0,0.0,0.0,0.0,0.0,0.0,0.0,0.0,0.0,0.0,0.0,0.0,0.0,0.0,0.0,0.0,0.0,0.0,0.0,0.0,0.0,0.0,0.0,0.0,0.0,0.0,0.0,0.0,0.0,0.0,0.0,0.0,0.0,0.0,0.0,0.0,0.0,0.0,0.0,0.0,0.0,0.0,0.0,0.0,0.0,0.0,0.0,0.0,0.0,0.0,0.0,0.0,0.0,0.0,0.0,0.0,0.0,0.0,0.0,0.0,0.0,0.0,0.0,0.0,0.0,0.0,0.0,0.0,0.0,0.0,0.0,0.0,0.0,0.0,0.0,0.0,0.0,0.0,0.0,0.0,0.0,0.0,0.9922,0.9539,0.9432,0.9526,0.9387,0.8844,0.8664,0.839,0.7932,0.8159,0.0,0.0,0.0,0.0,0.0,0.0,0.0,0.0,0.0,0.0,0.0,0.0,0.0,0.0,0.0,0.0,0.0,0.0,0.0,0.0,0.0,0.0,0.0,0.0,0.0,0.0,0.0,0.0,0.0,0.0,0.0,0.0,0.0,0.0,0.0,0.0,0.0,0.0,0.0,0.0,0.0,0.0,0.0,0.0,0.0,0.0,0.0,0.0,0.0,0.0,0.0,0.0,0.0,0.0,0.0,0.0,0.0,0.0,0.0,0.0,0.0,0.0,0.0,0.0,0.0,0.0,0.0,0.0,0.0,0.0,0.0,0.0,0.0,0.0,0.0,0.0,0.0,0.0,0.0,0.0,0.0,0.0,0.0,0.0,0.0,0.0,0.0,0.0,0.0,0.0,0.0,0.0,0.0,0.0,0.0,0.0,0.0,0.0,0.0,0.0,0.0,0.0,0.95,0.8878,0.9313,0.9367,0.9163,0.8652,0.8412,0.8131,0.7784,0.7787,0.0,0.0,0.0,0.0,0.0,0.0,0.0,0.0,0.0,0.0,0.0,0.0,0.0,0.0,0.0,0.0,0.0,0.0,0.0,0.0,0.0,0.0,0.0,0.0,0.0,0.0,0.0,0.0,0.0,0.0,0.0,0.0,0.0,0.0,0.0,0.0,0.0,0.0,0.0,0.0,0.0,0.0,0.0,0.0,0.0,0.0,0.0,0.0,0.0,0.0,0.0,0.0,0.0,0.0,0.0,0.0,0.0,0.0,0.0,0.0,0.0,0.0,0.0,0.0,0.0,0.0,0.0,0.0,0.0,0.0,0.0,0.0,0.0,0.0,0.0,0.0,0.0,0.0,0.0,0.0,0.0,0.0,0.0,0.0,0.0,0.0,0.0,0.0,0.0,0.0,0.0,0.0,0.0,0.0,0.0,0.0,0.0,0.0,0.0,0.0,0.0,0.0,0.9109,0.849,0.8652,0.8666,0.8508,0.8094,0.7983,0.7759,0.737,0.7457,0.0,0.0,0.0,0.0,0.0,0.0,0.0,0.0,0.0,0.0,0.0,0.0,0.0,0.0,0.0,0.0,0.0,0.0,0.0,0.0,0.0,0.0,0.0,0.0,0.0,0.0,0.0,0.0,0.0,0.0,0.0,0.0,0.0,0.0,0.0,0.0,0.0,0.0,0.0,0.0,0.0,0.0,0.0,0.0,0.0,0.0,0.0,0.0,0.0,0.0,0.0,0.0,0.0,0.0,0.0,0.0,0.0,0.0,0.0,0.0,0.0,0.0,0.0,0.0,0.0,0.0,0.0,0.0,0.0,0.0,0.0,0.0,0.0,0.0,0.0,0.0,0.0,0.0,0.0,0.0,0.0,0.0,0.0,0.0,0.0,0.0,0.0,0.0,0.0,0.0,0.0,0.0,0.0,0.0,0.0,0.0,0.0,0.0,0.0,0.0,0.0,0.0,0.8642,0.828,0.0,0.8365,0.8222,0.8081,0.7809,0.7664,0.7674,0.0,0.0,0.0,0.0,0.0,0.0,0.0,0.0,0.0,0.0,0.0,0.0,0.0,0.0,0.0,0.0,0.0,0.0,0.0,0.0,0.0,0.0,0.0,0.0,0.0,0.0,0.0,0.0,0.0,0.0,0.0,0.0,0.0,0.0,0.0,0.0,0.0,0.0,0.0,0.0,0.0,0.0,0.0,0.0,0.0,0.0,0.0,0.0,0.0,0.0,0.0,0.0,0.0,0.0,0.0,0.0,0.0,0.0,0.0,0.0,0.0,0.0,0.0,0.0,0.0,0.0,0.0,0.0,0.0,0.0,0.0,0.0,0.0,0.0,0.0,0.0,0.0,0.0,0.0,0.0,0.0,0.0,0.0,0.0,0.0,0.0,0.0,0.0,0.0,0.0,0.0,0.0,0.0,0.0,0.0,0.0,0.0,0.0,0.0,0.0,0.0,0.0,0.9076,0.846,0.8107,0.0,0.8146,0.7972,0.7791,0.7506,0.7444,0.7692,0.0,0.0,0.0,0.0,0.0,0.0,0.0,0.0,0.0,0.0,0.0,0.0,0.0,0.0,0.0,0.0,0.0,0.0,0.0,0.0,0.0,0.0,0.0,0.0,0.0,0.0,0.0,0.0,0.0,0.0,0.0,0.0,0.0,0.0,0.0,0.0,0.0,0.0,0.0,0.0,0.0,0.0,0.0,0.0,0.0,0.0,0.0,0.0,0.0,0.0,0.0,0.0,0.0,0.0,0.0,0.0,0.0,0.0,0.0,0.0,0.0,0.0,0.0,0.0,0.0,0.0,0.0,0.0,0.0,0.0,0.0,0.0,0.0,0.0,0.0,0.0,0.0,0.0,0.0,0.0,0.0,0.0,0.0,0.0,0.0,0.0,0.0,0.0,0.0,0.0,0.0,0.0,0.0,0.0,0.0,0.0,0.0,0.0,0.0,0.0,0.0,0.0,0.9508,0.86,0.7948,0.8093,0.798,0.7683,0.7156,0.7039,0.709,0.0,0.0,0.0,0.0,0.0,0.0,0.0,0.0,0.0,0.0,0.0,0.0,0.0,0.0,0.0,0.0,0.0,0.0,0.0,0.0,0.0,0.0,0.0,0.0,0.0,0.0,0.0,0.0,0.0,0.0,0.0,0.0,0.0,0.0,0.0,0.0,0.0,0.0,0.0,0.0,0.0,0.0,0.0,0.0,0.0,0.0,0.0,0.0,0.0,0.0,0.0,0.0,0.0,0.0,0.0,0.0,0.0,0.0,0.0,0.0,0.0,0.0,0.0,0.0,0.0,0.0,0.0,0.0,0.0,0.0,0.0,0.0,0.0,0.0,0.0,0.0,0.0,0.0,0.0,0.0,0.0,0.0,0.0,0.0,0.0,0.0,0.0,0.0,0.0,0.0,0.0,0.0,0.0,0.0,0.0,0.0,0.0,0.0,0.0,0.0,0.0,0.0,0.0,0.8888,0.8351,0.8057,0.8287,0.7979,0.7694,0.7538,0.7205,0.7209,0.7692,0.0,0.0,0.0,0.0,0.0,0.0,0.0,0.0,0.0,0.0,0.0,0.0,0.0,0.0,0.0,0.0,0.0,0.0,0.0,0.0,0.0,0.0,0.0,0.0,0.0,0.0,0.0,0.0,0.0,0.0,0.0,0.0,0.0,0.0,0.0,0.0,0.0,0.0,0.0,0.0,0.0,0.0,0.0,0.0,0.0,0.0,0.0,0.0,0.0,0.0,0.0,0.0,0.0,0.0,0.0,0.0,0.0,0.0,0.0,0.0,0.0,0.0,0.0,0.0,0.0,0.0,0.0,0.0,0.0,0.0,0.0,0.0,0.0,0.0,0.0,0.0,0.0,0.0,0.0,0.0,0.0,0.0,0.0,0.0,0.0,0.0,0.0,0.0,0.0,0.0,0.0,0.0,0.0,0.0,0.0,0.0,0.0,0.0,0.0,0.0,0.0,0.0,0.8679,0.8287,0.8101,0.8371,0.7987,0.7685,0.7626,0.724,0.7259,0.7866,0.0,0.0,0.0,0.0,0.0,0.0,0.0,0.0,0.0,0.0,0.0,0.0,0.0,0.0,0.0,0.0,0.0,0.0,0.0,0.0,0.0,0.0,0.0,0.0,0.0,0.0,0.0,0.0,0.0,0.0,0.0,0.0,0.0,0.0,0.0,0.0,0.0,0.0,0.0,0.0,0.0,0.0,0.0,0.0,0.0,0.0,0.0,0.0,0.0,0.0,0.0,0.0,0.0,0.0,0.0,0.0,0.0,0.0,0.0,0.0,0.0,0.0,0.0,0.0,0.0,0.0,0.0,0.0,0.0,0.0,0.0,0.0,0.0,0.0,0.0,0.0,0.0,0.0,0.0,0.0,0.0,0.0,0.0,0.0,0.0,0.0,0.0,0.0,0.0,0.0,0.0,0.0,0.0,0.0,0.0,0.0,0.0,0.0,0.0,0.0,0.0,0.0,0.8738,0.8319,0.8093,0.841,0.8039,0.77,0.7558,0.7261,0.7319,0.7872,0.0,0.0,0.0,0.0,0.0,0.0,0.0,0.0,0.0,0.0,0.0,0.0,0.0,0.0,0.0,0.0,0.0,0.0,0.0,0.0,0.0,0.0,0.0,0.0,0.0,0.0,0.0,0.0,0.0,0.0,0.0,0.0,0.0,0.0,0.0,0.0,0.0,0.0,0.0,0.0,0.0,0.0,0.0,0.0,0.0,0.0,0.0,0.0,0.0,0.0,0.0,0.0,0.0,0.0,0.0,0.0,0.0,0.0,0.0,0.0,1.1009,0.0,0.0,0.0,0.0,0.0,0.0,0.0,0.0,0.0,0.0,0.0,0.0,0.0,0.0,0.0,0.0,0.0,0.0,0.0,0.0,0.0,0.0,0.0,0.0,0.0,0.0,0.0,0.0,0.0,0.0,0.0,0.0,0.0,0.0,0.0,0.0,0.0,0.0,0.0,0.0,0.0,0.8711,0.8187,0.8005,0.8651,0.8438,0.8132,0.7844,0.7752,0.7761,0.7887,0.8549,0.0,0.0,0.0,0.0,0.0,0.0,0.0,0.0,0.0,0.0,0.0,0.0,0.0,0.0,0.0,0.0,0.0,0.0,0.0,0.0,0.0,0.0,0.0,0.0,0.0,0.0,0.0,0.0,0.0,0.0,0.0,0.0,0.0,0.0,0.0,0.0,0.0,0.0,0.0,0.0,0.0,0.0,0.0,0.0,0.0,0.0,0.0,0.0,0.0,0.0,0.0,0.0,0.0,0.0,0.0,0.0,0.0,0.0,0.0,0.0,1.1646,0.0,0.0,0.0,0.0,0.0,0.0,0.0,0.0,0.0,0.0,0.0,0.0,0.0,0.0,0.0,0.0,0.0,0.0,0.0,0.0,0.0,0.0,0.0,0.0,0.0,0.0,0.0,0.0,0.0,0.0,0.0,0.0,0.0,0.0,0.0,0.0,0.0,0.0,0.0,0.0,0.8718,0.829,0.816,0.8731,0.8563,0.8322,0.8156,0.7985,0.7965,0.8136,0.8561,0.0,0.0,0.0,0.0,0.0,0.0,0.0,0.0,0.0,0.0,0.0,0.0,0.0,0.0,0.0,0.0,0.0,0.0,0.0,0.0,0.0,0.0,0.0,0.0,0.0,0.0,0.0,0.0,0.0,0.0,0.0,0.0,0.0,0.0,0.0,0.0,0.0,0.0,0.0,0.0,0.0,0.0,0.0,0.0,0.0,0.0,0.0,0.0,0.0,0.0,0.0,0.0,0.0,0.0,1.1069,1.0872,1.0872,1.1034,1.1321,1.1407,1.1876,1.2546,0.0,0.0,0.0,0.0,0.0,0.0,0.0,0.0,0.0,0.0,0.0,0.0,0.0,0.0,0.0,0.0,0.0,0.0,0.0,0.0,0.0,0.0,0.0,0.0,0.0,1.0803,1.0821,0.0,0.0,0.0,0.0,0.0,0.0,0.0,0.0,0.0,0.0,0.0,0.0,0.8758,0.8467,0.8381,0.8758,0.861,0.8456,0.8402,0.8184,0.8151,0.8389,0.853,0.9217,0.0,0.0,0.0,0.0,0.0,0.0,0.0,0.0,0.0,0.0,0.0,0.0,0.0,0.0,0.0,0.0,0.0,0.0,0.0,0.0,0.0,0.0,0.0,0.0,0.0,0.0,0.0,0.0,0.0,0.0,0.0,0.0,0.8058,0.7941,0.0,0.0,0.0,0.0,0.0,0.0,0.0,0.0,0.0,0.0,0.0,0.0,0.0,0.0,0.9754,0.9982,1.0474,1.1275,1.168,1.162,1.1148,1.1148,1.1355,1.1702,1.1383,0.0,1.2052,1.1665,0.0,0.0,0.0,0.0,0.0,0.0,0.0,0.0,0.0,0.0,0.0,0.0,0.0,0.0,0.0,0.0,0.0,0.0,0.0,0.0,0.0,0.0,0.9958,0.9758,0.996,1.0092,0.0,1.0102,1.035,0.9887,0.0,0.0,0.0,0.0,0.0,0.0,0.0,0.0,0.8758,0.855,0.8484,0.8778,0.8778,0.8651,0.8422,0.8571,0.8604,0.8415,0.9059,0.9583,0.9917,1.0884,0.0,0.0,0.0,0.0,0.0,0.0,0.0,0.0,0.0,0.0,0.0,0.0,0.0,0.0,0.0,0.0,0.0,0.0,0.0,0.0,0.0,0.0,0.0,0.0,0.0,0.0,0.0,0.0,0.0,0.8014,0.8117,0.7573,0.7775,0.7746,0.0,0.0,0.0,0.0,0.0,0.0,0.0,0.0,0.0,0.8469,0.855,0.8768,0.912,0.9567,0.9939,1.0281,1.0674,1.0772,1.0579,1.0579,1.0816,1.1227,1.0885,1.112,1.1698,1.141,1.1312,1.1369,0.0,0.0,0.0,0.0,0.0,1.1381,1.0864,0.0,0.0,0.0,0.0,0.0,0.0,0.0,0.0,0.0,0.0,0.0,0.0,0.0,0.0,1.0484,1.0596,1.0613,1.0407,1.0413,1.0305,0.0,0.9398,0.9085,0.9038,0.0,0.0,0.0,0.0,0.8495,0.8761,0.8764,0.8778,0.8903,0.8984,0.8918,0.8657,0.8738,0.8751,0.8624,0.8959,0.9478,1.0218,1.0507,1.1273,0.0,0.0,0.0,0.0,0.0,0.0,0.0,0.0,0.0,0.0,0.0,0.0,0.0,0.0,0.0,0.0,0.0,0.0,0.0,0.0,0.0,0.0,0.0,0.0,0.0,0.0,0.0,0.0,0.7849,0.7989,0.7104,0.7548,0.7656,0.0,0.0,0.0,0.0,0.0,0.0,0.8184,0.885,0.9085,0.8781,0.9168,0.9184,0.8786,0.9436,0.9712,0.9625,1.01,1.0324,1.0301,1.0385,1.0608,1.0926,1.0725,1.089,1.1342,1.1147,1.104,1.1005,1.111,1.136,1.1628,1.1427,1.1646,1.1916,1.1116,1.0791,1.0676,1.0394,0.0,0.9496,0.8768,0.0,0.0,0.0,0.0,0.9948,1.0074,0.0,1.0491,1.0979,1.1009,1.0955,1.1041,1.0899,1.0566,0.0,0.958,0.9354,0.9224,0.0,0.0,0.0,0.0,0.8471,0.8668,0.8874,0.9002,0.9002,0.92,0.9251,0.9045,0.8951,0.8905,0.8905,0.8831,0.9198,1.0102,1.0115,1.0969,1.28,0.0,0.0,0.0,0.0,0.0,0.0,0.0,0.0,0.0,0.0,0.0,0.0,0.0,0.0,0.0,0.0,0.0,0.0,0.0,0.0,0.0,0.0,0.0,0.0,0.0,0.0,0.0,0.0,0.0,0.6557,0.7195,0.0,0.0,0.0,0.0,0.7669,0.7998,0.8114,0.7924,0.8076,0.8248,0.8422,0.8632,0.8913,0.9262,0.9868,1.019,1.0252,1.0916,1.1107,1.0867,1.1123,1.1246,1.1268,1.1252,1.1123,1.0912,1.0787,1.0826,1.1004,1.1015,1.0574,0.9984,1.0474,1.0224,0.9695,0.9822,0.9666,0.9465,0.9891,0.9865,0.9641,0.9342,0.9261,0.0,0.0,0.9341,0.9657,0.9413,0.928,0.9472,1.057,1.052,1.0532,1.1541,1.175,1.1378,0.0,0.9964,0.9802,0.929,0.0,0.8998,0.8491,0.8395,0.8401,0.842,0.8758,0.9002,0.9002,0.9407,0.9667,0.9654,0.9365,0.9177,0.9177,0.8945,0.8831,0.8883,0.9852,1.0763,1.157,1.2567,0.0,0.0,0.0,0.0,0.0,0.0,0.0,0.0,0.0,0.0,0.0,0.0,0.0,0.0,0.0,0.0,0.0,0.0,0.0,0.0,0.0,0.0,0.0,0.0,0.0,0.0,0.0,0.0,0.5957,0.6498,0.0,0.6763,0.7137,0.7534,0.7929,0.8185,0.8346,0.8417,0.8291,0.8525,0.9155,0.8482,0.8409,0.9033,0.9254,0.9376,0.9402,1.0253,1.0607,1.0538,1.0882,1.1045,1.1055,1.1188,1.1175,1.1071,1.0897,1.0725,1.0565,1.0741,1.0953,1.1138,1.098,1.1104,1.1305,1.0862,1.0735,1.0751,1.0559,0.9761,0.8868,0.8905,0.8518,0.808,0.8151,0.8571,0.9014,0.9089,0.9142,0.9311,0.99,0.9713,0.9529,0.9921,0.9789,0.9473,0.9051,0.9381,0.9454,0.8576,0.8175,0.7876,0.7602,0.785,0.8049,0.7954,0.8569,0.9004,0.9004,0.9345,0.9555,0.9505,0.9313,0.9197,0.9197,0.8951,0.8956,0.9296,0.9439,1.0128,1.1476,1.2208,1.2923,0.0,0.0,0.0,0.0,0.0,0.0,0.0,0.0,0.0,0.0,0.0,0.0,0.0,0.0,0.0,0.0,0.0,0.0,0.0,0.0,0.0,0.0,0.0,0.0,0.0,0.0,0.6129,0.5784,0.6203,0.6568,0.6654,0.6865,0.7159,0.7569,0.7896,0.8149,0.8295,0.8041,0.8239,0.8965,0.8061,0.7874,0.8514,0.8623,0.8623,0.854,0.9265,0.9586,0.9533,0.9919,1.0094,1.0099,1.0226,1.0279,1.027,1.0143,0.9958,0.9828,1.0435,1.0992,1.1427,1.1053,1.1179,1.1366,1.0571,1.0368,1.04,1.0036,0.9206,0.8367,0.8482,0.8135,0.7691,0.784,0.8168,0.8498,0.8682,0.8619,0.8643,0.9221,0.8968,0.8706,0.9104,0.9,0.8679,0.8279,0.8807,0.9038,0.8101,0.7728,0.7585,0.7627,0.7858,0.8132,0.8409,0.9,0.933,0.9158,0.954,0.9745,0.958,0.9493,0.9453,0.9504,0.9144,0.9092,0.9451,0.9405,0.9976,1.1266,1.2338,1.316,1.3736,0.0,0.0,0.0,0.0,0.0,0.0,0.0,0.0,0.0,0.0,0.0,0.0,0.0,0.0,0.0,0.0,0.0,0.0,0.0,0.0,0.0,0.0,0.0,0.527,0.5948,0.6267,0.602,0.6312,0.6402,0.6059,0.6361,0.6576,0.6631,0.7173,0.7521,0.7521,0.7222,0.728,0.7775,0.7287,0.7246,0.7738,0.8012,0.8016,0.7786,0.8138,0.8185,0.7988,0.8335,0.8479,0.8451,0.8479,0.8479,0.8479,0.8479,0.855,0.8812,1.0062,1.0552,1.0557,1.0547,1.0176,0.9572,0.8771,0.8383,0.8207,0.8207,0.8207,0.8184,0.8184,0.8157,0.813,0.813,0.813,0.813,0.813,0.7617,0.7362,0.8551,0.8286,0.8068,0.9254,0.9505,0.9138,0.7967,0.8277,0.8504,0.7852,0.7904,0.8156,0.8555,0.8397,0.0,0.9688,1.0024,0.9964,0.9473,1.0001,1.026,0.994,0.9903,0.9951,1.009,0.9529,0.921,0.921,0.9776,1.0341,1.0892,1.2886,1.4145,1.4593,0.0,0.0,0.0,0.0,0.0,0.0,0.0,0.0,0.0,0.0,0.0,0.0,0.0,0.0,0.0,0.0,0.0,0.0,0.0,0.0,0.0,0.0,0.4938,0.5094,0.5353,0.5559,0.5636,0.5315,0.5478,0.6489,0.6113,0.6257,0.7385,0.7627,0.7723,0.7723,0.6863,0.6688,0.7353,0.5912,0.5636,0.6693,0.6779,0.6988,0.73,0.8077,0.8135,0.7572,0.7969,0.785,0.7359,0.7909,0.8132,0.8132,0.8132,0.816,0.8262,0.9014,0.9351,0.9425,0.9319,0.9181,0.9024,0.8803,0.8675,0.8638,0.8638,0.8248,0.7759,0.7759,0.7325,0.6816,0.6816,0.6816,0.6816,0.6816,0.6714,0.668,0.6996,0.6903,0.6813,0.7147,0.7136,0.694,0.6515,0.6716,0.6882,0.6563,0.6453,0.6491,0.6648,0.6975,0.0,0.8212,0.8778,0.927,0.9713,1.0065,1.0228,1.012,1.0021,0.9896,0.9753,0.9488,0.9344,0.9344,0.9645,1.0243,1.1173,1.1842,1.2985,0.0,0.0,0.0,0.0,0.0,0.0,0.0,0.0,0.0,0.0,0.0,0.0,0.0,0.0,0.0,0.0,0.0,0.0,0.0,0.0,0.0,0.0,0.4753,0.4841,0.4398,0.4604,0.4882,0.5054,0.434,0.4187,0.5084,0.4707,0.4776,0.5671,0.5643,0.5622,0.5734,0.5035,0.4979,0.5705,0.4697,0.4608,0.5535,0.5537,0.5818,0.634,0.672,0.6621,0.6053,0.6137,0.5735,0.0,0.5467,0.5642,0.5642,0.5642,0.5694,0.0,0.0,0.0,0.0,0.0,0.7186,0.6736,0.6266,0.6116,0.6116,0.6116,0.5794,0.5497,0.5824,0.5738,0.5573,0.5918,0.6167,0.6339,0.6339,0.6363,0.6412,0.6412,0.636,0.6339,0.6339,0.6282,0.6198,0.6078,0.0,0.0,0.5987,0.5957,0.6114,0.6556,0.7008,0.7591,0.8393,0.9052,0.9555,0.9787,1.0069,1.0148,0.9885,0.9897,0.0,0.0,0.0,0.9481,0.9481,0.96,0.0,0.0,0.0,1.2319,1.3802,0.0,0.0,0.0,1.6008,1.5821,0.0,0.0,0.0,0.0,0.0,0.0,0.0,0.0,0.0,0.0,0.0,0.0,0.0,0.0,0.0,0.0,0.4609,0.4404,0.3547,0.3806,0.4155,0.4259,0.3373,0.2773,0.2895,0.2806,0.2774,0.2895,0.2684,0.264,0.2848,0.0,0.0,0.0,0.0,0.3679,0.4168,0.4168,0.4431,0.4979,0.4602,0.4251,0.389,0.3547,0.2946,0.2222,0.2272,0.2297,0.2297,0.2297,0.234,0.2673,0.5564,0.6958,0.7195,0.5762,0.4635,0.0,0.0,0.0,0.0,0.2391,0.2391,0.2541,0.3245,0.3798,0.4329,0.5031,0.5657,0.6084,0.6084,0.6184,0.6312,0.6312,0.6362,0.6412,0.6412,0.6412,0.6377,0.6314,0.6205,0.6091,0.5945,0.6027,0.6405,0.7286,0.7598,0.8126,0.918,0.9774,0.9981,0.966,0.0,0.0,0.953,0.9719,0.9824,0.9774,0.9733,0.9711,0.9733,0.9733,0.9961,1.0432,1.1194,1.1954,1.2667,1.3444,1.4022,1.4424,1.4807,1.4823,0.0,0.0,0.0,0.0,0.0,0.0,0.0,0.0,0.0,0.0,0.0,0.0,0.0,0.0,0.0,0.482,0.4776,0.4455,0.3744,0.3184,0.2884,0.2953,0.22,0.2012,0.2826,0.2156,0.2036,0.285,0.2851,0.2751,0.2575,0.2135,0.0,0.184,0.1483,0.1569,0.2165,0.2165,0.244,0.2963,0.0,0.0,0.2097,0.2023,0.1674,0.1134,0.157,0.175,0.175,0.175,0.1508,0.1292,0.289,0.3486,0.3442,0.3141,0.289,0.2691,0.2466,0.2391,0.2391,0.2391,0.2391,0.2442,0.2591,0.2717,0.0,0.2968,0.3571,0.4148,0.4148,0.4954,0.5759,0.5759,0.6087,0.6412,0.6412,0.6412,0.6377,0.6314,0.6273,0.6219,0.6096,0.5816,0.5763,0.6165,0.6179,0.6474,0.7396,0.7597,0.8061,0.9032,0.9487,0.9801,0.9949,1.0111,1.0209,1.0171,1.0317,1.0453,1.0564,1.0564,1.0615,1.0722,1.0893,1.1462,1.2456,1.2632,1.2895,1.3259,1.4395,1.4795,0.0,0.0,0.0,0.0,0.0,0.0,0.0,0.0,0.0,0.0,0.0,0.4621,0.0,0.0,0.4663,0.4734,0.4519,0.3853,0.2451,0.2028,0.1858,0.1891,0.1082,0.0703,0.1199,0.068,0.0558,0.1199,0.1004,0.0903,0.1038,0.0805,0.0662,0.0687,0.0742,0.0898,0.1209,0.1209,0.146,0.1988,0.1729,0.1386,0.0984,0.0699,0.0182,-0.0446,-0.0157,-0.0052,-0.0052,-0.0052,-0.0181,-0.0354,0.0231,0.0768,0.121,0.136,0.1058,0.058,0.0454,0.0403,0.0403,0.0403,0.0403,0.0479,0.0882,0.1184,0.1486,0.1887,0.2491,0.3094,0.3494,0.4099,0.4703,0.5108,0.5611,0.6012,0.6012,0.6209,0.6396,0.6363,0.6333,0.6273,0.6213,0.5977,0.5818,0.5888,0.6005,0.6255,0.6695,0.7128,0.7757,0.8694,0.9038,0.9383,0.9868,1.0025,1.0154,1.0286,1.0396,1.0483,1.0552,1.0552,1.0613,1.0743,1.0855,1.1228,1.1901,1.1992,1.2144,1.2321,1.3,1.3248,0.0,0.0,0.0,0.0,0.0,0.0,0.0,0.426,0.4452,0.4499,0.4739,0.4974,0.5125,0.4872,0.4545,0.421,0.3867,0.2917,0.0866,0.0813,0.0918,0.0724,0.0,-0.0472,-0.0479,-0.0672,-0.072,-0.0504,-0.106,-0.1178,-0.0593,-0.0751,-0.0702,-0.0321,0.01,0.0328,0.0328,0.0328,0.0555,0.0962,0.0515,0.0182,-0.0052,-0.0768,-0.144,-0.206,-0.206,-0.1922,-0.1705,-0.171,-0.1678,-0.1628,-0.1685,-0.1138,-0.0306,-0.0076,-0.0559,-0.1328,-0.1532,-0.1608,-0.1608,-0.1608,-0.1608,-0.1506,-0.0842,-0.0356,0.0127,0.0785,0.1388,0.2014,0.2667,0.3017,0.342,0.4228,0.4832,0.5256,0.5409,0.5787,0.6087,0.6087,0.6138,0.6154,0.6154,0.6152,0.6104,0.5956,0.6198,0.6365,0.6341,0.6929,0.7545,0.8059,0.8283,0.8651,0.9314,0.9546,0.9731,0.9898,0.9955,0.9984,0.9984,0.9984,1.01,1.0319,1.0465,1.0656,1.0881,1.1031,1.1124,1.1124,1.1124,1.1236,0.3848,0.3866,0.395,0.4186,0.4251,0.4395,0.0,0.498,0.4996,0.5226,0.4982,0.4775,0.4917,0.4341,0.3618,0.3009,0.2573,0.1715,-0.0026,0.0026,-0.0078,-0.0934,-0.0867,-0.0756,-0.0757,-0.0781,-0.0781,-0.0757,-0.1689,-0.1939,-0.1158,-0.2014,-0.2191,-0.1435,-0.1363,-0.1338,-0.1338,-0.1338,-0.1324,-0.1319,-0.1401,-0.1478,-0.1602,-0.2678,-0.3218,-0.329,-0.329,-0.2698,-0.1706,-0.176,-0.1737,-0.1686,-0.1688,-0.1618,-0.1506,-0.1484,-0.1542,-0.1642,-0.1668,-0.1695,-0.1695,-0.1695,-0.1695,-0.1668,-0.1589,-0.152,-0.1449,-0.1345,-0.0741,-0.0076,0.0025,0.0932,0.2037,0.2844,0.3422,0.4024,0.4732,0.4935,0.4985,0.4985,0.5352,0.5667,0.5667,0.6003,0.623,0.6107,0.6019,0.5916,0.5813,0.5779,0.5924,0.6344,0.671,0.7285,0.8121,0.8593,0.8748,0.8532,0.8748,0.8873,0.8873,0.8873,0.8888,0.8931,0.895,0.8978,0.9003,0.9022,0.9041,0.9041,0.9041,0.9618,0.3602,0.3956,0.4306,0.4533,0.4713,0.4822,0.4854,0.4902,0.4881,0.469,0.4702,0.4763,0.4791,0.3912,0.3092,0.0,0.1952,0.0946,-0.0232,-0.0279,-0.05,-0.1312,-0.1301,-0.1158,-0.1033,-0.1162,-0.1464,-0.1941,-0.2518,-0.2644,-0.2168,-0.2695,-0.2596,-0.1642,-0.1592,-0.1592,-0.1592,-0.1592,-0.1633,-0.1688,-0.1705,-0.2081,-0.2812,-0.3312,-0.3931,-0.4615,-0.4615,-0.4301,-0.3756,-0.3107,-0.2798,-0.2691,-0.2014,-0.1758,-0.1754,-0.1724,-0.1694,-0.1704,-0.1704,-0.1704,-0.1704,-0.1704,-0.2183,-0.2741,-0.2741,-0.2755,-0.2739,-0.2739,-0.1991,-0.1042,-0.0573,-0.0052,0.0572,0.1379,0.1975,0.2615,0.3461,0.3886,0.4231,0.4719,0.4985,0.5135,0.5135,0.5302,0.541,0.5344,0.5725,0.5966,0.5824,0.5765,0.5882,0.6284,0.6935,0.7487,0.786,0.8286,0.8552,0.8584,0.8701,0.8747,0.8747,0.8747,0.8692,0.8533,0.8456,0.8417,0.8417,0.8478,0.8518,0.8518,0.8642,0.8713,0.3265,0.3626,0.3941,0.4355,0.4573,0.461,0.4394,0.4607,0.4734,0.4371,0.4455,0.4585,0.45,0.348,0.2539,0.2275,0.1225,0.0201,-0.0606,-0.072,-0.0928,-0.1469,-0.1507,-0.1447,-0.1289,-0.1474,-0.1958,-0.2844,-0.3373,-0.3547,-0.3371,-0.3565,-0.3165,-0.207,-0.1777,-0.1625,-0.1592,-0.1592,-0.1785,-0.2154,-0.2192,-0.2818,-0.3955,-0.4384,-0.5029,-0.5864,-0.5864,-0.5452,-0.4749,-0.3944,-0.3383,-0.2955,-0.2132,-0.179,-0.1787,-0.1737,-0.1729,-0.1729,-0.1729,-0.1945,-0.2214,-0.2214,-0.3048,-0.4018,-0.4018,-0.4005,-0.3991,-0.3991,-0.3124,-0.2049,-0.149,-0.1091,-0.0639,0.0186,0.0665,0.1192,0.204,0.2738,0.3345,0.3921,0.434,0.4613,0.4587,0.4709,0.4809,0.4809,0.5337,0.5756,0.5784,0.5826,0.5947,0.6244,0.6849,0.7225,0.7225,0.7548,0.7827,0.8012,0.8033,0.8033,0.8033,0.8033,0.7934,0.7749,0.7644,0.7596,0.7596,0.769,0.7722,0.7691,0.7893,0.766,0.2776,0.2599,0.2402,0.3396,0.3499,0.3419,0.368,0.4236,0.471,0.4775,0.444,0.4072,0.3946,0.2987,0.1904,0.0934,0.0123,-0.0643,-0.1462,-0.1566,-0.1571,-0.1594,-0.1544,-0.1503,0.0,-0.1555,-0.2028,-0.3119,-0.415,-0.4749,-0.4749,-0.4806,-0.4329,-0.3175,-0.2209,-0.1673,-0.1592,-0.1592,-0.2165,-0.3264,-0.3377,-0.3999,-0.5101,-0.6406,-0.7013,-0.7041,-0.7041,-0.5728,-0.3548,-0.3582,-0.291,-0.1861,-0.181,-0.1793,-0.1793,-0.1793,-0.1792,-0.1792,-0.1792,-0.2573,-0.3547,-0.3547,-0.4354,-0.5353,-0.5353,-0.5296,-0.5258,-0.5258,-0.4364,-0.3433,-0.3406,-0.2528,-0.1465,-0.0666,-0.0453,-0.0213,0.0585,0.149,0.2144,0.2105,0.3184,0.4094,0.4045,0.4458,0.4809,0.4809,0.483,0.4995,0.5442,0.5629,0.5713,0.5727,0.5751,0.577,0.577,0.5951,0.6073,0.6073,0.6094,0.6094,0.6094,0.6094,0.6073,0.6073,0.607,0.6067,0.6067,0.6064,0.6013,0.5881,0.6087,0.6093,0.1925,0.2157,0.2343,0.2764,0.285,0.2902,0.3183,0.3332,0.3485,0.3642,0.3511,0.3245,0.2789,0.1837,0.0893,0.0168,-0.0657,-0.1316,-0.1614,-0.1628,-0.158,-0.154,-0.1502,0.0,0.0,0.0,0.0,-0.412,-0.4593,-0.5102,-0.5832,-0.6009,-0.5588,-0.4484,-0.3407,-0.2818,-0.2799,-0.2032,-0.1869,-0.2269,-0.396,-0.5403,-0.6669,-0.7782,-0.8372,-0.8473,-0.8262,-0.774,-0.6946,-0.529,-0.444,-0.4021,-0.2432,-0.2298,-0.2995,-0.2995,-0.3497,-0.4081,-0.3274,-0.3776,-0.4804,-0.4804,-0.5586,-0.6536,-0.6536,-0.6511,-0.6483,-0.6483,-0.5657,-0.4589,-0.3769,-0.3275,-0.2697,-0.1626,-0.1351,-0.1127,-0.0272,0.0163,0.0539,0.1032,0.2031,0.2755,0.268,0.3313,0.3912,0.4216,0.4535,0.4784,0.495,0.5237,0.5433,0.5433,0.5756,0.5927,0.5844,0.5902,0.5976,0.6067,0.6064,0.6064,0.6064,0.6064,0.5692,0.4884,0.54,0.5358,0.4735,0.5448,0.5788,0.5744,0.5947,0.6089,0.1751,0.1651,0.143,0.187,0.1807,0.1685,0.189,0.2016,0.2122,0.2273,0.2307,0.2191,0.1792,0.0975,0.0242,-0.0229,-0.0975,-0.1528,-0.1657,-0.1619,-0.1549,-0.1532,-0.151,-0.1497,0.0,0.0,0.0,-0.4636,-0.4792,-0.5468,-0.7003,-0.6842,-0.6412,-0.5763,-0.4622,-0.4024,-0.4076,-0.33,-0.3183,-0.3735,-0.5694,-0.7174,-0.8136,-0.8798,-0.9117,-0.92,-0.8978,-0.8645,-0.8094,-0.6047,-0.5026,-0.4595,-0.3107,-0.2977,-0.373,-0.4213,-0.5128,-0.5939,-0.4676,-0.5074,-0.6107,-0.6042,-0.6842,-0.7824,-0.7752,-0.774,-0.7749,-0.7821,-0.6956,-0.5845,-0.515,-0.4625,-0.4,-0.2748,-0.2477,-0.2224,-0.119,-0.0689,-0.0329,0.0189,0.1021,0.1604,0.1549,0.1989,0.2471,0.2807,0.3122,0.3662,0.4603,0.5107,0.536,0.536,0.5467,0.5484,0.5413,0.5055,0.5028,0.5491,0.5493,0.563,0.6014,0.566,0.5102,0.4322,0.4484,0.443,0.4166,0.4868,0.535,0.5626,0.5855,0.5999,0.2159,0.1162,-0.0124,0.0695,0.0373,-0.0135,-0.0052,0.0382,0.0766,0.0886,0.0988,0.1051,0.0962,0.0405,-0.0103,-0.0323,-0.09,-0.1376,-0.1569,-0.1545,-0.1529,0.0,0.0,0.0,0.0,0.0,0.0,-0.4655,0.0,-0.5831,-0.8185,-0.7336,-0.6851,-0.6986,-0.5821,-0.5265,-0.5399,-0.5203,-0.585,-0.7318,-0.8331,-0.9022,-0.9424,-0.9413,-0.9335,-0.9231,-0.9217,-0.8451,-0.7104,-0.5984,-0.4828,-0.3814,-0.3875,-0.3943,-0.4143,-0.543,-0.6563,-0.7317,-0.6051,-0.6442,-0.7448,-0.7287,-0.8121,-0.9165,-0.8973,-0.8933,-0.8963,-0.9155,-0.8245,-0.7251,-0.7381,-0.6557,-0.5368,-0.4019,-0.3801,-0.3547,-0.22,-0.1209,-0.0559,-0.0577,0.0137,0.0734,0.0695,0.0692,0.0714,0.078,0.0804,0.1725,0.4316,0.5035,0.5323,0.5374,0.4798,0.4407,0.4427,0.3498,0.3354,0.4443,0.4386,0.4777,0.5795,0.4849,0.4259,0.4147,0.3384,0.3382,0.4233,0.4322,0.4764,0.5518,0.5772,0.5837,0.1955,0.145,0.0679,-0.0132,-0.0667,-0.0875,-0.0403,-0.0145,0.0163,0.0764,0.0882,0.0758,0.0325,-0.0096,-0.0513,-0.0972,-0.1311,0.0,-0.1664,-0.1663,0.0,-0.1611,-0.1594,-0.1585,-0.1585,-0.2323,0.0,0.0,-0.507,-0.599,-0.8192,-0.822,-0.8193,-0.8247,-0.7168,-0.6603,-0.663,-0.5714,-0.5975,-0.739,-0.7646,-0.8418,-0.9547,-0.9435,-0.9422,-0.9479,-0.9281,-0.8989,-0.8586,-0.739,-0.6698,-0.636,-0.5602,-0.5847,-0.6686,-0.701,-0.7895,-0.8852,-0.8494,-0.8552,-0.8764,-0.881,-0.906,-0.9345,-0.9279,-0.9269,-0.9276,-0.9342,-0.9095,-0.8584,-0.7655,-0.7247,-0.6763,-0.5398,-0.519,-0.4928,-0.3576,-0.3108,-0.2631,-0.1651,-0.0751,0.0027,0.0652,0.0725,0.0718,0.0714,0.0714,0.1202,0.2531,0.2632,0.2898,0.3701,0.3459,0.3281,0.338,0.3133,0.3403,0.4423,0.4468,0.4573,0.4857,0.4602,0.373,0.2175,0.3316,0.3717,0.3269,0.4656,0.5447,0.5642,0.5731,0.5843,0.2202,0.1574,0.0815,-0.0513,-0.1153,-0.1361,-0.0974,-0.0835,-0.0636,-0.008,0.0,-0.0126,-0.0395,-0.0594,-0.083,-0.1197,-0.1381,-0.1516,-0.1632,-0.1648,-0.1645,-0.1637,-0.1624,0.0,-0.1652,-0.2719,-0.3959,0.0,-0.5677,-0.6683,-0.8477,-0.8693,-0.8784,-0.8784,-0.8145,-0.7813,-0.7813,-0.7268,-0.7446,-0.8272,-0.8329,-0.8912,-0.991,-0.9675,-0.9677,-0.9806,0.0,-0.9342,-0.9195,-0.7982,-0.7492,-0.7431,-0.6879,-0.7109,-0.7809,-0.8346,-0.897,-0.949,-0.9551,-0.9479,-0.9386,-0.9403,-0.9425,-0.9469,-0.943,-0.941,-0.9424,-0.9462,-0.9435,-0.9229,-0.854,-0.8417,-0.8146,-0.6797,-0.6592,-0.6303,-0.4971,-0.4202,-0.3395,-0.2047,-0.1416,-0.092,-0.0415,-0.0384,-0.0407,-0.0404,-0.0404,-0.008,0.082,0.1325,0.1828,0.2444,0.2165,0.2006,0.2183,0.1785,0.1999,0.3147,0.3604,0.4066,0.4572,0.4097,0.3296,0.2122,0.2714,0.2978,0.2911,0.4364,0.5307,0.5688,0.5688,0.5777,0.2588,0.1669,0.0696,-0.06,-0.1315,-0.1657,-0.1499,-0.1438,-0.1322,-0.1128,-0.1089,-0.1069,-0.0993,-0.1008,-0.1076,-0.12,-0.1279,-0.1384,-0.1573,-0.16,-0.1622,-0.1676,-0.1637,-0.1695,-0.1937,-0.3143,-0.441,-0.5635,-0.6646,-0.7723,-0.8844,-0.8929,-0.894,-0.894,-0.8791,-0.874,-0.874,-0.9043,-0.9257,-0.9413,-0.9537,-0.9833,-1.0304,-0.994,-0.9935,-1.0112,0.0,0.0,-0.9353,-0.8371,-0.793,-0.7899,-0.8056,-0.8127,-0.8285,-0.939,-0.9714,-0.9656,-0.9748,-0.971,-0.9615,-0.9483,-0.953,-0.9612,-0.9479,-0.9439,-0.9466,-0.9602,-0.954,-0.9466,-0.9581,-0.9625,-0.9327,-0.8149,-0.798,-0.7711,-0.6366,-0.4897,-0.3466,-0.2291,-0.1932,-0.186,-0.2002,-0.2049,-0.2036,-0.2034,-0.2029,-0.168,-0.0708,0.0441,0.1207,0.1362,0.0882,0.0655,0.0907,0.0126,0.0151,0.1462,0.2332,0.3267,0.4249,0.3343,0.2743,0.2604,0.1821,0.1823,0.2698,0.3655,0.4589,0.5508,0.5508,0.5577,0.2582,0.1951,0.1191,-0.0689,-0.1438,-0.1643,-0.1394,-0.1324,-0.1256,-0.1064,-0.1012,-0.0991,-0.0932,-0.106,-0.1196,-0.1261,-0.1383,-0.1502,-0.1585,-0.1593,-0.1613,-0.1624,-0.1668,-0.2135,-0.3235,-0.436,0.0,0.0,0.0,-0.8942,-0.8895,-0.9052,-0.9145,-0.9145,-0.8974,-0.8872,-0.8872,-0.9097,-0.9257,-0.9413,-0.9537,-0.9833,-1.0304,-0.994,-0.996,-1.0238,0.0,0.0,-0.9578,-0.9753,-0.9596,-0.9288,-0.97,-0.9701,-0.9484,-0.9727,-0.9775,-0.9758,-0.9781,-0.9775,-0.9751,-0.9724,-0.9734,-0.9748,-0.9751,-0.9744,-0.9721,-0.9748,-0.9734,-0.9724,-0.9632,-0.9696,-0.9687,-0.9334,-0.9347,-0.9105,-0.7801,-0.5616,-0.3805,-0.3586,-0.2604,-0.2125,-0.3116,-0.3276,-0.3299,-0.3289,-0.3287,-0.2878,-0.1711,-0.1295,-0.0773,0.0177,-0.0404,-0.0732,-0.048,-0.0429,0.0076,0.121,0.1633,0.1931,0.2132,0.1939,0.1431,0.0534,0.11,0.1493,0.1653,0.2664,0.3628,0.4545,0.4545,0.4948,0.216,0.1765,0.1303,-0.0745,-0.1443,-0.1585,-0.1349,-0.1241,-0.1144,-0.0978,-0.0947,-0.0943,-0.0901,-0.1035,-0.1276,-0.1697,-0.1567,-0.1577,-0.205,-0.1761,-0.1528,-0.1631,-0.1679,-0.2238,-0.3618,-0.4849,-0.6195,0.0,0.0,-0.9439,-0.9268,-0.923,-0.9148,-0.9045,-0.8946,-0.8912,-0.8912,-0.9161,-0.9298,-0.9294,-0.9574,-0.9867,-1.019,-1.0087,-1.0243,-1.0547,-1.0395,0.0,-1.0234,-1.0457,-1.0322,-0.9998,-1.0215,-1.0092,-0.9792,-0.9792,-0.9792,-0.9792,-0.9792,-0.9792,-0.9792,-0.9792,-0.9792,-0.9792,-0.9792,-0.9792,-0.9792,-0.9792,-0.9792,-0.9775,-0.9707,-0.9741,-0.9771,-0.9707,-0.9741,-0.9454,-0.8163,-0.6902,-0.5762,-0.5089,-0.3836,-0.3054,-0.3609,-0.3148,-0.2694,-0.267,-0.2667,-0.2447,-0.1865,-0.1779,-0.1537,-0.0936,-0.1221,-0.1345,-0.1077,-0.0948,-0.0587,0.0126,0.0807,0.1184,0.1184,0.1188,0.1004,0.0638,0.1,0.1266,0.1407,0.2415,0.3125,0.3592,0.4068,0.4543,0.1372,0.1115,0.0888,-0.0937,-0.1506,-0.1538,-0.1338,-0.1182,-0.1061,-0.0928,-0.0898,-0.0911,-0.0924,-0.1024,-0.1293,-0.1892,-0.1759,-0.1765,-0.2266,-0.1955,-0.1686,-0.1696,-0.1726,0.0,-0.406,-0.5209,0.0,0.0,0.0,0.0,-0.9612,-0.9636,-0.9568,-0.937,-0.9666,-0.9787,-0.9726,-0.9821,-0.9798,-0.9706,-0.9755,-0.9912,-1.0133,-1.019,-1.0547,-1.1205,-1.1118,0.0,0.0,-1.1386,-1.1118,-1.0785,-1.0516,-1.0213,-0.9913,-0.9819,-0.9792,-0.9849,-1.0122,-1.0031,-0.9852,-1.0122,-1.0031,-0.9792,-0.9792,-0.9792,-0.9792,-0.9792,-0.9792,-0.9792,-0.9792,-0.9792,-0.9792,-0.9792,-0.9792,-0.9515,-0.8532,-0.8102,-0.7585,-0.6536,-0.5243,-0.4315,-0.4232,-0.3361,-0.2579,-0.2258,-0.2189,-0.2078,-0.183,-0.1791,-0.1778,-0.1726,-0.1707,-0.1607,-0.1404,-0.1319,-0.1155,-0.091,-0.005,0.0454,0.0454,0.0447,0.0567,0.0764,0.0726,0.0814,0.1006,0.1858,0.2381,0.2599,0.3341,0.3797,0.0027,-0.0219,-0.0443,-0.1424,-0.1619,-0.1533,-0.1271,-0.1149,-0.1061,-0.0928,-0.0898,-0.0924,-0.0978,-0.1053,-0.1138,-0.1264,-0.1959,-0.2261,-0.1603,-0.2121,-0.2354,-0.1776,-0.1762,0.0,-0.5356,-0.5791,0.0,0.0,0.0,0.0,0.0,-1.0575,-1.1036,-1.0913,-1.215,-1.2683,-1.2446,-1.1677,-1.13,-1.1284,-1.0272,-0.9967,-1.0283,-0.9967,-1.0842,-1.2517,0.0,0.0,0.0,-1.3326,-1.2792,-1.2371,-1.1205,-1.0547,-1.0213,-0.9913,-0.9792,-0.9974,-1.1118,-1.0759,-1.0001,-1.1148,-1.0725,-0.9792,-0.9792,-0.9792,-0.9792,-0.9792,-0.9792,-0.9792,-0.9792,-0.9792,-0.9792,-0.9792,-0.9792,-0.9758,-0.9636,-0.8714,-0.7853,-0.7751,-0.664,-0.5678,-0.555,-0.5363,-0.487,-0.3695,-0.3476,-0.3038,-0.1947,-0.1808,-0.179,-0.1787,-0.1741,-0.1691,-0.1662,-0.1381,-0.1189,-0.1162,-0.0833,-0.0656,-0.0656,-0.0655,-0.063,-0.0604,-0.0395,-0.0269,-0.0245,0.0096,0.0714,0.1542,0.1637,0.2155,-0.0263,-0.041,-0.0611,-0.1492,-0.1626,-0.1491,-0.1301,-0.1151,-0.1019,-0.0921,-0.0898,-0.0926,-0.0985,-0.1028,-0.1347,-0.2316,-0.2377,-0.2525,-0.3185,-0.3316,-0.3078,-0.2328,-0.3162,0.0,0.0,0.0,0.0,0.0,0.0,0.0,0.0,-1.1938,-1.2418,-1.2124,-1.2824,-1.3069,-1.2808,-1.2704,-1.2209,-1.1375,-1.1077,-1.056,-0.9906,-1.0835,-1.1661,-1.244,0.0,0.0,0.0,-1.4202,-1.3844,-1.3421,-1.2139,-1.145,-1.1027,-1.0122,-0.9849,-0.9988,-1.0508,-1.0873,-1.1203,-1.1723,-1.2015,-1.1864,-1.027,-1.0429,-1.0961,-1.0142,-1.0025,-1.0097,-1.0097,-0.9998,-0.9903,-0.9812,-0.9792,-0.9792,-0.9792,-0.939,-0.9052,-0.9052,-0.8005,-0.7092,-0.7029,-0.5665,-0.4395,-0.3911,-0.312,-0.2382,-0.1871,-0.1814,-0.1795,-0.1795,-0.1763,-0.1762,-0.177,-0.165,-0.155,-0.1492,-0.1401,-0.1317,-0.129,-0.1328,-0.1252,-0.1036,-0.0928,-0.0724,-0.04,-0.0297,0.0025,0.0582,0.1138,0.1612,-0.0648,-0.0738,-0.0926,-0.1533,-0.1565,-0.1439,-0.1296,-0.1128,-0.0982,-0.0915,-0.0898,-0.0923,-0.0989,-0.1017,-0.1389,-0.2481,-0.2576,-0.2839,-0.3769,-0.406,-0.3912,-0.316,0.0,-0.5297,0.0,0.0,0.0,0.0,0.0,0.0,0.0,-1.34,-1.3886,-1.3516,-1.4137,-1.4347,-1.4063,-1.4069,-1.3538,-1.2554,-1.2366,-1.1773,-1.0859,-1.2085,-1.2891,-1.3391,0.0,0.0,0.0,-1.5308,-1.5006,-1.4644,-1.2891,-1.2118,-1.185,-1.051,-1.0173,-1.0425,-1.118,-1.1751,-1.2254,-1.2957,-1.3716,-1.396,-1.173,-1.1513,-1.1804,-1.0963,-1.0503,-1.0312,-1.0407,-1.0356,-1.0215,-1.0105,-1.0074,-1.0012,-0.989,-0.9822,-0.9792,-0.9792,-0.9083,-0.8346,-0.7978,-0.6018,-0.4351,-0.3974,-0.2754,-0.1892,-0.1841,-0.184,-0.1819,-0.1809,-0.1808,-0.1793,-0.1808,-0.1795,-0.1745,-0.1704,-0.1693,-0.1682,-0.1633,-0.1685,-0.1579,-0.1314,-0.127,-0.1041,-0.0631,-0.048,-0.0301,-0.0099,0.0643,0.0982,-0.1393,-0.1524,-0.1682,-0.1626,-0.1503,-0.1359,-0.124,-0.1096,-0.0986,-0.091,-0.0898,-0.0916,-0.0993,-0.1052,-0.1109,-0.1127,-0.246,-0.3254,-0.2618,-0.3993,-0.487,0.0,0.0,-0.533,-0.6923,0.0,0.0,0.0,0.0,0.0,0.0,-1.4887,-1.5461,-1.5196,-1.6658,-1.7317,-1.7058,-1.6072,-1.5569,-1.5534,-1.4292,-1.3665,-1.3665,-1.3695,-1.452,0.0,0.0,0.0,0.0,-1.6985,-1.6479,-1.6184,-1.3306,-1.2389,-1.2535,-1.1102,-1.0794,-1.1437,-1.3906,-1.3749,-1.2869,-1.5186,-1.598,-1.5737,-1.4455,-1.3079,-1.2044,-1.2313,-1.1372,-1.0375,-1.0725,-1.0785,-1.0785,-1.0785,-1.0691,-1.0484,-1.0077,-0.9896,-0.9792,-0.9792,-0.9792,-0.939,-0.8102,-0.6785,-0.5437,-0.409,-0.2767,-0.19,-0.19,-0.1904,-0.1873,-0.1814,-0.1811,-0.1787,-0.1809,-0.1749,-0.1705,-0.1704,-0.1704,-0.1692,-0.1689,-0.1689,-0.1676,-0.1593,-0.1389,-0.126,-0.1187,-0.0657,-0.0404,-0.0379,-0.0101,0.0025,-0.1317,-0.1379,-0.1418,-0.141,-0.1319,-0.1235,-0.1155,-0.1035,-0.0931,-0.0906,-0.0898,-0.0916,-0.0992,-0.0986,-0.1153,-0.1758,-0.2742,-0.3581,-0.4011,-0.5299,0.0,-0.5364,-0.6123,-0.7242,0.0,0.0,0.0,0.0,0.0,0.0,0.0,-1.3575,-1.4577,-1.5172,-1.6693,-1.7267,-1.6827,-1.6701,-1.6187,-1.5332,-1.4924,-1.4355,-1.3725,-1.4589,0.0,0.0,0.0,0.0,0.0,-1.7355,-1.7179,-1.6909,-1.4262,-1.3358,-1.3373,-1.2153,-1.2025,-1.2657,-1.4014,-1.4979,-1.5706,-1.603,-1.6792,-1.7508,-1.7104,-1.5437,-1.3355,-1.169,-1.0934,-1.0623,-1.0869,-1.0938,-1.0977,-1.1096,-1.0939,-1.0681,-1.0447,-1.0167,-0.9913,-0.9812,-0.9792,-0.9667,-0.9268,-0.8133,-0.7121,-0.6693,-0.5492,-0.4304,-0.3373,-0.3238,-0.2836,-0.1901,-0.1812,-0.1796,-0.1812,-0.1772,-0.1757,-0.1764,-0.1755,-0.1744,-0.1693,-0.1747,-0.1734,-0.1675,-0.1605,-0.1441,-0.1212,-0.1035,-0.0758,-0.0404,-0.0126,0.0,-0.1179,-0.1241,-0.1272,-0.1253,-0.1218,-0.1137,-0.1071,-0.0975,-0.0906,-0.0901,-0.0898,-0.0909,-0.0962,-0.0951,-0.1111,-0.1662,-0.2652,-0.3624,-0.4347,0.0,0.0,-0.6806,0.0,0.0,0.0,0.0,0.0,0.0,0.0,0.0,0.0,0.0,-1.3216,-1.3859,-1.5287,-1.5859,-1.5465,-1.5704,-1.5607,-1.5196,-1.5316,-1.521,-1.4999,-1.5921,0.0,0.0,0.0,0.0,0.0,-1.7514,-1.7514,-1.7303,-1.5213,-1.455,-1.46,-1.3456,-1.3419,-1.406,-1.5008,-1.6069,-1.6954,-1.7091,-1.7832,-1.8456,-1.7354,-1.5855,-1.3983,-1.1428,-1.0688,-1.0796,-1.1192,-1.1294,-1.137,-1.163,-1.1494,-1.1192,-1.0837,-1.0521,-1.0232,-1.0043,-0.9917,-0.9876,-0.9876,-0.8781,-0.7889,-0.7889,-0.6764,-0.5607,-0.4762,-0.4182,-0.351,-0.2696,-0.2137,-0.2036,-0.2516,-0.209,-0.1787,-0.1795,-0.1812,-0.1773,-0.175,-0.1778,-0.1766,-0.1706,-0.1716,-0.1628,-0.1392,-0.1289,-0.1005,-0.0593,-0.0284,-0.0154,0.0,-0.1125,-0.1171,-0.1171,-0.1125,-0.1072,-0.1014,-0.0943,0.0,-0.0898,-0.0898,-0.09,-0.0906,-0.096,-0.1001,-0.1009,-0.2329,-0.348,-0.3861,-0.5595,0.0,0.0,-0.8927,0.0,0.0,0.0,0.0,0.0,0.0,0.0,0.0,0.0,-1.1547,-1.1565,-1.28,-1.3419,-1.3412,-1.3577,-1.4168,-1.509,-1.5354,-1.6039,-1.7041,-1.7306,0.0,0.0,0.0,0.0,0.0,-1.7514,-1.7514,-1.7361,-1.6107,-1.5793,-1.5961,-1.4912,-1.4895,-1.5571,-1.6751,-1.704,-1.7041,-1.8259,-1.89,-1.8654,-1.5853,-1.4816,-1.4033,-1.1428,-1.0688,-1.0853,-1.1582,-1.178,-1.1879,-1.221,-1.2217,-1.193,-1.1207,-1.0934,-1.0704,-1.0379,-1.0164,-1.0035,-1.0035,-0.8952,-0.8064,-0.8055,-0.698,-0.6149,-0.6049,-0.4947,-0.416,-0.4039,-0.2923,-0.2666,-0.3855,-0.263,-0.1854,-0.1939,-0.1852,-0.181,-0.1809,-0.1808,-0.1767,-0.1709,-0.176,-0.176,-0.1704,-0.1438,-0.1172,-0.0907,-0.056,-0.0397,-0.0932,0.0,-0.0971,-0.0971,-0.0955,-0.0938,0.0,-0.0913,-0.0898,-0.0898,-0.0898,-0.0919,-0.0973,-0.0984,-0.1029,-0.1138,-0.2616,-0.3854,-0.4088,0.0,0.0,-0.8461,0.0,0.0,0.0,0.0,0.0,0.0,0.0,0.0,0.0,0.0,-1.0165,-1.0307,-1.0717,-1.1753,-1.3461,-1.3509,-1.3712,-1.406,-1.4264,-1.513,-1.6483,-1.6447,0.0,0.0,0.0,0.0,-1.7849,-1.7602,-1.7514,-1.7361,-1.6107,-1.5717,-1.5863,-1.5688,-1.5933,-1.6509,-1.7456,-1.8022,-1.8318,-1.836,-1.8625,-1.8575,-1.6735,-1.5735,-1.4572,-1.156,-1.0688,-1.0787,-1.1218,-1.1582,-1.1879,-1.221,-1.2277,-1.2109,-1.1557,-1.1178,-1.0827,-1.0364,-1.0249,-1.0226,-1.0226,-0.9939,-0.9688,-0.9544,-0.9246,-0.8647,-0.7561,-0.7151,-0.6565,-0.554,-0.5142,-0.505,-0.5321,-0.3147,-0.2229,-0.3252,-0.237,-0.1792,-0.1812,-0.1791,-0.1805,-0.1767,-0.175,-0.1711,-0.1704,-0.1439,-0.1279,-0.1198,-0.064,-0.0399,-0.0898,-0.0893,-0.0904,-0.0904,-0.0904,-0.0904,-0.0904,-0.0893,-0.0898,-0.0898,-0.0898,-0.0917,-0.095,-0.0974,-0.1043,-0.1182,-0.271,0.0,0.0,0.0,-0.8427,-0.8777,0.0,0.0,0.0,0.0,0.0,0.0,0.0,0.0,0.0,0.0,-0.9685,-0.9849,-0.9927,-1.0623,-1.202,-1.2103,-1.2396,-1.2904,-1.3146,-1.4285,-1.6212,-1.6259,-1.7056,0.0,0.0,0.0,-1.8165,-1.7983,-1.7837,-1.7667,-1.6979,-1.6641,-1.6595,-1.6654,-1.6939,-1.7336,-1.7792,-1.8298,-1.8716,-1.8417,-1.8735,-1.8927,-1.7311,-1.6173,-1.4893,-1.2355,-1.167,-1.1604,-1.128,-1.1516,-1.1879,-1.221,-1.2408,-1.238,-1.1796,-1.1512,-1.1192,-1.0594,-1.0426,-1.0378,-1.0378,-1.0356,-1.0253,-1.0136,-1.0065,-0.974,-0.8974,-0.8292,-0.7618,-0.6893,-0.6252,-0.614,-0.6717,-0.4788,-0.3627,-0.3801,-0.2546,-0.1787,-0.1787,-0.1802,-0.1787,-0.1799,-0.1754,-0.1746,-0.1746,-0.1611,-0.1529,-0.1528,-0.0901,-0.0625,-0.0909,-0.0922,-0.0928,-0.0911,-0.0913,-0.0919,-0.09,-0.0912,-0.0911,-0.0911,-0.0911,-0.0952,-0.1083,-0.1053,-0.1146,-0.1568,0.0,0.0,-0.7373,-0.8114,-0.8577,-0.9056,0.0,0.0,0.0,0.0,0.0,0.0,0.0,0.0,0.0,0.0,0.0,-0.9816,-0.9845,-0.9975,-1.0263,-1.0376,-1.0913,-1.1881,-1.2069,-1.3407,-1.5687,-1.6102,-1.7015,0.0,0.0,0.0,-1.8473,-1.8421,-1.8282,-1.8054,-1.8054,-1.7843,-1.7573,-1.7573,-1.7683,-1.7847,-1.7906,-1.8209,-1.858,-1.8431,-1.899,-1.9443,-1.7879,-1.6653,-1.5446,-1.3694,-1.2849,-1.226,-1.1347,-1.1416,-1.1813,-1.2144,-1.2474,-1.2539,-1.1945,-1.1813,-1.1582,-1.0853,-1.0616,-1.0527,-1.0527,-1.0426,-1.0341,-1.0317,-1.0202,-1.0069,-1.0025,-0.8971,-0.8216,-0.8197,-0.7182,-0.6968,-0.8102,-0.6807,-0.5438,-0.4201,-0.2848,-0.1983,-0.1812,-0.1811,-0.1795,-0.1795,-0.1795,-0.1795,-0.1795,-0.1795,-0.1795,-0.1795,-0.1234,-0.0946,-0.0975,-0.1029,-0.1047,-0.093,-0.0943,-0.0975,-0.0919,-0.0944,-0.0989,-0.0989,-0.0989,-0.1186,-0.1868,-0.1491,-0.1637,-0.3299,0.0,-0.6471,0.0,0.0,0.0,0.0,0.0,0.0,0.0,0.0,0.0,0.0,0.0,0.0,0.0,0.0,-0.9699,-0.9867,-0.9995,-1.0088,-1.0117,-1.0097,-1.0507,-1.1306,-1.1133,-1.2006,-1.3834,-1.4872,-1.6149,0.0,0.0,-1.8561,-1.8794,-1.8532,-1.8392,-1.8334,-1.8334,-1.8165,-1.7908,-1.7908,-1.7779,-1.7604,-1.7881,-1.803,-1.8151,-1.8343,-1.9046,-1.9658,-1.9069,-1.8293,-1.7232,-1.5479,-1.307,-1.0982,-1.0817,-1.1016,-1.1383,-1.178,-1.2144,-1.2276,-1.1879,-1.1813,-1.1582,-1.0853,-1.0667,-1.0683,-1.0683,-1.0633,-1.0609,-1.048,-1.0439,-1.0331,-1.0049,-0.9808,-0.9622,-0.9528,-0.9329,-0.9299,-0.9481,-0.8311,-0.6981,-0.5675,-0.4169,-0.2871,-0.184,-0.1811,-0.1795,-0.1795,-0.1795,-0.1795,-0.1795,-0.1795,-0.1795,-0.1795,-0.1402,-0.112,-0.0932,-0.0998,-0.1031,-0.0975,-0.1032,-0.1089,-0.1025,-0.1025,-0.1181,-0.1616,-0.1359,-0.1447,-0.2718,-0.2451,-0.2748,-0.4992,0.0,-0.692,0.0,0.0,0.0,0.0,0.0,0.0,0.0,0.0,0.0,0.0,0.0,0.0,0.0,0.0,-0.9458,-0.962,-0.9689,-0.9853,-1.0107,-0.9805,-0.9982,-1.0623,-1.0544,-1.1367,-1.2919,-1.3531,-1.5049,-1.7237,0.0,-1.8227,-1.9156,-1.901,-1.8829,-1.8677,-1.8677,-1.8398,-1.7966,-1.7784,-1.7631,-1.7573,-1.8048,-1.8112,-1.8079,-1.8515,-1.9061,-1.953,-1.9543,-1.8822,-1.7678,-1.6118,-1.3816,-1.167,-1.0916,-1.0953,-1.1314,-1.1714,-1.1912,-1.1978,-1.1846,-1.1615,-1.1314,-1.0787,-1.0688,-1.0688,-1.0688,-1.0688,-1.0697,-1.0626,-1.0544,-1.0443,-1.0307,-1.0222,-1.0117,-0.993,-0.9913,-0.9879,-0.9798,-0.9201,-0.7673,-0.4981,-0.3489,-0.2439,-0.1866,-0.1807,-0.1791,-0.1791,-0.1804,-0.1795,-0.1795,-0.1795,-0.1795,-0.1795,-0.1458,-0.1234,-0.0915,-0.0977,-0.1025,-0.1025,-0.1094,-0.1174,-0.113,-0.1125,-0.1304,-0.193,-0.1751,-0.1913,-0.3377,-0.3735,0.0,-0.6188,-0.6784,0.0,0.0,0.0,0.0,0.0,0.0,0.0,0.0,0.0,0.0,0.0,0.0,0.0,0.0,0.0,-0.9248,-0.9272,-0.9351,-0.9507,-0.9713,-0.9424,-0.9583,-1.0139,-1.0143,-1.0806,-1.2064,-1.2472,-1.3866,-1.6015,-1.6697,-1.7689,-1.8881,-1.9243,-1.9243,-1.9033,-1.9033,-1.8684,-1.8171,-1.7837,-1.7719,-1.7778,-1.824,-1.8282,-1.819,-1.8803,-1.9204,-1.95,-1.9856,-1.9111,-1.7871,-1.6732,-1.4726,-1.2585,-1.1078,-1.0883,-1.1185,-1.1582,-1.1648,-1.1648,-1.1648,-1.1413,-1.1115,-1.0754,-1.0688,-1.0688,-1.0688,-1.0688,-1.0688,-1.0688,-1.0619,-1.0531,-1.0497,-1.0395,-1.0256,-1.0007,-0.9987,-0.9957,-0.9802,-0.9142,-0.7485,-0.4565,-0.2808,-0.1891,-0.1897,-0.1838,-0.1822,-0.1822,-0.1821,-0.1806,-0.1806,-0.1798,-0.1795,-0.1795,-0.1542,-0.1374,-0.0982,-0.104,-0.1086,-0.1086,-0.1092,-0.112,-0.1183,-0.1202,-0.1226,-0.1352,-0.2015,-0.2824,-0.3629,-0.5436,-0.6703,-0.6442,-0.7503,0.0,0.0,0.0,0.0,0.0,0.0,0.0,0.0,0.0,0.0,0.0,0.0,0.0,0.0,0.0,0.0,-0.8937,-0.9241,-0.9158,-0.8612,-0.8828,-0.9388,-1.0282,-0.9852,-1.004,-1.0791,-1.1959,-1.2699,-1.3172,-1.5838,-1.7085,-1.7296,-1.8794,-1.9395,-1.9366,-1.9366,-1.9156,-1.8794,-1.8444,-1.8334,-1.8334,-1.8392,-1.8392,-1.8475,-1.9086,-1.9503,-1.9859,-2.0387,-1.956,-1.8384,-1.7967,-1.5631,-1.2869,-1.1144,-1.0721,-1.082,-1.1148,-1.1247,-1.1247,-1.1247,-1.1214,-1.1115,-1.0754,-1.0688,-1.0688,-1.0688,-1.0688,-1.0688,-1.0688,-1.0677,-1.0653,-1.051,-1.0483,-1.0365,-1.0017,-0.9987,-0.9957,-0.9802,-0.7573,-0.6041,-0.5766,-0.3338,-0.19,-0.1898,-0.1898,-0.1883,-0.1883,-0.1824,-0.1808,-0.1808,-0.1808,-0.1795,-0.1795,-0.1767,-0.1598,-0.0926,-0.0989,-0.1033,-0.1033,-0.1108,-0.1187,-0.1243,-0.1269,-0.1413,-0.2001,-0.2518,-0.3358,-0.4932,-0.6361,-0.7316,-0.7391,-0.7946,0.0,0.0,0.0,0.0,0.0,0.0,0.0,0.0,0.0,0.0,0.0,0.0,0.0,0.0,0.0,0.0,-0.8767,-0.8907,-0.9149,-0.9492,-0.967,-1.0311,-1.1348,-1.0703,-1.0199,-0.9908,-1.1159,-1.198,-1.2513,-1.4599,-1.6079,-1.7114,-1.8735,-1.9395,-1.9395,-1.9185,-1.8997,-1.8852,-1.8532,-1.8275,-1.8165,-1.8334,-1.8152,-1.7986,-1.8747,-1.9084,-1.9282,-1.9856,-1.9922,-1.9495,-1.808,-1.635,-1.446,-1.252,-1.1376,-1.0787,-1.1118,-1.1049,-1.1181,-1.2264,-1.1641,-1.1115,-1.1868,-1.131,-1.0688,-1.0688,-1.0688,-1.0688,-1.0688,-1.0688,-1.0667,-1.0639,-1.0633,-1.0555,-1.0316,-1.0246,-1.0131,-0.9944,-0.7534,-0.5988,-0.59,-0.3432,-0.196,-0.196,-0.193,-0.1914,-0.1914,-0.1884,-0.1868,-0.1868,-0.1857,-0.1851,-0.1851,-0.1851,-0.1793,-0.0898,-0.0942,-0.1006,-0.0999,-0.1108,-0.122,-0.1321,-0.1331,-0.1617,-0.2597,-0.3398,-0.4373,-0.5819,-0.6836,0.0,0.0,0.0,0.0,0.0,0.0,0.0,0.0,0.0,0.0,0.0,0.0,0.0,0.0,0.0,0.0,0.0,0.0,0.0,0.0,-0.8638,-0.9064,-0.9948,-1.0213,-1.0889,-1.1937,-1.1941,-1.1401,-1.0452,-1.131,-1.2071,-1.275,-1.438,-1.5763,-1.6967,-1.8697,-1.9395,-1.9395,-1.9149,-1.8997,-1.8874,-1.8648,-1.8363,-1.8142,-1.8252,-1.8012,-1.7768,-1.8448,-1.8674,-1.8789,-1.9378,-1.9938,-1.9973,-1.8356,-1.6834,-1.5334,-1.3728,-1.202,-1.0754,-1.0982,-1.0886,-1.1016,-1.2231,-1.1541,-1.0982,-1.1963,-1.1376,-1.0688,-1.0688,-1.0688,-1.0688,-1.0688,-1.0688,-1.0688,-1.0688,-1.0688,-1.0663,-1.0507,-1.0365,-1.0239,-1.0099,-0.8066,-0.6553,-0.6019,-0.3918,-0.2481,-0.2008,-0.1956,-0.1945,-0.1945,-0.1915,-0.19,-0.19,-0.189,-0.1886,-0.1886,-0.1886,-0.1881,-0.0898,-0.0942,-0.0996,-0.0994,-0.1106,-0.1243,-0.1363,-0.1391,-0.1746,-0.2965,-0.4708,-0.5999,-0.6025,-0.6885,0.0,0.0,0.0,0.0,0.0,0.0,0.0,0.0,0.0,0.0,0.0,0.0,0.0,0.0,0.0,0.0,0.0,0.0,0.0,0.0,-0.8505,-0.8848,-0.9612,-1.0222,-1.0953,-1.185,-1.345,-1.3629,-1.2595,-1.2622,-1.3008,-1.3771,-1.5405,-1.6247,-1.6655,-1.8584,-1.9395,-1.9395,-1.9395,-1.9185,-1.8903,-1.8903,-1.8677,-1.8363,-1.8083,-1.8002,-1.8045,-1.8312,-1.8405,-1.8515,-1.9111,-1.9476,-1.9573,-1.8969,-1.7066,-1.5113,-1.4609,-1.2609,-1.0717,-1.0688,-1.0688,-1.0688,-1.0721,-1.0721,-1.0688,-1.0721,-1.0721,-1.0688,-1.0688,-1.0688,-1.0688,-1.0688,-1.0688,-1.0688,-1.0688,-1.0688,-1.0663,-1.051,-1.0368,-1.0315,-1.0315,-0.9057,-0.7709,-0.6298,-0.4948,-0.3537,-0.2071,-0.2008,-0.2008,-0.2008,-0.1947,-0.1902,-0.1902,-0.1902,-0.1887,-0.1887,-0.1887,-0.187,-0.09,-0.0943,-0.1005,-0.106,-0.117,-0.1295,-0.1373,-0.14,-0.1981,-0.4032,-0.5363,-0.6412,-0.7253,-0.76,0.0,0.0,0.0,0.0,0.0,0.0,0.0,0.0,0.0,0.0,0.0,0.0,0.0,0.0,0.0,0.0,0.0,0.0,0.0,0.0,-0.8359,-0.9117,-1.071,-1.1006,-1.205,-1.3844,-1.4504,-1.4045,-1.2622,-1.348,-1.3602,-1.3236,-1.503,-1.596,-1.6385,-1.8532,-1.9272,-1.9062,-1.9307,-1.9039,-1.859,-1.8816,-1.8567,-1.8112,-1.8031,-1.7849,-1.768,-1.7972,-1.8057,-1.8112,-1.8484,-1.8828,-1.8963,-1.8557,-1.7393,-1.5966,-1.4798,-1.3193,-1.1693,-1.0892,-1.0688,-1.0982,-1.1967,-1.1409,-1.0982,-1.1963,-1.1376,-1.0688,-1.0688,-1.0688,-1.0688,-1.0688,-1.0688,-1.0688,-1.0688,-1.0688,-1.0671,-1.0623,-1.0616,-1.0544,-1.0439,-0.9221,-0.8175,-0.7568,-0.6364,-0.4571,-0.2101,-0.1987,-0.2008,-0.2008,-0.1968,-0.1963,-0.1963,-0.1984,-0.198,-0.198,-0.198,-0.1975,-0.0969,-0.0967,-0.1061,-0.1117,-0.1234,-0.1359,-0.1424,-0.2115,-0.3165,-0.4632,-0.5933,-0.6954,-0.7298,-0.7594,0.0,0.0,0.0,0.0,0.0,0.0,0.0,0.0,0.0,0.0,0.0,0.0,0.0,0.0,0.0,0.0,0.0,0.0,0.0,0.0,-0.8635,-0.9572,-1.1175,-1.1776,-1.2968,-1.4696,-1.4961,-1.4677,-1.3931,-1.4652,-1.4795,-1.4517,-1.5885,-1.668,-1.7144,-1.824,-1.868,-1.8692,-1.8686,-1.8448,-1.8092,-1.818,-1.7919,-1.7483,-1.7623,-1.7508,-1.7399,-1.7659,-1.7744,-1.778,-1.7919,-1.8191,-1.8374,-1.8058,-1.7234,-1.6244,-1.5387,-1.3771,-1.2061,-1.0963,-1.0688,-1.0916,-1.1769,-1.131,-1.0949,-1.1802,-1.1277,-1.0688,-1.0688,-1.0688,-1.0688,-1.0688,-1.0688,-1.0688,-1.0688,-1.0688,-1.0688,-1.0688,-1.0688,-1.0683,-1.0592,-0.9855,-0.9059,-0.8357,-0.7597,-0.5893,-0.299,-0.2885,-0.2607,-0.2008,-0.2008,-0.2008,-0.2008,-0.2008,-0.2008,-0.2008,-0.2008,-0.2001,-0.1132,-0.1042,-0.1113,-0.118,-0.1316,-0.1429,-0.1491,-0.3218,-0.4799,-0.4824,-0.6415,-0.7558,-0.6731,-0.7242,0.0,0.0,0.0,0.0,0.0,0.0,0.0,0.0,0.0,0.0,0.0,0.0,0.0,0.0,0.0,0.0,0.0,0.0,0.0,0.0,-0.9199,-1.0145,-1.1194,-1.2444,-1.3606,0.0,-1.4944,-1.5337,-1.5818,-1.5846,-1.6188,-1.6777,-1.7319,-1.789,-1.8375,-1.7849,-1.7914,-1.8272,-1.7802,-1.7578,-1.7505,-1.7285,-1.7002,-1.673,-1.6972,-1.7074,-1.7129,-1.737,-1.749,-1.7514,-1.7514,-1.7677,-1.7816,-1.7581,-1.684,-1.6128,-1.6157,-1.4301,-1.2147,-1.1151,-1.0806,-1.0754,-1.0754,-1.0754,-1.0817,-1.0916,-1.0817,-1.0787,-1.0883,-1.0787,-1.0688,-1.0688,-1.0721,-1.0721,-1.0688,-1.0688,-1.0688,-1.0688,-1.0688,-1.0688,-1.0688,-1.0688,-1.0144,-0.8859,-0.8727,-0.7472,-0.47,-0.4321,-0.3509,-0.2038,-0.201,-0.201,-0.2008,-0.2008,-0.2008,-0.2008,-0.2008,-0.1962,-0.1699,-0.1364,-0.107,-0.1233,-0.1427,-0.1568,-0.1563,-0.3254,-0.4824,-0.4926,-0.6559,-0.7939,-0.7912,0.0,0.0,0.0,0.0,0.0,0.0,0.0,0.0,0.0,0.0,0.0,0.0,0.0,0.0,0.0,0.0,0.0,0.0,0.0,0.0,-0.9321,-0.9702,-1.0342,-1.1194,-1.2245,-1.3324,0.0,-1.4666,-1.4963,-1.528,-1.5489,-1.5887,-1.645,-1.704,-1.7466,-1.7789,-1.7925,-1.7903,-1.7761,-1.7648,-1.7325,-1.6913,-1.7132,-1.7002,-1.6706,-1.6767,-1.6917,-1.7098,-1.7159,-1.7316,-1.7514,-1.7514,-1.755,-1.7581,-1.7526,-1.7344,-1.6966,-1.6098,-1.4996,-1.3811,-1.2672,-1.1738,-1.1082,-1.1082,-1.135,-1.181,-1.2589,-1.1835,-1.1343,-1.2194,-1.1442,-1.0688,-1.0688,-1.092,-1.0982,-1.0721,-1.0688,-1.0688,-1.0688,-1.0688,-1.0688,-1.0688,-1.0688,-1.0534,-1.0117,-1.0192,-0.9398,-0.7493,-0.5353,-0.3514,-0.2039,-0.1998,-0.1999,-0.2008,-0.2008,-0.2008,-0.2008,-0.2008,-0.2004,-0.1919,-0.1481,-0.1148,-0.1337,-0.1503,-0.1594,-0.1595,-0.3252,-0.4824,-0.4899,-0.6556,-0.804,-0.8143,0.0,0.0,0.0,0.0,0.0,0.0,0.0,0.0,0.0,0.0,0.0,0.0,0.0,0.0,0.0,0.0,0.0,0.0,-1.1804,-1.0999,-1.0391,-1.0974,-1.1487,-1.1901,-1.3071,-1.3878,-1.4298,-1.457,-1.4783,-1.4938,-1.5451,-1.5923,-1.631,-1.6761,-1.7033,-1.7186,-1.7362,-1.734,-1.7124,-1.6883,-1.6667,-1.6511,-1.6548,-1.6472,-1.6332,-1.6453,-1.6251,-1.6015,-1.6687,-1.6701,-1.6547,-1.714,-1.7411,-1.7361,-1.6762,-1.6585,-1.6346,-1.5261,-1.4344,-1.3582,-1.3108,-1.2234,-1.1483,-1.1483,-1.2165,-1.2882,-1.3243,-1.2717,-1.2322,-1.2717,-1.1637,-1.0754,-1.092,-1.0953,-1.0886,-1.0721,-1.0688,-1.0688,-1.0688,-1.0688,-1.0688,-1.0688,-1.0688,-1.0654,-1.0605,-1.0677,-1.0021,-0.8474,-0.7055,-0.5279,-0.3089,-0.3045,-0.272,-0.1996,-0.1996,-0.199,-0.2008,-0.2008,-0.2008,-0.2081,-0.161,-0.1265,-0.1434,-0.1526,-0.1613,-0.1691,-0.3304,-0.4779,-0.4876,-0.655,-0.7982,0.0,0.0,0.0,0.0,0.0,0.0,0.0,0.0,0.0,0.0,0.0,0.0,0.0,0.0,0.0,0.0,0.0,0.0,-1.2962,-1.2769,-1.2306,-1.141,-1.2294,-1.2756,-1.2702,-1.4028,-1.4592,-1.437,-1.4641,-1.474,-1.4739,-1.5491,-1.5938,-1.6108,-1.6462,-1.6634,-1.6634,-1.6686,-1.6698,-1.6661,-1.6164,-1.6078,-1.6214,-1.597,-1.5891,-1.5895,-1.5922,-1.5361,-1.4801,-1.5965,-1.5881,-1.5526,-1.6736,-1.7303,-1.7244,-1.5959,-1.5604,-1.535,-1.4297,-1.3548,-1.3141,-1.342,-1.2865,-1.2173,-1.1945,-1.298,-1.3951,-1.3866,-1.3759,-1.3488,-1.2914,-1.1736,-1.0953,-1.1185,-1.1019,-1.0853,-1.0787,-1.0754,-1.0688,-1.0688,-1.0688,-1.0688,-1.0688,-1.0688,-1.0688,-1.0688,-1.0688,-1.0161,-0.8922,-0.8918,-0.7589,-0.4635,-0.4333,-0.3498,-0.2026,-0.2026,-0.2014,-0.2023,-0.2023,-0.2023,-0.2527,-0.1992,-0.1284,-0.1325,-0.141,-0.1623,-0.2028,-0.3422,-0.4741,0.0,-0.6705,0.0,0.0,0.0,0.0,0.0,0.0,0.0,0.0,0.0,0.0,0.0,0.0,0.0,0.0,0.0,0.0,0.0,0.0,0.0,-1.3743,-1.3073,-1.2525,-1.2165,-1.272,-1.295,-1.2702,-1.4028,-1.4688,-1.4646,-1.4923,-1.4918,-1.4727,-1.5305,-1.5458,-1.5304,-1.604,-1.6348,-1.6374,-1.6588,-1.6703,-1.6681,-1.6363,-1.6129,-1.594,-1.5903,-1.5891,-1.5758,-1.4801,-1.4538,-1.463,-1.4828,-1.5084,-1.5526,-1.6736,-1.7303,-1.7244,-1.5959,-1.5604,-1.5308,-1.4057,-1.4123,-1.461,-1.4942,-1.4533,-1.3715,-1.2507,-1.3575,-1.5005,-1.5889,-1.5549,-1.4633,-1.3079,-1.2169,-1.1549,-1.1247,-1.1449,-1.1516,-1.1185,-1.0883,-1.0688,-1.0688,-1.0688,-1.0688,-1.0688,-1.0688,-1.0688,-1.0688,-1.0688,-1.0611,-1.0422,-1.0406,-0.9061,-0.6164,-0.4913,-0.3551,-0.209,-0.209,-0.2088,-0.2084,-0.2084,-0.2084,-0.1794,-0.1741,-0.1767,-0.2065,-0.2551,-0.3092,-0.3544,-0.4765,-0.5834,-0.6046,0.0,0.0,0.0,0.0,0.0,0.0,0.0,0.0,0.0,0.0,0.0,0.0,0.0,0.0,0.0,0.0,0.0,0.0,0.0,-1.2345,-1.2859,-1.2692,-1.277,-1.3192,-1.3576,-1.3709,-1.3613,-1.4472,-1.5005,-1.5142,-1.5283,-1.509,-1.4716,-1.5407,-1.5575,-1.5354,-1.6011,-1.6221,-1.6088,-1.6381,-1.6292,-1.6046,-1.6235,-1.6036,-1.5719,-1.5997,-1.6131,-1.6025,-1.5378,-1.4904,-1.469,-1.5162,-1.5244,-1.5363,-1.6523,-1.7159,-1.7244,-1.5959,-1.5604,-1.5302,-1.4023,-1.413,-1.4602,-1.4751,-1.5087,-1.5183,-1.4567,-1.5308,-1.6392,-1.7426,-1.7071,-1.5906,-1.3722,-1.2816,-1.2169,-1.1611,-1.135,-1.1185,-1.1214,-1.092,-1.0688,-1.0688,-1.0688,-1.0688,-1.0688,-1.0688,-1.0688,-1.0688,-1.0688,-1.0688,-1.0688,-0.9948,-0.854,-0.6433,-0.5798,-0.436,-0.2089,-0.2089,-0.2113,-0.2096,-0.2096,-0.2096,-0.1164,-0.157,-0.227,-0.2544,-0.3272,-0.4053,-0.4554,0.0,-0.6442,0.0,0.0,0.0,0.0,0.0,0.0,0.0,0.0,0.0,0.0,0.0,0.0,0.0,0.0,0.0,0.0,0.0,0.0,0.0,0.0,-1.1002,-1.1958,-1.2177,-1.2725,-1.3661,-1.4097,-1.4297,-1.4297,-1.4895,-1.5291,-1.5499,-1.5498,-1.5249,-1.4826,-1.5478,-1.5693,-1.5538,-1.6001,-1.6083,-1.5927,-1.6183,-1.6072,-1.5746,-1.6132,-1.6009,-1.566,-1.6119,-1.6254,-1.6164,-1.5784,-1.5192,-1.4714,-1.5349,-1.5361,-1.5293,-1.6386,-1.7062,-1.7244,-1.5959,-1.5604,-1.5302,-1.4023,-1.4239,-1.4821,-1.4907,-1.5365,-1.5966,-1.6684,-1.7203,-1.7812,-1.8838,-1.8332,-1.7007,-1.4628,-1.3563,-1.2783,-1.1942,-1.1251,-1.0953,-1.1314,-1.0986,-1.0688,-1.0688,-1.0688,-1.0688,-1.0688,-1.0688,-1.0688,-1.0688,-1.0688,-1.0688,-1.0688,-0.9679,-0.844,-0.7,-0.66,-0.4972,-0.2121,-0.2121,-0.2109,-0.212,-0.212,-0.212,-0.1227,-0.1817,-0.2665,-0.224,-0.2787,-0.3587,-0.4193,0.0,-0.579,0.0,0.0,0.0,0.0,0.0,0.0,0.0,0.0,0.0,0.0,0.0,0.0,0.0,0.0,0.0,0.0,0.0,0.0,0.0,0.0,-1.0734,-1.1671,-1.1726,-1.2165,-1.3119,-1.3893,-1.431,-1.431,-1.5079,-1.5493,-1.5493,-1.5512,-1.5345,-1.5083,-1.5389,-1.5515,-1.551,-1.5797,-1.5908,-1.5919,-1.6195,-1.6294,-1.6268,-1.6288,-1.6137,-1.591,-1.6189,-1.6151,-1.5846,-1.525,-1.4858,-1.462,-1.4639,-1.4999,-1.5552,-1.6442,-1.7062,-1.7244,-1.5959,-1.5604,-1.5302,-1.4023,-1.4811,-1.601,-1.6331,-1.5617,-1.5606,-1.8267,-1.8864,-1.9202,-2.0278,-1.9393,-1.7769,-1.5669,-1.4437,-1.33,-1.2008,-1.1449,-1.1314,-1.1714,-1.1152,-1.0688,-1.0688,-1.0688,-1.0688,-1.0688,-1.0688,-1.0688,-1.0688,-1.0688,-1.0688,-1.0688,-1.0621,-0.9915,-0.8507,-0.71,-0.4996,-0.2186,-0.2186,-0.2185,-0.2183,-0.2183,-0.2183,-0.2068,-0.2671,-0.3353,-0.348,-0.4132,-0.491,-0.5571,-0.6118,-0.6608,0.0,0.0,0.0,0.0,0.0,0.0,0.0,0.0,0.0,0.0,0.0,0.0,0.0,0.0,0.0,0.0,0.0,0.0,0.0,0.0,0.0,-1.0453,-1.0701,-1.1504,-1.3055,-1.3703,-1.4301,-1.4812,-1.5257,-1.5564,-1.5689,-1.5689,-1.5564,-1.5356,-1.5445,-1.5404,-1.525,-1.5335,-1.5566,-1.5835,-1.5937,-1.5908,-1.5826,-1.6163,-1.6038,-1.5725,-1.6337,-1.6388,-1.6125,-1.5917,-1.5772,-1.5683,-1.5692,-1.594,-1.6325,-1.6814,-1.7201,-1.7397,-1.6944,-1.6826,-1.6708,-1.626,-1.6559,-1.6916,-1.668,-1.6487,-1.6528,-1.7187,-1.8934,-2.0462,-2.0856,-2.0342,-1.9042,-1.6479,-1.5377,-1.4147,-1.2107,-1.128,-1.1019,-1.138,-1.0982,-1.0688,-1.0688,-1.0688,-1.0688,-1.0688,-1.0688,-1.0688,-1.0688,-1.0688,-1.0688,-1.0688,-0.9845,-0.9108,-0.8607,-0.627,-0.4567,-0.353,-0.2625,-0.2188,-0.2188,-0.2188,-0.2188,-0.2639,-0.3292,-0.3955,-0.4157,-0.4771,-0.5474,-0.6015,-0.6362,-0.6661,0.0,0.0,0.0,0.0,0.0,0.0,0.0,0.0,0.0,0.0,0.0,0.0,0.0,0.0,0.0,0.0,0.0,0.0,0.0,0.0,0.0,-0.9788,-1.006,-1.1105,-1.3181,-1.3657,-1.4235,-1.4937,-1.5138,-1.5326,-1.5538,-1.5368,-1.5304,-1.5325,-1.5254,-1.5171,-1.5107,-1.5107,-1.5339,-1.5706,-1.5706,-1.5666,-1.5638,-1.5997,-1.5908,-1.5675,-1.633,-1.634,-1.6068,-1.6339,-1.6309,-1.6204,-1.6382,-1.6609,-1.6883,-1.7037,-1.7303,-1.7514,-1.7514,-1.7514,-1.7514,-1.7514,-1.7179,-1.6688,-1.5932,-1.6081,-1.6216,-1.5603,-1.8064,-2.0399,-2.0399,-2.0208,-1.9272,-1.6834,-1.5539,-1.418,-1.2107,-1.1185,-1.082,-1.1148,-1.092,-1.0688,-1.0688,-1.0688,-1.0688,-1.0688,-1.0688,-1.0688,-1.0688,-1.0688,-1.0688,-1.0688,-0.9815,-0.931,-0.931,-0.6973,-0.5503,-0.5001,-0.3127,-0.2188,-0.2188,-0.2188,-0.2188,0.0,0.0,0.0,-0.4099,-0.4511,-0.5049,-0.5315,0.0,-0.5769,0.0,0.0,0.0,0.0,0.0,0.0,0.0,0.0,0.0,0.0,0.0,0.0,0.0,0.0,0.0,0.0,0.0,0.0,0.0,0.0,-0.7859,-0.9839,-0.9983,-1.1071,-1.3404,-1.3749,-1.4118,-1.4569,-1.4652,-1.4796,-1.4963,-1.453,-1.4553,-1.4979,-1.4777,-1.482,-1.507,-1.5077,-1.522,-1.5493,-1.5493,-1.5611,-1.5808,-1.5808,-1.5808,-1.5841,-1.6197,-1.5978,-1.563,-1.643,-1.6362,-1.5979,-1.6526,-1.6891,-1.7095,-1.71,-1.728,-1.7514,-1.7514,-1.7514,-1.7514,-1.7514,-1.6555,-1.5301,-1.4184,-1.4334,-1.4514,-1.3706,-1.6344,-1.8876,-1.8908,-1.894,-1.839,-1.6635,-1.4921,-1.3333,-1.2008,-1.1185,-1.082,-1.1148,-1.0886,-1.0688,-1.0688,-1.0688,-1.0688,-1.0688,-1.0688,-1.0688,-1.0688,-1.0688,-1.0688,-1.0688,-1.0688,-1.0688,-1.0688,-0.931,-0.7902,-0.6464,-0.3629,-0.2256,-0.2188,-0.2188,-0.2188,-0.3278,0.0,0.0,0.0,0.0,0.0,-0.4848,-0.5056,-0.5269,0.0,0.0,0.0,0.0,0.0,0.0,0.0,0.0,0.0,0.0,0.0,0.0,0.0,0.0,0.0,0.0,0.0,0.0,0.0,-0.8876,-0.9602,-1.0858,-1.173,-1.2524,-1.3197,-1.3469,-1.3767,-1.4086,-1.4307,-1.4443,-1.4485,-1.4366,-1.4359,-1.4488,-1.4446,-1.4445,-1.4532,-1.453,-1.4783,-1.522,-1.5428,-1.5611,-1.5808,-1.5808,-1.5808,-1.5868,-1.64,-1.6259,-1.587,-1.6491,-1.6339,-1.5992,-1.6518,-1.6745,-1.6891,-1.7266,-1.7454,-1.7514,-1.7514,-1.7514,-1.7514,-1.7514,-1.6555,-1.5301,-1.4184,-1.3571,-1.2988,-1.1961,-1.3583,-1.5599,-1.6861,-1.7356,-1.7007,-1.5251,-1.4306,-1.3333,-1.2008,-1.1185,-1.0721,-1.0817,-1.0754,-1.0688,-1.0688,-1.0688,-1.0688,-1.0688,-1.0688,-1.0688,-1.0688,-1.0688,-1.0688,-1.0688,-1.0688,-1.0688,-1.0688,-0.931,-0.8407,-0.7971,-0.5101,-0.3195,-0.2188,-0.2188,-0.2188,0.0,-0.3863,-0.4196,-0.4513,0.0,0.0,-0.4741,-0.4794,-0.4898,0.0,0.0,0.0,0.0,0.0,0.0,0.0,0.0,0.0,0.0,0.0,0.0,0.0,0.0,0.0,0.0,0.0,0.0,-0.9059,-0.9341,-0.9947,-1.1025,-1.2162,-1.2811,-1.289,-1.3169,-1.3404,-1.3563,-1.3713,-1.3847,-1.3925,-1.3727,-1.3762,-1.397,-1.3965,-1.4025,-1.4136,-1.4209,-1.4561,-1.5064,-1.5222,-1.5482,-1.5808,-1.5808,-1.5808,-1.5861,-1.6353,-1.6272,-1.5968,-1.6388,-1.6254,-1.596,-1.6384,-1.6525,-1.6604,-1.7026,-1.7159,-1.7159,-1.7159,-1.7266,-1.7229,-1.6827,-1.5752,-1.4525,-1.3367,-1.2399,-1.158,-1.1102,-1.1907,-1.323,-1.4981,-1.5507,-1.5414,-1.4544,-1.3464,-1.252,-1.1876,-1.1185,-1.0688,-1.0688,-1.0688,-1.0688,-1.0688,-1.0688,-1.0688,-1.0688,-1.0688,-1.0688,-1.0688,-1.0688,-1.0688,-1.0688,-1.0688,-1.0688,-1.0688,-0.9881,-0.9175,-0.8607,-0.5704,-0.3564,-0.2188,-0.2188,-0.2188,0.0,0.0,0.0,0.0,-0.4627,0.0,-0.4816,-0.4698,-0.4649,-0.5036,0.0,0.0,0.0,0.0,0.0,0.0,0.0,0.0,0.0,0.0,0.0,0.0,0.0,0.0,0.0,-0.885,-0.9335,-0.9247,-0.9197,-0.971,-1.0911,-1.1805,-1.2385,-1.256,-1.2869,-1.3036,-1.3058,-1.3067,-1.3154,-1.3328,-1.2896,-1.2954,-1.3417,-1.3479,-1.3629,-1.3874,-1.4101,-1.4503,-1.4992,-1.4992,-1.5325,-1.5808,-1.5808,-1.5808,-1.5841,-1.619,-1.6144,-1.5978,-1.6253,-1.6174,-1.5988,-1.625,-1.6305,-1.6359,-1.6616,-1.67,-1.6706,-1.6736,-1.693,-1.6894,-1.5875,-1.4679,-1.3437,-1.231,-1.1163,-1.0453,-1.0887,-1.1043,-1.1582,-1.3161,-1.3525,-1.3689,-1.3988,-1.2458,-1.1314,-1.1681,-1.1152,-1.0688,-1.0688,-1.0688,-1.0688,-1.0688,-1.0688,-1.0688,-1.0688,-1.0688,-1.0688,-1.0688,-1.0688,-1.0688,-1.0688,-1.0688,-1.0688,-1.0688,-1.0688,-1.0014,-0.8607,-0.5869,-0.3798,-0.2423,-0.2423,-0.2357,0.0,0.0,0.0,0.0,0.0,0.0,-0.4634,-0.4712,-0.479,0.0,0.0,0.0,0.0,0.0,0.0,0.0,0.0,0.0,0.0,0.0,0.0,0.0,0.0,0.0,0.0,-0.9271,-0.9865,-1.0049,-1.064,-1.1286,-1.1976,-1.2195,-1.2324,-1.2368,-1.2415,-1.2569,-1.2769,-1.278,-1.2802,-1.2833,-1.2747,-1.2756,-1.2875,-1.3302,-1.3541,-1.3598,-1.4019,-1.4493,-1.4992,-1.4992,-1.5325,-1.5808,-1.5808,-1.5808,-1.5841,-1.619,-1.6273,-1.6255,-1.654,-1.6452,-1.6256,-1.652,-1.6475,-1.6359,-1.6616,-1.67,-1.6748,-1.6954,-1.7207,-1.7149,-1.5919,-1.4798,-1.3704,-1.2457,-1.1298,-1.0541,-1.0795,-1.0723,-1.0768,-1.1219,-1.1773,-1.2103,-1.1872,-1.1475,-1.1218,-1.1314,-1.0953,-1.0688,-1.0688,-1.0688,-1.0688,-1.0688,-1.0688,-1.0688,-1.0688,-1.0688,-1.0688,-1.0688,-1.0688,-1.0688,-1.0688,-1.0688,-1.0688,-1.0688,-1.0688,-1.0014,-0.8607,-0.6833,-0.5267,-0.3899,-0.3899,-0.3295,0.0,0.0,0.0,-0.4733,0.0,0.0,0.0,-0.4845,-0.4882,-0.4813,-0.4884,0.0,0.0,0.0,0.0,0.0,0.0,0.0,0.0,0.0,0.0,0.0,0.0,0.0,0.0,-0.9473,-1.017,-1.0299,-1.0663,-1.1119,-1.1627,-1.168,-1.1805,-1.2034,-1.2214,-1.2292,-1.2292,-1.2424,-1.2506,-1.2506,-1.2506,-1.2578,-1.2711,-1.3119,-1.3299,-1.3333,-1.3796,-1.4238,-1.4627,-1.4884,-1.5236,-1.5601,-1.5748,-1.573,-1.5699,-1.5989,-1.6029,-1.5923,-1.6043,-1.6106,-1.6088,-1.6098,-1.6089,-1.6136,-1.6254,-1.6296,-1.638,-1.6785,-1.655,-1.5911,-1.4919,-1.3784,-1.259,-1.1299,-1.0609,-1.0287,-1.0367,-1.0465,-1.0514,-1.0592,-1.0963,-1.1251,-1.1214,-1.1052,-1.1019,-1.1185,-1.092,-1.0688,-1.0688,-1.0688,-1.0688,-1.0688,-1.0688,-1.0688,-1.0688,-1.0688,-1.0688,-1.0688,-1.0688,-1.0688,-1.0688,-1.0688,-1.0688,-1.0688,-1.0688,-1.0349,-0.9646,-0.8205,-0.6404,-0.43,-0.43,-0.353,0.0,0.0,0.0,0.0,0.0,-0.5072,0.0,0.0,0.0,-0.5018,0.0,0.0,0.0,0.0,0.0,0.0,0.0,0.0,0.0,0.0,0.0,0.0,0.0,0.0,0.0,-0.9331,-1.0148,-1.0352,-1.0232,-1.0373,-1.0916,-1.0998,-1.1222,-1.1648,-1.1974,-1.2063,-1.19,-1.2111,-1.2243,-1.2292,-1.2354,-1.2514,-1.2796,-1.3049,-1.316,-1.317,-1.3568,-1.3869,-1.4165,-1.4658,-1.5017,-1.5309,-1.5617,-1.5635,-1.5519,-1.5682,-1.5635,-1.5503,-1.5495,-1.563,-1.5801,-1.5643,-1.5727,-1.5891,-1.5891,-1.5964,-1.6085,-1.6267,-1.5677,-1.4706,-1.3605,-1.256,-1.148,-1.0213,-0.9975,-1.0074,-1.0105,-1.0267,-1.0422,-1.048,-1.0592,-1.0753,-1.1045,-1.0883,-1.0787,-1.1052,-1.0886,-1.0688,-1.0688,-1.0688,-1.0688,-1.0688,-1.0688,-1.0688,-1.0688,-1.0688,-1.0688,-1.0688,-1.0688,-1.0688,-1.0688,-1.0688,-1.0688,-1.0688,-1.0688,-1.0585,-1.0283,-0.9144,-0.7272,-0.4701,-0.4434,-0.353,0.0,0.0,0.0,0.0,-0.5525,0.0,0.0,0.0,-0.5021,-0.4792,0.0,0.0,0.0,0.0,0.0,0.0,0.0,0.0,0.0,0.0,0.0,0.0,0.0,0.0,0.0,0.0,-0.9624,-1.0587,-0.9997,-0.9919,-1.0683,-1.0749,-1.0888,-1.1166,-1.1461,-1.1695,-1.19,-1.193,-1.2063,-1.2292,-1.2546,-1.2791,-1.3052,-1.3281,-1.3359,-1.3377,-1.343,-1.3604,-1.3874,-1.4177,-1.4481,-1.4832,-1.5334,-1.5516,-1.5475,-1.5282,-1.5328,-1.5496,-1.5503,-1.5519,-1.5586,-1.5789,-1.5891,-1.5891,-1.5891,-1.6229,-1.6392,-1.5316,-1.5257,-1.4968,-1.2547,-1.2023,-1.1812,-1.0547,-1.0258,-1.0311,-1.0421,-1.0232,-1.0147,-1.0439,-1.0507,-1.0561,-1.073,-1.0721,-1.0721,-1.0754,-1.0721,-1.0688,-1.0688,-1.0688,-1.0688,-1.0688,-1.0688,-1.0688,-1.0688,-1.0688,-1.0688,-1.0688,-1.0688,-1.0688,-1.0688,-1.0688,-1.0688,-1.0688,-1.0688,-1.0084,-0.8842,-0.8673,-0.7769,-0.6132,-0.4868,-0.353,0.0,0.0,0.0,0.0,0.0,0.0,-0.5382,0.0,-0.5338,0.0,0.0,0.0,0.0,0.0,0.0,0.0,-0.4624,0.0,0.0,0.0,0.0,0.0,0.0,0.0,0.0,0.0,0.0,0.0,0.0,-0.9552,-1.0196,-1.0376,-1.0593,-1.0858,-1.1285,-1.1484,-1.143,-1.171,-1.2008,-1.2292,-1.2521,-1.2869,-1.3264,-1.3243,-1.3228,-1.3228,-1.3228,-1.3291,-1.3429,-1.3973,-1.4288,-1.4441,-1.4869,-1.5046,-1.5022,-1.4909,-1.4834,-1.4807,-1.4807,-1.4918,-1.5119,-1.5521,-1.5785,-1.5891,-1.5891,-1.6048,-1.6014,-1.4994,-1.4362,-1.3645,-1.2006,-1.1195,-1.0668,-1.0152,-1.0004,-1.0021,-1.0084,-1.0047,-1.0082,-1.0327,-1.0436,-1.0541,-1.0694,-1.0688,-1.0688,-1.0688,-1.0688,-1.0688,-1.0688,-1.0688,-1.0688,-1.0688,-1.0688,-1.0688,-1.0688,-1.0688,-1.0688,-1.0688,-1.0688,-1.0316,-0.951,-0.948,-0.9075,-0.8238,-0.8205,-0.7902,-0.7336,-0.6504,-0.5804,-0.5168,-0.4567,-0.353,-0.5945,0.0,0.0,0.0,0.0,0.0,0.0,0.0,0.0,0.0,0.0,0.0,0.0,0.0,0.0,0.0,0.0,-0.5135,0.0,0.0,0.0,0.0,0.0,0.0,0.0,0.0,0.0,-0.9148,-0.9071,-0.9257,-0.9871,-1.0081,-1.031,-1.0587,-1.105,-1.1244,-1.1186,-1.1519,-1.1918,-1.2372,-1.2515,-1.2868,-1.3392,-1.3167,-1.3089,-1.3094,-1.3009,-1.2988,-1.3046,-1.373,-1.4014,-1.4049,-1.4506,-1.4671,-1.466,-1.4609,-1.4472,-1.4298,-1.4298,-1.4479,-1.4793,-1.5246,-1.5572,-1.5783,-1.5783,-1.5885,-1.5722,-1.4325,-1.3494,-1.2694,-1.133,-1.0393,-0.9792,-0.9792,-0.9792,-0.9792,-0.9792,-0.9879,-1.0015,-1.0243,-1.0397,-1.0493,-1.0654,-1.0683,-1.067,-1.0681,-1.0683,-1.0673,-1.0714,-1.0688,-1.0688,-1.0688,-1.0688,-1.0688,-1.0688,-1.0688,-1.0688,-1.0688,-1.0349,-0.9679,-0.864,-0.8205,-0.7503,-0.6433,-0.64,-0.6199,-0.5834,-0.4801,-0.41,-0.3731,-0.3731,-0.3162,0.0,0.0,0.0,-0.6042,0.0,0.0,0.0,0.0,-0.5562,0.0,0.0,0.0,0.0,0.0,0.0,0.0,0.0,0.0,0.0,0.0,0.0,0.0,0.0,0.0,0.0,0.0,0.0,-0.9428,-0.9002,-0.9065,-0.9865,-0.9913,-1.0039,-1.0298,-1.0587,-1.0937,-1.1391,-1.1422,-1.1815,-1.2585,-1.2538,-1.2822,-1.3385,-1.3118,-1.3039,-1.3094,-1.2833,-1.2705,-1.275,-1.3306,-1.3511,-1.3589,-1.431,-1.4606,-1.4591,-1.4374,-1.4322,-1.4298,-1.4298,-1.4479,-1.4738,-1.5009,-1.5294,-1.5511,-1.5511,-1.5867,-1.5742,-1.3041,-1.2754,-1.2739,-1.0284,-0.9743,-0.9792,-0.9792,-0.9792,-0.9792,-0.9792,-0.9795,-0.9917,-1.0254,-1.0315,-1.0378,-1.0637,-1.0599,-1.0551,-1.0664,-1.0595,-1.0555,-1.0667,-1.0688,-1.0688,-1.0688,-1.0688,-1.0688,-1.0688,-1.0688,-1.0688,-1.0688,-0.941,-0.864,-0.8607,-0.7234,-0.6433,-0.64,-0.64,-0.5733,-0.4367,-0.4335,-0.3598,-0.2256,-0.2256,-0.2256,0.0,0.0,-0.6286,-0.6216,0.0,0.0,0.0,0.0,0.0,0.0,0.0,0.0,0.0,0.0,0.0,0.0,0.0,0.0,0.0,0.0,0.0,0.0,0.0,0.0,0.0,0.0,0.0,-0.8902,-0.8797,-0.8966,0.0,-0.9811,-1.0027,-1.0286,-1.0568,-1.0937,-1.1403,-1.1521,-1.1916,-1.2538,-1.2837,-1.31,-1.3332,-1.3283,-1.3203,-1.3094,-1.2811,-1.2705,-1.2744,-1.3278,-1.3588,-1.3822,-1.4379,-1.4631,-1.4659,-1.4585,-1.4568,-1.4544,-1.437,-1.4479,-1.4708,-1.4823,-1.5028,-1.524,-1.524,-1.5487,-1.5267,-1.2876,-1.2595,-1.2514,-1.0196,-0.9683,-0.9792,-0.9792,-0.9792,-0.9792,-0.9792,-0.9792,-0.9914,-1.0219,-1.0312,-1.0407,-1.0637,-1.0595,-1.0544,-1.0664,-1.0677,-1.0663,-1.0681,-1.0688,-1.0688,-1.0688,-1.0688,-1.0688,-1.0688,-1.0688,-1.0688,-1.0688,-0.9377,-0.8171,-0.7167,-0.5767,-0.4565,-0.3629,-0.3629,-0.3395,-0.2927,-0.2927,-0.2658,-0.2188,-0.2188,-0.2188,-0.63,-0.6337,0.0,-0.6375,-0.6416,0.0,-0.6224,0.0,0.0,0.0,0.0,0.0,0.0,0.0,0.0,0.0,0.0,0.0,0.0,-0.7678,0.0,0.0,0.0,0.0,0.0,0.0,-0.7754,-0.8639,-0.871,-0.896,0.0,0.0,-1.0061,-1.0407,-1.0604,-1.0937,-1.1403,-1.1595,-1.1965,-1.251,-1.2769,-1.2942,-1.3048,-1.3078,-1.2983,-1.281,-1.2732,-1.2705,-1.275,-1.3365,-1.362,-1.3685,-1.445,-1.4655,-1.4532,-1.4667,-1.464,-1.4544,-1.437,-1.4419,-1.4557,-1.466,-1.4829,-1.4968,-1.4968,-1.5215,-1.5088,-1.3159,-1.2757,-1.2578,-1.1183,-1.0323,-0.9913,-1.0365,-1.0122,-0.9792,-0.9792,-0.9832,-0.9947,-1.0232,-1.0352,-1.0432,-1.0644,-1.0636,-1.0605,-1.0707,-1.0673,-1.066,-1.0681,-1.0688,-1.0688,-1.0688,-1.0688,-1.0688,-1.0688,-1.0688,-1.0688,-1.0688,-0.8875,-0.7419,-0.648,-0.4566,-0.3132,-0.2237,-0.2216,-0.221,-0.2187,-0.2199,-0.2188,-0.2188,-0.2188,-0.2188]},{"header":{"parameterUnit":"m.s-1","parameterCategory":1,"la1":30.6,"la2":29.2853,"lo1":-89.7004,"lo2":-87.6739,"dy":0.0162,"dx":0.0183,"nx":112,"ny":82,"refTime":"2023-10-26T18:00:00:Z","depth":0,"parameterNumber":3,"parameterNumberName":"V-component_of_WINDS"},"data":[0.0,0.0,0.0,0.0,0.0,0.0,0.0,0.0,0.0,0.0,0.0,0.0,0.0,0.0,0.0,0.0,0.0,0.0,0.0,0.0,0.0,0.0,0.0,0.0,0.0,0.0,0.0,0.0,0.0,0.0,0.0,0.0,0.0,0.0,0.0,0.0,0.0,0.0,0.0,0.0,0.0,0.0,0.0,0.0,0.0,0.0,0.0,0.0,0.0,0.0,0.0,0.0,0.0,0.0,0.0,0.0,0.0,0.0,0.0,0.0,0.0,0.0,0.0,0.0,0.0,0.0,0.0,0.0,0.0,0.0,0.0,0.0,0.0,0.0,0.0,0.0,0.0,0.0,0.0,0.0,0.0,0.0,0.0,0.0,0.0,0.0,0.0,0.0,0.0,0.0,1.8194,1.9192,2.1744,2.3516,2.3827,2.5317,2.4961,2.1996,0.0,0.0,0.0,0.0,0.0,0.0,0.0,0.0,0.0,0.0,0.0,0.0,0.0,0.0,0.0,0.0,0.0,0.0,0.0,0.0,0.0,0.0,0.0,0.0,0.0,0.0,0.0,0.0,0.0,0.0,0.0,0.0,0.0,0.0,0.0,0.0,0.0,0.0,0.0,0.0,0.0,0.0,0.0,0.0,0.0,0.0,0.0,0.0,0.0,0.0,0.0,0.0,0.0,0.0,0.0,0.0,0.0,0.0,0.0,0.0,0.0,0.0,0.0,0.0,0.0,0.0,0.0,0.0,0.0,0.0,0.0,0.0,0.0,0.0,0.0,0.0,0.0,0.0,0.0,0.0,0.0,0.0,0.0,0.0,0.0,0.0,0.0,0.0,0.0,0.0,0.0,0.0,0.0,0.0,0.0,0.0,0.0,0.0,0.0,0.0,0.0,0.0,0.0,0.0,1.9617,2.178,2.3042,2.3832,2.4127,2.4395,2.3772,2.1927,0.0,0.0,0.0,0.0,0.0,0.0,0.0,0.0,0.0,0.0,0.0,0.0,0.0,0.0,0.0,0.0,0.0,0.0,0.0,0.0,0.0,0.0,0.0,0.0,0.0,0.0,0.0,0.0,0.0,0.0,0.0,0.0,0.0,0.0,0.0,0.0,0.0,0.0,0.0,0.0,0.0,0.0,0.0,0.0,0.0,0.0,0.0,0.0,0.0,0.0,0.0,0.0,0.0,0.0,0.0,0.0,0.0,0.0,0.0,0.0,0.0,0.0,0.0,0.0,0.0,0.0,0.0,0.0,0.0,0.0,0.0,0.0,0.0,0.0,0.0,0.0,0.0,0.0,0.0,0.0,0.0,0.0,0.0,0.0,0.0,0.0,0.0,0.0,0.0,0.0,0.0,0.0,0.0,0.0,0.0,0.0,0.0,0.0,0.0,0.0,0.0,0.0,0.0,1.9473,2.0486,2.2984,2.3578,2.3907,2.4175,2.3804,2.3052,2.1867,2.2492,0.0,0.0,0.0,0.0,0.0,0.0,0.0,0.0,0.0,0.0,0.0,0.0,0.0,0.0,0.0,0.0,0.0,0.0,0.0,0.0,0.0,0.0,0.0,0.0,0.0,0.0,0.0,0.0,0.0,0.0,0.0,0.0,0.0,0.0,0.0,0.0,0.0,0.0,0.0,0.0,0.0,0.0,0.0,0.0,0.0,0.0,0.0,0.0,0.0,0.0,0.0,0.0,0.0,0.0,0.0,0.0,0.0,0.0,0.0,0.0,0.0,0.0,0.0,0.0,0.0,0.0,0.0,0.0,0.0,0.0,0.0,0.0,0.0,0.0,0.0,0.0,0.0,0.0,0.0,0.0,0.0,0.0,0.0,0.0,0.0,0.0,0.0,0.0,0.0,0.0,0.0,0.0,0.0,0.0,0.0,0.0,0.0,0.0,0.0,0.0,0.0,0.0,2.0998,2.1268,2.3642,2.3894,2.391,2.3933,2.3189,2.2377,2.1568,2.1505,0.0,0.0,0.0,0.0,0.0,0.0,0.0,0.0,0.0,0.0,0.0,0.0,0.0,0.0,0.0,0.0,0.0,0.0,0.0,0.0,0.0,0.0,0.0,0.0,0.0,0.0,0.0,0.0,0.0,0.0,0.0,0.0,0.0,0.0,0.0,0.0,0.0,0.0,0.0,0.0,0.0,0.0,0.0,0.0,0.0,0.0,0.0,0.0,0.0,0.0,0.0,0.0,0.0,0.0,0.0,0.0,0.0,0.0,0.0,0.0,0.0,0.0,0.0,0.0,0.0,0.0,0.0,0.0,0.0,0.0,0.0,0.0,0.0,0.0,0.0,0.0,0.0,0.0,0.0,0.0,0.0,0.0,0.0,0.0,0.0,0.0,0.0,0.0,0.0,0.0,0.0,0.0,0.0,0.0,0.0,0.0,0.0,0.0,0.0,0.0,0.0,0.0,2.1722,2.2118,2.3975,2.4177,2.3902,2.3219,2.2389,2.1536,2.0741,2.0627,0.0,0.0,0.0,0.0,0.0,0.0,0.0,0.0,0.0,0.0,0.0,0.0,0.0,0.0,0.0,0.0,0.0,0.0,0.0,0.0,0.0,0.0,0.0,0.0,0.0,0.0,0.0,0.0,0.0,0.0,0.0,0.0,0.0,0.0,0.0,0.0,0.0,0.0,0.0,0.0,0.0,0.0,0.0,0.0,0.0,0.0,0.0,0.0,0.0,0.0,0.0,0.0,0.0,0.0,0.0,0.0,0.0,0.0,0.0,0.0,0.0,0.0,0.0,0.0,0.0,0.0,0.0,0.0,0.0,0.0,0.0,0.0,0.0,0.0,0.0,0.0,0.0,0.0,0.0,0.0,0.0,0.0,0.0,0.0,0.0,0.0,0.0,0.0,0.0,0.0,0.0,0.0,0.0,0.0,0.0,0.0,0.0,0.0,0.0,0.0,0.0,0.0,2.2478,2.2905,0.0,2.3787,2.334,2.3059,2.1787,2.1092,2.1338,0.0,0.0,0.0,0.0,0.0,0.0,0.0,0.0,0.0,0.0,0.0,0.0,0.0,0.0,0.0,0.0,0.0,0.0,0.0,0.0,0.0,0.0,0.0,0.0,0.0,0.0,0.0,0.0,0.0,0.0,0.0,0.0,0.0,0.0,0.0,0.0,0.0,0.0,0.0,0.0,0.0,0.0,0.0,0.0,0.0,0.0,0.0,0.0,0.0,0.0,0.0,0.0,0.0,0.0,0.0,0.0,0.0,0.0,0.0,0.0,0.0,0.0,0.0,0.0,0.0,0.0,0.0,0.0,0.0,0.0,0.0,0.0,0.0,0.0,0.0,0.0,0.0,0.0,0.0,0.0,0.0,0.0,0.0,0.0,0.0,0.0,0.0,0.0,0.0,0.0,0.0,0.0,0.0,0.0,0.0,0.0,0.0,0.0,0.0,0.0,0.0,0.0,2.2895,2.3047,2.3256,0.0,2.3367,2.2828,2.2311,2.0942,2.0486,2.1352,0.0,0.0,0.0,0.0,0.0,0.0,0.0,0.0,0.0,0.0,0.0,0.0,0.0,0.0,0.0,0.0,0.0,0.0,0.0,0.0,0.0,0.0,0.0,0.0,0.0,0.0,0.0,0.0,0.0,0.0,0.0,0.0,0.0,0.0,0.0,0.0,0.0,0.0,0.0,0.0,0.0,0.0,0.0,0.0,0.0,0.0,0.0,0.0,0.0,0.0,0.0,0.0,0.0,0.0,0.0,0.0,0.0,0.0,0.0,0.0,0.0,0.0,0.0,0.0,0.0,0.0,0.0,0.0,0.0,0.0,0.0,0.0,0.0,0.0,0.0,0.0,0.0,0.0,0.0,0.0,0.0,0.0,0.0,0.0,0.0,0.0,0.0,0.0,0.0,0.0,0.0,0.0,0.0,0.0,0.0,0.0,0.0,0.0,0.0,0.0,0.0,0.0,2.3606,2.3391,2.3084,2.3013,2.3052,2.2432,2.0857,1.9843,1.968,0.0,0.0,0.0,0.0,0.0,0.0,0.0,0.0,0.0,0.0,0.0,0.0,0.0,0.0,0.0,0.0,0.0,0.0,0.0,0.0,0.0,0.0,0.0,0.0,0.0,0.0,0.0,0.0,0.0,0.0,0.0,0.0,0.0,0.0,0.0,0.0,0.0,0.0,0.0,0.0,0.0,0.0,0.0,0.0,0.0,0.0,0.0,0.0,0.0,0.0,0.0,0.0,0.0,0.0,0.0,0.0,0.0,0.0,0.0,0.0,0.0,0.0,0.0,0.0,0.0,0.0,0.0,0.0,0.0,0.0,0.0,0.0,0.0,0.0,0.0,0.0,0.0,0.0,0.0,0.0,0.0,0.0,0.0,0.0,0.0,0.0,0.0,0.0,0.0,0.0,0.0,0.0,0.0,0.0,0.0,0.0,0.0,0.0,0.0,0.0,0.0,0.0,0.0,2.393,2.3502,2.3315,2.3855,2.2887,2.1994,2.151,2.0136,1.9907,2.1352,0.0,0.0,0.0,0.0,0.0,0.0,0.0,0.0,0.0,0.0,0.0,0.0,0.0,0.0,0.0,0.0,0.0,0.0,0.0,0.0,0.0,0.0,0.0,0.0,0.0,0.0,0.0,0.0,0.0,0.0,0.0,0.0,0.0,0.0,0.0,0.0,0.0,0.0,0.0,0.0,0.0,0.0,0.0,0.0,0.0,0.0,0.0,0.0,0.0,0.0,0.0,0.0,0.0,0.0,0.0,0.0,0.0,0.0,0.0,0.0,0.0,0.0,0.0,0.0,0.0,0.0,0.0,0.0,0.0,0.0,0.0,0.0,0.0,0.0,0.0,0.0,0.0,0.0,0.0,0.0,0.0,0.0,0.0,0.0,0.0,0.0,0.0,0.0,0.0,0.0,0.0,0.0,0.0,0.0,0.0,0.0,0.0,0.0,0.0,0.0,0.0,0.0,2.409,2.3566,2.3279,2.3722,2.2595,2.1665,2.1313,2.0062,2.0013,2.1684,0.0,0.0,0.0,0.0,0.0,0.0,0.0,0.0,0.0,0.0,0.0,0.0,0.0,0.0,0.0,0.0,0.0,0.0,0.0,0.0,0.0,0.0,0.0,0.0,0.0,0.0,0.0,0.0,0.0,0.0,0.0,0.0,0.0,0.0,0.0,0.0,0.0,0.0,0.0,0.0,0.0,0.0,0.0,0.0,0.0,0.0,0.0,0.0,0.0,0.0,0.0,0.0,0.0,0.0,0.0,0.0,0.0,0.0,0.0,0.0,0.0,0.0,0.0,0.0,0.0,0.0,0.0,0.0,0.0,0.0,0.0,0.0,0.0,0.0,0.0,0.0,0.0,0.0,0.0,0.0,0.0,0.0,0.0,0.0,0.0,0.0,0.0,0.0,0.0,0.0,0.0,0.0,0.0,0.0,0.0,0.0,0.0,0.0,0.0,0.0,0.0,0.0,2.4089,2.3492,2.3013,2.3107,2.239,2.1557,2.0694,1.995,2.0178,2.1702,0.0,0.0,0.0,0.0,0.0,0.0,0.0,0.0,0.0,0.0,0.0,0.0,0.0,0.0,0.0,0.0,0.0,0.0,0.0,0.0,0.0,0.0,0.0,0.0,0.0,0.0,0.0,0.0,0.0,0.0,0.0,0.0,0.0,0.0,0.0,0.0,0.0,0.0,0.0,0.0,0.0,0.0,0.0,0.0,0.0,0.0,0.0,0.0,0.0,0.0,0.0,0.0,0.0,0.0,0.0,0.0,0.0,0.0,0.0,0.0,2.1375,0.0,0.0,0.0,0.0,0.0,0.0,0.0,0.0,0.0,0.0,0.0,0.0,0.0,0.0,0.0,0.0,0.0,0.0,0.0,0.0,0.0,0.0,0.0,0.0,0.0,0.0,0.0,0.0,0.0,0.0,0.0,0.0,0.0,0.0,0.0,0.0,0.0,0.0,0.0,0.0,0.0,2.4016,2.2959,2.2567,2.3809,2.3222,2.2418,2.1588,2.1372,2.1431,2.178,2.22,0.0,0.0,0.0,0.0,0.0,0.0,0.0,0.0,0.0,0.0,0.0,0.0,0.0,0.0,0.0,0.0,0.0,0.0,0.0,0.0,0.0,0.0,0.0,0.0,0.0,0.0,0.0,0.0,0.0,0.0,0.0,0.0,0.0,0.0,0.0,0.0,0.0,0.0,0.0,0.0,0.0,0.0,0.0,0.0,0.0,0.0,0.0,0.0,0.0,0.0,0.0,0.0,0.0,0.0,0.0,0.0,0.0,0.0,0.0,0.0,2.2254,0.0,0.0,0.0,0.0,0.0,0.0,0.0,0.0,0.0,0.0,0.0,0.0,0.0,0.0,0.0,0.0,0.0,0.0,0.0,0.0,0.0,0.0,0.0,0.0,0.0,0.0,0.0,0.0,0.0,0.0,0.0,0.0,0.0,0.0,0.0,0.0,0.0,0.0,0.0,0.0,2.4034,2.3129,2.2844,2.4071,2.3488,2.2827,2.2409,2.2014,2.1959,2.2354,2.2634,0.0,0.0,0.0,0.0,0.0,0.0,0.0,0.0,0.0,0.0,0.0,0.0,0.0,0.0,0.0,0.0,0.0,0.0,0.0,0.0,0.0,0.0,0.0,0.0,0.0,0.0,0.0,0.0,0.0,0.0,0.0,0.0,0.0,0.0,0.0,0.0,0.0,0.0,0.0,0.0,0.0,0.0,0.0,0.0,0.0,0.0,0.0,0.0,0.0,0.0,0.0,0.0,0.0,0.0,2.5919,2.6699,2.6699,2.7182,2.7845,2.5323,2.4283,2.4295,0.0,0.0,0.0,0.0,0.0,0.0,0.0,0.0,0.0,0.0,0.0,0.0,0.0,0.0,0.0,0.0,0.0,0.0,0.0,0.0,0.0,0.0,0.0,0.0,0.0,2.5841,2.6044,0.0,0.0,0.0,0.0,0.0,0.0,0.0,0.0,0.0,0.0,0.0,0.0,2.4103,2.3502,2.3304,2.4103,2.3616,2.3153,2.3006,2.2524,2.2432,2.2969,2.3084,2.3176,0.0,0.0,0.0,0.0,0.0,0.0,0.0,0.0,0.0,0.0,0.0,0.0,0.0,0.0,0.0,0.0,0.0,0.0,0.0,0.0,0.0,0.0,0.0,0.0,0.0,0.0,0.0,0.0,0.0,0.0,0.0,0.0,2.2715,2.1968,0.0,0.0,0.0,0.0,0.0,0.0,0.0,0.0,0.0,0.0,0.0,0.0,0.0,0.0,2.6982,2.7897,2.8632,2.9229,2.9091,2.9219,2.957,2.957,2.9972,3.0634,2.9606,0.0,2.6446,2.4839,0.0,0.0,0.0,0.0,0.0,0.0,0.0,0.0,0.0,0.0,0.0,0.0,0.0,0.0,0.0,0.0,0.0,0.0,0.0,0.0,0.0,0.0,2.8465,2.7748,2.8174,2.85,0.0,2.5934,2.4421,2.3831,0.0,0.0,0.0,0.0,0.0,0.0,0.0,0.0,2.4103,2.3492,2.3309,2.4116,2.4116,2.3768,2.3061,2.3547,2.3639,2.3043,2.3447,2.3681,2.3649,2.3242,0.0,0.0,0.0,0.0,0.0,0.0,0.0,0.0,0.0,0.0,0.0,0.0,0.0,0.0,0.0,0.0,0.0,0.0,0.0,0.0,0.0,0.0,0.0,0.0,0.0,0.0,0.0,0.0,0.0,2.3907,2.3996,2.2757,2.4109,2.4897,0.0,0.0,0.0,0.0,0.0,0.0,0.0,0.0,0.0,2.6656,2.8409,2.9424,2.9542,3.0344,3.1107,3.1879,3.1729,3.2253,3.3363,3.3363,3.4046,3.5206,3.4393,3.3722,3.2863,2.802,2.5408,2.4416,0.0,0.0,0.0,0.0,0.0,2.6975,2.7187,0.0,0.0,0.0,0.0,0.0,0.0,0.0,0.0,0.0,0.0,0.0,0.0,0.0,0.0,3.0721,3.0993,3.0987,3.017,2.8904,2.7425,0.0,2.5053,2.4836,2.4874,0.0,0.0,0.0,0.0,2.4031,2.4827,2.462,2.4532,2.4881,2.4893,2.4543,2.3744,2.4006,2.4043,2.3694,2.3883,2.3871,2.35,2.3393,2.3273,0.0,0.0,0.0,0.0,0.0,0.0,0.0,0.0,0.0,0.0,0.0,0.0,0.0,0.0,0.0,0.0,0.0,0.0,0.0,0.0,0.0,0.0,0.0,0.0,0.0,0.0,0.0,0.0,2.466,2.5005,2.3235,2.4835,2.5639,0.0,0.0,0.0,0.0,0.0,0.0,2.7683,2.9175,3.0186,3.056,3.1973,3.27,3.2647,3.3318,3.4011,3.4706,3.4794,3.5421,3.6524,3.6744,3.7534,3.8661,3.8028,3.79,3.7686,3.1587,2.8252,2.6983,2.6453,2.6602,2.7146,2.7167,2.8556,3.0446,3.054,3.0739,3.1006,3.1349,0.0,2.9444,2.8077,0.0,0.0,0.0,0.0,3.0673,3.1063,0.0,3.2899,3.348,3.3758,3.3652,3.276,3.2107,3.0796,0.0,2.6775,2.6234,2.5824,0.0,0.0,0.0,0.0,2.4515,2.5129,2.5367,2.5509,2.5509,2.5625,2.5461,2.485,2.4635,2.4507,2.4507,2.4305,2.4001,2.3549,2.3544,2.359,2.3698,0.0,0.0,0.0,0.0,0.0,0.0,0.0,0.0,0.0,0.0,0.0,0.0,0.0,0.0,0.0,0.0,0.0,0.0,0.0,0.0,0.0,0.0,0.0,0.0,0.0,0.0,0.0,0.0,0.0,2.2542,2.5143,0.0,0.0,0.0,0.0,2.7079,2.94,3.0481,2.9703,3.1299,3.2626,3.3468,3.4302,3.55,3.7063,3.7816,3.8195,3.826,3.8948,3.8894,3.8211,3.9032,3.9464,3.9539,3.9483,3.9032,3.8056,3.5078,3.3756,3.3431,3.1654,3.1206,3.1544,3.1302,3.2061,3.3061,3.2126,3.2438,3.3351,3.4143,3.4333,3.4113,3.3264,3.3043,0.0,0.0,3.3122,3.4169,3.3447,3.4557,3.5819,3.5613,3.6238,3.658,3.5454,3.518,3.3944,0.0,2.9041,2.8519,2.698,0.0,2.6131,2.4529,2.4294,2.4312,2.4367,2.5036,2.5509,2.5509,2.6111,2.6515,2.6479,2.5773,2.5343,2.5343,2.4617,2.418,2.4161,2.3676,2.3685,2.4257,2.3822,0.0,0.0,0.0,0.0,0.0,0.0,0.0,0.0,0.0,0.0,0.0,0.0,0.0,0.0,0.0,0.0,0.0,0.0,0.0,0.0,0.0,0.0,0.0,0.0,0.0,0.0,0.0,0.0,2.7507,3.0407,0.0,2.9588,3.0685,3.1233,3.0591,3.1936,3.2863,3.3067,3.4787,3.6117,3.6889,3.787,3.8626,3.9127,3.9396,3.9528,3.9542,4.0278,4.0469,4.0204,4.1608,4.2232,4.227,4.278,4.2824,4.2427,4.0938,3.7947,3.4288,3.4131,3.4412,3.4927,3.4957,3.6248,3.786,3.7115,3.7437,3.8041,3.7284,3.643,3.5732,3.5965,3.5737,3.5438,3.5662,3.6487,3.7366,3.7588,3.854,3.9543,3.9984,3.9507,3.8848,3.8448,3.7513,3.6304,3.484,3.2582,3.0625,2.9664,2.9108,2.8401,2.724,2.6987,2.6745,2.6222,2.6275,2.6335,2.6335,2.6527,2.666,2.6657,2.5896,2.5398,2.5398,2.4635,2.4113,2.3942,2.3886,2.4006,2.4366,2.462,2.476,0.0,0.0,0.0,0.0,0.0,0.0,0.0,0.0,0.0,0.0,0.0,0.0,0.0,0.0,0.0,0.0,0.0,0.0,0.0,0.0,0.0,0.0,0.0,0.0,0.0,0.0,3.1439,3.1207,3.3672,3.4696,3.2888,3.3742,3.414,3.3451,3.4719,3.5743,3.6291,3.7727,3.8763,3.9223,3.9957,4.0273,4.0162,4.0458,4.0458,4.0177,4.1258,4.1625,4.1397,4.3072,4.3833,4.3852,4.4404,4.4632,4.4594,4.4042,4.1578,3.8088,3.7947,3.8176,3.8577,3.8707,3.997,4.16,4.1245,4.1296,4.1329,4.0252,3.9287,3.8636,3.917,3.9004,3.8776,3.9304,3.9815,4.0305,4.0845,4.1437,4.2011,4.2467,4.1743,4.096,4.0853,3.9976,3.9047,3.8535,3.5908,3.3368,3.2119,3.1507,3.0778,2.9559,2.9074,2.8714,2.839,2.8167,2.7833,2.7273,2.7659,2.7711,2.7148,2.6578,2.624,2.6201,2.5209,2.4521,2.4343,2.4382,2.4576,2.4936,2.5687,2.6109,2.6142,0.0,0.0,0.0,0.0,0.0,0.0,0.0,0.0,0.0,0.0,0.0,0.0,0.0,0.0,0.0,0.0,0.0,0.0,0.0,0.0,0.0,0.0,0.0,2.9236,3.209,3.3918,3.3189,3.4585,3.4966,3.3301,3.4636,3.5589,3.5559,3.7782,3.9147,3.9147,3.9938,4.0384,4.0351,4.0423,4.045,4.0398,4.1221,4.124,4.0409,4.2111,4.248,4.1703,4.3386,4.4134,4.412,4.4134,4.4134,4.4134,4.4134,4.4638,4.5204,4.3259,4.2519,4.2538,4.25,4.3112,4.397,4.4097,4.3636,4.2973,4.2973,4.2973,4.2978,4.2978,4.2963,4.2948,4.2948,4.2948,4.2948,4.2948,4.3062,4.3126,4.2866,4.2878,4.288,4.262,4.2545,4.2086,4.0632,3.8835,3.6743,3.4268,3.3815,3.3172,3.1313,3.0344,0.0,3.0551,3.0566,2.9887,2.8259,2.9462,2.9745,2.8119,2.7966,2.7908,2.7816,2.6316,2.5434,2.5434,2.518,2.5355,2.6015,2.694,2.7799,2.8602,0.0,0.0,0.0,0.0,0.0,0.0,0.0,0.0,0.0,0.0,0.0,0.0,0.0,0.0,0.0,0.0,0.0,0.0,0.0,0.0,0.0,0.0,3.4591,3.3956,3.5161,3.6513,3.7568,3.9212,3.9761,3.852,3.9431,3.9784,3.9014,3.9584,3.9964,3.9964,4.0338,4.0783,4.1304,4.1574,4.1927,4.2405,4.2648,4.2614,4.2344,4.3316,4.3365,4.2673,4.4348,4.4806,4.4275,4.4855,4.5113,4.5113,4.5113,4.5266,4.5407,4.4805,4.4956,4.5439,4.4803,4.4751,4.4983,4.5026,4.4892,4.47,4.47,4.4774,4.4861,4.4861,4.4518,4.4125,4.4125,4.4125,4.4125,4.4125,4.4595,4.5034,4.4967,4.4527,4.4106,4.4033,4.352,4.2761,4.1721,4.1095,3.9919,3.7338,3.6365,3.5565,3.4402,3.344,0.0,3.1122,3.0866,3.0558,2.9949,3.0244,3.0293,2.9813,2.9207,2.8589,2.7978,2.6932,2.6341,2.6341,2.6232,2.6382,2.685,2.7074,2.7649,0.0,0.0,0.0,0.0,0.0,0.0,0.0,0.0,0.0,0.0,0.0,0.0,0.0,0.0,0.0,0.0,0.0,0.0,0.0,0.0,0.0,0.0,3.6252,3.8387,3.9364,3.9262,3.9583,4.0978,4.1728,4.2038,4.1782,4.1924,4.1916,4.1667,4.1631,4.1476,4.1126,4.1571,4.1873,4.1918,4.2456,4.2937,4.332,4.3339,4.3282,4.3229,4.3982,4.4135,4.3763,4.5092,4.548,0.0,4.5552,4.5747,4.5747,4.5747,4.5957,0.0,0.0,0.0,0.0,0.0,4.553,4.5579,4.5666,4.5686,4.5686,4.5686,4.5748,4.5804,4.5783,4.5499,4.5185,4.5141,4.5127,4.5104,4.5104,4.5455,4.5803,4.5803,4.5436,4.5104,4.5104,4.4697,4.4098,4.3247,0.0,0.0,4.0063,3.8704,3.7671,3.7061,3.5845,3.4687,3.3818,3.2919,3.2064,3.1278,3.1106,3.0607,2.9542,2.9312,0.0,0.0,0.0,2.7245,2.7245,2.7203,0.0,0.0,0.0,2.8889,3.0112,0.0,0.0,0.0,3.0266,2.9834,0.0,0.0,0.0,0.0,0.0,0.0,0.0,0.0,0.0,0.0,0.0,0.0,0.0,0.0,0.0,0.0,3.9124,4.1466,4.4762,4.378,4.2905,4.3483,4.2856,4.2664,4.3439,4.2818,4.2683,4.3439,4.3491,4.3161,4.2385,0.0,0.0,0.0,0.0,4.3693,4.3786,4.3786,4.3761,4.3702,4.4489,4.4916,4.5027,4.5702,4.6097,4.6255,4.6253,4.6251,4.6251,4.6251,4.6601,4.7072,4.615,4.5704,4.5588,4.5693,4.5781,0.0,0.0,0.0,0.0,4.611,4.611,4.6082,4.6038,4.6015,4.6008,4.5936,4.5863,4.5828,4.5828,4.5815,4.5817,4.5817,4.581,4.5803,4.5803,4.5803,4.5552,4.4752,4.3978,4.3166,4.2299,4.063,3.9326,3.9073,3.7659,3.6749,3.7164,3.5698,3.4035,3.2481,0.0,0.0,2.8796,2.9206,2.9254,2.8487,2.8418,2.8405,2.8418,2.8418,2.9084,3.0512,3.0241,3.0788,3.2208,3.1913,3.2153,3.283,3.1001,3.0646,0.0,0.0,0.0,0.0,0.0,0.0,0.0,0.0,0.0,0.0,0.0,0.0,0.0,0.0,0.0,4.0535,4.3174,4.5485,4.7568,4.7002,4.5925,4.4688,4.3812,4.3371,4.3482,4.3403,4.337,4.3481,4.35,4.3428,4.3263,4.3463,0.0,4.4356,4.4546,4.4933,4.5593,4.5593,4.5599,4.5587,0.0,0.0,4.6867,4.6323,4.6493,4.7232,4.7161,4.7155,4.7155,4.7155,4.6851,4.6447,4.6825,4.6569,4.5985,4.6006,4.6022,4.6054,4.6086,4.611,4.611,4.611,4.611,4.6107,4.6079,4.6072,0.0,4.6057,4.6014,4.5965,4.5965,4.5925,4.587,4.587,4.5848,4.5803,4.5803,4.5803,4.5552,4.4752,4.4462,4.4075,4.3205,4.1055,3.9444,3.9344,3.8472,3.7551,3.6763,3.6323,3.5623,3.438,3.4136,3.3559,3.2291,3.1647,3.1246,3.1073,3.1004,3.0959,3.09,3.09,3.1048,3.1362,3.1303,3.1599,3.229,3.2222,3.258,3.3339,3.2523,3.2278,0.0,0.0,0.0,0.0,0.0,0.0,0.0,0.0,0.0,0.0,0.0,3.288,0.0,0.0,3.9767,4.2373,4.4635,4.6364,4.7261,4.7046,4.6643,4.6192,4.5065,4.4467,4.4867,4.4545,4.4469,4.4867,4.4891,4.4717,4.4265,4.47,4.4956,4.4956,4.5345,4.5733,4.6156,4.6156,4.6129,4.6109,4.6589,4.703,4.7451,4.7456,4.7714,4.8142,4.8125,4.8105,4.8105,4.8105,4.7363,4.6327,4.7148,4.6947,4.6195,4.6152,4.6179,4.6207,4.6209,4.6209,4.6209,4.6209,4.6209,4.6208,4.6202,4.6176,4.6148,4.6114,4.6085,4.6048,4.6,4.5989,4.5951,4.5947,4.5908,4.5858,4.5858,4.5811,4.5687,4.5278,4.4887,4.4462,4.4036,4.2531,4.1232,4.0768,3.9586,3.8539,3.7969,3.7433,3.6689,3.5614,3.5025,3.4124,3.2724,3.1735,3.1366,3.1775,3.176,3.1731,3.1708,3.1708,3.1894,3.2283,3.2266,3.2551,3.3205,3.3172,3.3366,3.3738,3.3483,3.3364,0.0,0.0,0.0,0.0,0.0,0.0,0.0,3.0189,3.1681,3.201,3.4402,3.6696,3.7503,3.9682,4.1922,4.3723,4.5343,4.6451,4.6672,4.6555,4.6729,4.7436,4.6172,4.5525,4.6228,4.5659,4.5541,4.6247,4.6277,4.5961,4.5289,4.5892,4.5952,4.5272,4.5879,4.6229,4.6229,4.6229,4.6286,4.6396,4.7165,4.7695,4.8027,4.8549,4.8865,4.9019,4.9019,4.8927,4.8818,4.8974,4.8057,4.6632,4.7509,4.7408,4.6757,4.6543,4.6618,4.6797,4.6791,4.6789,4.6789,4.6789,4.6789,4.6792,4.6789,4.6639,4.6465,4.6419,4.6268,4.6128,4.6075,4.6034,4.6025,4.6017,4.5977,4.5911,4.5913,4.5886,4.5848,4.5848,4.5289,4.4853,4.4853,4.4124,4.3263,4.2376,4.0861,3.9767,3.9613,3.8681,3.761,3.6444,3.5612,3.4377,3.248,3.1781,3.1643,3.2123,3.231,3.2403,3.2403,3.2403,3.2715,3.3362,3.3317,3.3605,3.425,3.4203,3.4172,3.4172,3.4172,3.4136,2.6539,2.7187,2.8221,2.9785,3.025,3.1275,0.0,3.5433,3.5549,3.7035,3.833,3.9419,4.0228,4.1963,4.3835,4.5526,4.6667,4.7625,4.8398,4.7832,4.7402,4.7569,4.673,4.6185,4.6283,4.6204,4.6204,4.6283,4.6199,4.6131,4.6157,4.6128,4.6139,4.6149,4.6249,4.6289,4.6289,4.6289,4.6661,4.7423,4.7538,4.8376,4.9779,4.9048,4.9094,4.9774,4.9774,4.9418,4.8857,4.9637,4.8973,4.7548,4.8349,4.8606,4.8434,4.7711,4.7905,4.8527,4.8526,4.8525,4.8525,4.8525,4.8525,4.8526,4.8529,4.8023,4.7439,4.7422,4.6869,4.6289,4.6269,4.6182,4.6088,4.6084,4.6045,4.5996,4.5988,4.5986,4.598,4.598,4.5861,4.5744,4.5744,4.5031,4.4152,4.3282,4.2328,4.1435,4.072,3.9857,3.863,3.692,3.6537,3.561,3.3663,3.407,3.4131,3.344,3.4131,3.4543,3.4543,3.4543,3.4599,3.4689,3.4684,3.4717,3.4812,3.4807,3.4802,3.4802,3.4802,3.4606,2.7952,2.9186,3.0636,3.238,3.3538,3.4863,3.7184,3.8202,3.8874,3.9626,4.1669,4.3274,4.3094,4.4163,4.5285,0.0,4.6463,4.6885,4.7284,4.6581,4.5876,4.5391,4.5001,4.518,4.6199,4.6294,4.6266,4.619,4.6123,4.6116,4.618,4.6132,4.6157,4.6299,4.6301,4.6301,4.6301,4.6301,4.6749,4.7607,4.8075,4.8881,4.9999,5.0105,5.0296,5.0532,5.0532,5.0109,4.9447,5.0353,4.9746,4.8323,4.9216,4.9559,4.9441,4.8602,4.8505,4.8798,4.8798,4.8798,4.8798,4.8798,4.8779,4.8731,4.8731,4.8515,4.8242,4.8242,4.8005,4.7742,4.775,4.7715,4.7672,4.7675,4.7615,4.7428,4.6923,4.6772,4.6605,4.6107,4.598,4.5964,4.5964,4.565,4.5283,4.4937,4.3669,4.2454,4.1606,4.118,4.0256,3.8455,3.7648,3.6904,3.6107,3.6252,3.6231,3.5842,3.6155,3.6345,3.6345,3.6345,3.6378,3.6416,3.5912,3.5661,3.5661,3.5144,3.4893,3.4893,3.4903,3.4865,2.8937,3.0921,3.2988,3.4689,3.6748,3.8593,3.9522,4.0835,4.196,4.2255,4.4484,4.6042,4.4931,4.5492,4.6043,4.5803,4.5823,4.5976,4.6265,4.5541,4.4775,4.4136,4.3841,4.4195,4.545,4.5796,4.5993,4.6084,4.6068,4.6035,4.6049,4.6269,4.6357,4.6243,4.6509,4.6534,4.6301,4.6301,4.6724,4.7549,4.8388,4.9157,4.9902,5.0748,5.1061,5.0972,5.0972,5.0547,4.9892,5.0824,5.0355,4.9189,5.0091,5.0456,5.0378,4.9755,4.952,4.952,4.952,4.9493,4.9462,4.9462,4.9398,4.9329,4.9329,4.9173,4.8998,4.8998,4.8885,4.8765,4.8766,4.8796,4.8804,4.8808,4.8765,4.854,4.7925,4.7754,4.746,4.6573,4.6399,4.6314,4.6061,4.601,4.5999,4.5999,4.4879,4.3724,4.2853,4.2118,4.1174,3.9846,3.8596,3.7832,3.7832,3.7729,3.7632,3.7593,3.7589,3.7589,3.7589,3.7589,3.763,3.7668,3.7052,3.6722,3.6722,3.6084,3.5658,3.5425,3.542,3.5371,2.9165,3.1906,3.4898,3.6522,3.9494,4.2264,4.3144,4.3996,4.4812,4.5669,4.6645,4.6835,4.5101,4.5566,4.5917,4.5068,4.498,4.5327,4.6188,4.5559,4.4992,4.4952,4.4211,4.3724,0.0,4.4543,4.5326,4.6047,4.5985,4.5907,4.5907,4.6706,4.6831,4.6121,4.7057,4.7158,4.6301,4.6301,4.6668,4.7427,4.83,4.9095,4.9837,5.0572,5.0906,5.0902,5.0902,5.0516,4.9952,5.0831,5.0756,5.0141,5.1022,5.1355,5.1355,5.1336,5.1316,5.1316,5.1316,5.1244,5.1127,5.1127,5.1045,5.093,5.093,5.0386,4.9762,4.9762,4.926,4.8707,4.8709,4.8743,4.8806,4.8804,4.8806,4.8788,4.8766,4.8766,4.8507,4.761,4.7393,4.7088,4.623,4.6035,4.5999,4.5999,4.5958,4.5606,4.4729,4.2401,4.0813,4.0752,3.9209,3.818,3.818,3.8112,3.8073,3.8073,3.807,3.807,3.807,3.807,3.8073,3.8073,3.8054,3.8035,3.8035,3.8015,3.7569,3.6739,3.6745,3.6289,3.3578,3.6244,3.8659,4.147,4.3481,4.5024,4.5886,4.5856,4.555,4.5323,4.4608,4.3669,4.2545,4.2597,4.3096,4.3964,4.4604,4.5508,4.6964,4.5909,4.4562,4.341,4.3021,0.0,0.0,0.0,0.0,4.5105,4.5609,4.5889,4.5841,4.6626,4.6993,4.6837,4.724,4.7338,4.7026,4.7124,4.7561,4.8345,4.9627,5.0611,5.1307,5.0932,5.1056,5.1495,5.0382,5.0109,5.0422,5.0328,5.043,5.0739,5.1212,5.1355,5.126,5.126,5.1209,5.1146,5.1243,5.1189,5.1063,5.1063,5.1004,5.093,5.093,5.0736,5.0523,5.0523,5.0386,5.024,5.0347,5.0382,5.0416,5.0501,5.0529,5.0378,4.9784,4.9668,4.9391,4.8524,4.8336,4.8046,4.7189,4.7012,4.677,4.6155,4.5536,4.504,4.4746,4.3435,4.2525,4.2525,4.1951,4.1355,4.0775,4.0707,4.044,3.9853,3.9834,3.9834,3.9834,3.9834,3.9869,3.9956,3.9358,3.9048,3.9089,3.8464,3.8019,3.7729,3.7678,3.7517,3.6872,3.9809,4.2261,4.5078,4.6645,4.7509,4.7443,4.6753,4.5732,4.4297,4.3122,4.1798,4.0038,3.9734,4.0292,4.2031,4.2547,4.3743,4.6728,4.5635,4.4348,4.386,4.3235,4.2864,0.0,0.0,0.0,4.5055,4.5589,4.5985,4.6171,4.7005,4.7499,4.7582,4.7726,4.78,4.7795,4.7561,4.8157,4.9527,5.0461,5.1455,5.2478,5.1876,5.1702,5.1846,5.0755,5.0476,5.0745,5.0381,5.0748,5.1553,5.1723,5.1926,5.2113,5.2076,5.1778,5.1377,5.1193,5.1234,5.1357,5.105,5.1106,5.1202,5.0917,5.084,5.0898,5.1183,5.1111,5.1053,5.1422,5.157,5.1544,5.1372,5.1562,5.1573,5.0748,5.0562,5.0311,4.9433,4.9267,4.8997,4.8119,4.7966,4.7651,4.6732,4.6086,4.5576,4.5215,4.4395,4.3853,4.3853,4.3545,4.3109,4.2548,4.2513,4.228,4.171,4.1375,4.1199,4.1164,4.0919,4.0815,4.0905,4.0337,4.0049,4.0057,3.9466,3.899,3.8655,3.8601,3.8421,3.9159,4.2582,4.5566,4.7163,4.8827,4.957,4.7773,4.6658,4.5286,4.2725,4.2137,4.1002,3.7527,3.7107,3.7832,3.9471,3.9286,4.068,4.5657,4.4934,4.4485,0.0,0.0,0.0,0.0,0.0,0.0,4.5976,0.0,4.6235,4.6869,4.7839,4.8365,4.8365,4.8499,4.8563,4.8568,4.7745,4.8516,5.0863,5.0806,5.1659,5.3274,5.3217,5.2774,5.2019,5.1942,5.1538,5.0952,5.1037,5.1611,5.2479,5.2533,5.3057,5.3766,5.3632,5.2974,5.2066,5.1363,5.1532,5.1969,5.1242,5.1453,5.1813,5.1053,5.0822,5.0996,5.1755,5.1512,5.1188,5.19,5.2227,5.2166,5.1425,5.1912,5.236,5.1672,5.1529,5.1266,5.0407,5.0156,4.9838,4.9018,4.8823,4.851,4.7689,4.7571,4.7195,4.6146,4.5287,4.4763,4.4776,4.4036,4.3527,4.3486,4.3531,4.3523,4.3406,4.2626,4.2132,4.2064,4.1357,4.0951,4.0962,4.0993,4.0974,4.0914,4.0905,4.0443,3.9578,3.9502,3.9058,4.4215,4.6618,4.7886,4.8418,4.8882,4.8586,4.619,4.4453,4.2636,4.0032,3.8505,3.6574,3.3065,3.5097,3.7653,3.8738,4.1424,0.0,4.6904,4.6884,0.0,4.5421,4.4933,4.4679,4.4679,4.4783,0.0,0.0,4.7248,4.6884,4.6907,4.8309,4.9126,4.9117,4.9247,4.9325,4.9322,4.92,5.0015,5.176,5.1743,5.2592,5.4145,5.351,5.3433,5.376,5.2467,5.1804,5.1654,5.176,5.1972,5.2271,5.3025,5.3392,5.349,5.3468,5.3226,5.2897,5.2699,5.2333,5.2021,5.2469,5.2723,5.2832,5.2626,5.2568,5.2606,5.2813,5.2757,5.2526,5.2195,5.2608,5.2929,5.2182,5.2694,5.3308,5.322,5.319,5.2962,5.2181,5.099,5.0039,4.98,4.9233,4.8725,4.8491,4.8471,4.7914,4.6357,4.5901,4.5748,4.5749,4.5533,4.5154,4.4501,4.446,4.4166,4.3447,4.3187,4.3059,4.3047,4.223,4.1846,4.1936,4.1273,4.0945,4.0963,4.0868,4.0692,4.0468,4.0455,4.0301,4.6921,4.89,4.9778,4.9509,4.9147,4.7988,4.4618,4.2511,4.019,3.6465,3.4648,3.289,3.0193,3.2006,3.458,3.6562,3.9546,4.2746,4.6006,4.6455,4.6377,4.6162,4.5791,0.0,4.6592,4.6542,4.7335,0.0,4.8418,4.7935,4.8543,4.9457,4.9976,4.9976,4.9669,4.9504,4.9504,5.0318,5.1357,5.2596,5.2962,5.3798,5.4973,5.4519,5.436,5.4397,0.0,5.2813,5.2482,5.2621,5.289,5.3293,5.384,5.4223,5.4482,5.4422,5.4145,5.3818,5.4164,5.376,5.3063,5.3159,5.3453,5.3703,5.3313,5.3197,5.3274,5.3664,5.351,5.3189,5.3166,5.3522,5.3702,5.2964,5.3443,5.4008,5.3775,5.3762,5.3584,5.2831,5.1914,5.1124,5.074,5.0252,4.9803,4.9432,4.9373,4.873,4.6985,4.6719,4.6526,4.6146,4.6121,4.5952,4.5455,4.5434,4.5229,4.4655,4.4248,4.3992,4.3962,4.2793,4.2176,4.2251,4.1415,4.0986,4.099,4.0881,4.0828,4.0797,4.0797,4.0784,4.8368,5.0148,5.105,5.0016,4.9201,4.7451,4.2923,4.0541,3.7867,3.2813,3.1172,3.0137,2.844,2.9319,3.129,3.4374,3.6618,3.9624,4.4347,4.5108,4.5733,4.7255,4.6866,4.7079,4.8614,4.8766,4.9472,5.1195,4.9852,4.9459,5.064,5.0803,5.0861,5.0861,5.0014,4.9567,4.9567,5.112,5.2332,5.3217,5.4087,5.4888,5.5596,5.5662,5.5286,5.4559,0.0,0.0,5.3386,5.3608,5.407,5.4686,5.4723,5.5206,5.5854,5.5738,5.5266,5.4761,5.5458,5.5247,5.453,5.378,5.4049,5.4511,5.376,5.353,5.3683,5.4453,5.4107,5.3683,5.4337,5.4587,5.4461,5.3721,5.4201,5.4654,5.404,5.3938,5.3775,5.3134,5.2855,5.2447,5.168,5.1443,5.1112,5.0369,5.0252,4.9659,4.8042,4.7596,4.7094,4.623,4.6183,4.6206,4.6202,4.6269,4.6269,4.6207,4.5448,4.4959,4.4897,4.3387,4.2568,4.2577,4.1718,4.1229,4.1162,4.1009,4.0876,4.0802,4.0802,4.0812,5.0324,5.1076,5.0767,4.8589,4.7928,4.6318,4.0562,3.7906,3.5407,3.0958,2.9905,2.928,2.7543,3.0841,3.4256,3.5563,3.8999,4.2337,4.4679,4.5617,4.6183,4.6495,4.7021,4.7706,4.8545,4.9221,0.0,0.0,0.0,5.1871,5.077,5.1337,5.1697,5.1697,5.0894,5.0476,5.0476,5.1428,5.2332,5.3217,5.4087,5.4888,5.5596,5.5662,5.5599,5.541,0.0,0.0,5.4318,5.4962,5.4949,5.4586,5.5189,5.5546,5.5742,5.57,5.5612,5.5516,5.5651,5.5612,5.5478,5.5324,5.5381,5.5458,5.5299,5.5261,5.5304,5.5458,5.5381,5.5145,5.4626,5.4991,5.5291,5.4499,5.4933,5.5528,5.5509,5.5164,5.4848,5.4707,5.3609,5.2613,5.2349,5.1713,5.1183,5.1027,5.1007,5.068,4.9775,4.844,4.722,4.6367,4.6287,4.6283,4.6286,4.6287,4.6269,4.6195,4.6045,4.5955,4.5947,4.4978,4.4469,4.4508,4.2915,4.2083,4.2077,4.134,4.0953,4.0881,4.0881,4.0854,5.0735,5.1337,5.0803,4.8783,4.7243,4.4679,3.8629,3.5545,3.2753,2.846,2.7562,2.7445,2.7075,3.0119,3.2944,3.3785,3.6822,4.0125,4.3174,4.3597,4.4446,4.671,4.7353,4.8229,4.979,5.0647,5.2094,0.0,0.0,5.353,5.2727,5.2178,5.1717,5.1298,5.0899,5.0707,5.0707,5.1952,5.2563,5.2544,5.4299,5.508,5.4981,5.5437,5.5607,5.5551,5.5579,0.0,5.5053,5.5408,5.5354,5.5116,5.5454,5.5635,5.5708,5.5708,5.5708,5.5708,5.5708,5.5708,5.5708,5.5708,5.5708,5.5708,5.5708,5.5708,5.5708,5.5708,5.5708,5.5612,5.5228,5.542,5.5593,5.5228,5.542,5.5747,5.5872,5.5707,5.5404,5.5058,5.4435,5.378,5.3276,5.2895,5.2509,5.2041,5.1982,5.1524,5.0258,4.9401,4.8569,4.7686,4.7601,4.7422,4.7019,4.6983,4.6774,4.6289,4.6223,4.6196,4.6196,4.5355,4.4911,4.4956,4.3641,4.2989,4.2985,4.2529,4.2052,4.1583,4.1539,4.1274,5.0313,5.1081,5.0891,4.9073,4.6792,4.3371,3.7144,3.3846,3.088,2.6585,2.5707,2.6078,2.7328,2.9338,3.1184,3.2386,3.4643,3.7595,4.1501,4.1653,4.2916,4.7098,4.7918,0.0,5.1226,5.23,0.0,0.0,0.0,0.0,5.4511,5.2958,5.178,5.118,5.1066,5.0943,5.0776,5.2507,5.3028,5.237,5.4624,5.533,5.4674,5.5319,5.5551,5.5382,5.5419,0.0,0.0,5.5345,5.5419,5.5485,5.5556,5.5613,5.5687,5.5684,5.5708,5.5678,5.5629,5.5646,5.5698,5.5629,5.5646,5.5708,5.5708,5.5708,5.5708,5.5708,5.5708,5.5708,5.5708,5.5708,5.5708,5.5708,5.5708,5.5737,5.5836,5.588,5.5736,5.522,5.5083,5.483,5.4151,5.3977,5.3688,5.3038,5.2787,5.2166,5.0826,5.0495,5.0125,4.9423,4.8876,4.8293,4.7655,4.7423,4.7037,4.6339,4.625,4.6228,4.6228,4.5564,4.5192,4.5208,4.4349,4.3899,4.3895,4.3652,4.3176,4.2499,4.2447,4.2075,4.9199,5.0195,5.0799,4.8338,4.6358,4.3215,3.6384,3.3418,3.088,2.6585,2.5707,2.6449,2.8909,3.0157,3.1601,3.4059,3.5884,3.798,4.0808,4.1782,4.355,4.7173,4.8933,0.0,5.2049,5.3692,0.0,0.0,0.0,0.0,0.0,5.3317,5.2625,5.261,5.2238,5.1709,5.0983,5.2946,5.3886,5.381,5.5086,5.5638,5.5481,5.5638,5.5454,5.504,0.0,0.0,0.0,5.4849,5.4997,5.5093,5.5382,5.5551,5.5613,5.5687,5.5708,5.5676,5.5419,5.551,5.5651,5.5413,5.5497,5.5708,5.5708,5.5708,5.5708,5.5708,5.5708,5.5708,5.5708,5.5708,5.5708,5.5708,5.5708,5.5695,5.5716,5.5808,5.5877,5.5812,5.5325,5.4883,5.4817,5.4149,5.3646,5.3681,5.3031,5.249,5.2464,5.1765,5.1258,5.118,4.909,4.7685,4.7608,4.6874,4.6391,4.6313,4.6281,4.6284,4.6284,4.6206,4.6167,4.6168,4.5311,4.4862,4.4863,4.4062,4.3607,4.3469,4.3465,4.3384,4.8183,5.0076,5.0895,4.8844,4.585,4.2044,3.6696,3.2949,2.965,2.6371,2.5707,2.6507,2.9124,2.9435,3.0107,3.2613,3.2707,3.3734,3.7345,3.8137,4.0234,4.537,4.7845,0.0,0.0,0.0,0.0,0.0,0.0,0.0,0.0,5.3849,5.2737,5.1743,5.2037,5.1815,5.1014,5.279,5.3548,5.3232,5.475,5.529,5.4954,5.5256,5.5307,5.5117,0.0,0.0,0.0,5.467,5.4761,5.4847,5.5184,5.5351,5.5437,5.5629,5.6035,5.6467,5.6353,5.6264,5.6159,5.6053,5.5631,5.5224,5.5582,5.593,5.6227,5.644,5.6857,5.7261,5.7261,5.6882,5.6343,5.5824,5.5708,5.5708,5.5708,5.5738,5.5774,5.5774,5.5638,5.5506,5.5494,5.5355,5.5079,5.4645,5.3914,5.3228,5.276,5.1941,5.1394,5.1394,5.0496,4.9676,4.9148,4.8781,4.8159,4.7144,4.7538,4.7345,4.6349,4.6797,4.6839,4.6316,4.5967,4.5775,4.5779,4.5429,4.498,4.4449,4.4399,4.4092,4.5698,4.8354,4.9913,4.8433,4.4816,4.056,3.6539,3.2304,2.8557,2.6195,2.5707,2.6429,2.8772,2.9123,2.9596,3.1308,3.1202,3.2042,3.5307,3.6159,3.8434,4.3812,0.0,4.911,0.0,0.0,0.0,0.0,0.0,0.0,0.0,5.4248,5.3097,5.168,5.2303,5.2286,5.1473,5.2968,5.355,5.3187,5.4513,5.4944,5.4594,5.4936,5.5014,5.4854,0.0,0.0,0.0,5.4391,5.4455,5.4533,5.5014,5.5229,5.5307,5.5856,5.6434,5.6944,5.702,5.6805,5.6439,5.6262,5.5659,5.5095,5.5632,5.6116,5.6595,5.7062,5.7724,5.8294,5.8277,5.781,5.72,5.6585,5.6234,5.6066,5.6088,5.5882,5.5708,5.5708,5.5769,5.5844,5.5879,5.6084,5.6062,5.5522,5.4833,5.4166,5.3542,5.2702,5.2078,5.1804,5.1785,5.1336,5.0202,4.985,4.9207,4.8036,4.8486,4.8154,4.6749,4.7509,4.7435,4.6329,4.6545,4.6551,4.6304,4.6306,4.5975,4.5371,4.5347,4.4989,4.1168,4.4349,4.7431,4.6554,4.304,3.8921,3.5506,3.1387,2.7814,2.6058,2.5707,2.6234,2.799,2.9669,3.0781,3.0819,3.2857,3.4789,3.5764,3.7208,3.9486,0.0,0.0,4.8183,5.0662,0.0,0.0,0.0,0.0,0.0,0.0,5.4487,5.3921,5.3103,5.3543,5.3395,5.2596,5.3721,5.4296,5.4286,5.4646,5.4806,5.4806,5.4799,5.4546,0.0,0.0,0.0,0.0,5.387,5.4006,5.4096,5.4895,5.5169,5.5256,5.6458,5.6855,5.6849,5.71,5.6857,5.6302,5.5701,5.5499,5.5568,5.5895,5.6233,5.6664,5.7465,5.7997,5.8283,5.822,5.8189,5.8189,5.8189,5.7511,5.6913,5.6967,5.6305,5.5708,5.5708,5.5708,5.5738,5.588,5.6016,5.6143,5.6277,5.5712,5.528,5.526,5.4517,5.3639,5.2781,5.2684,5.1981,5.0241,4.9305,4.8818,4.8798,4.8798,4.8447,4.7626,4.8369,4.7998,4.634,4.7147,4.7151,4.6293,4.6304,4.6307,4.6287,4.6289,4.6289,3.7125,3.9488,4.1245,4.0366,3.777,3.4822,3.2558,2.963,2.7093,2.5941,2.5707,2.6234,2.7971,2.8244,2.8942,3.1259,3.1737,3.2538,3.4533,3.6689,0.0,4.2908,4.8128,5.1939,0.0,0.0,0.0,0.0,0.0,0.0,0.0,5.4829,5.4166,5.313,5.3552,5.3144,5.1788,5.2669,5.3258,5.347,5.3586,5.4044,5.4791,5.4568,0.0,0.0,0.0,0.0,0.0,5.3813,5.387,5.3935,5.4654,5.5244,5.5702,5.5681,5.6728,5.799,5.6732,5.6768,5.724,5.6602,5.6238,5.606,5.6164,5.6989,5.8134,5.9447,5.9909,5.9865,5.9186,5.9014,5.8868,5.8269,5.7961,5.7632,5.7059,5.6753,5.6401,5.5824,5.5708,5.571,5.5758,5.5876,5.5975,5.6027,5.5451,5.5066,5.5151,5.4396,5.3558,5.2778,5.2703,5.2235,5.1081,5.0731,5.0321,4.9734,5.0243,4.993,4.8486,4.9246,4.8895,4.7216,4.7453,4.7165,4.6293,4.6297,4.6302,4.6307,4.6308,4.6308,3.3241,3.5545,3.7009,3.6443,3.4353,3.207,3.0665,2.8362,2.6352,2.5805,2.5707,2.6039,2.7112,2.7679,2.867,3.0756,3.1098,3.1963,3.4473,0.0,0.0,4.4542,0.0,0.0,0.0,0.0,0.0,0.0,0.0,0.0,0.0,0.0,5.4655,5.3951,5.4092,5.354,5.2211,5.3016,5.3329,5.3103,5.3414,5.3708,5.397,5.4072,0.0,0.0,0.0,0.0,0.0,5.3803,5.3803,5.3851,5.4397,5.4901,5.5333,5.5381,5.6575,5.8008,5.7003,5.6976,5.7351,5.7127,5.688,5.6803,5.7435,5.8029,5.881,6.0373,6.0806,6.0648,6.002,5.9842,5.9708,5.9141,5.8789,5.843,5.794,5.7641,5.7297,5.6775,5.642,5.6189,5.6189,5.6035,5.5911,5.5911,5.5586,5.5381,5.5479,5.5056,5.4457,5.3682,5.3649,5.3301,5.2381,5.1755,5.118,5.0613,5.1101,5.077,4.9344,5.0125,4.9793,4.8095,4.8387,4.8117,4.7245,4.7248,4.7255,4.7281,4.7284,4.7109,0.0,3.2207,3.4062,3.4062,3.2226,3.0235,2.9494,2.7445,0.0,2.5707,2.5707,2.5765,2.5941,2.7913,2.9592,2.9827,3.1104,3.2942,3.5435,3.7436,0.0,0.0,5.0466,0.0,0.0,0.0,0.0,0.0,0.0,0.0,0.0,0.0,5.5212,5.5148,5.4895,5.4324,5.342,5.4204,5.4053,5.295,5.3768,5.3609,5.2642,5.346,0.0,0.0,0.0,0.0,0.0,5.3803,5.3803,5.3832,5.4159,5.4293,5.4427,5.5411,5.6325,5.7115,5.7472,5.7183,5.6734,5.7257,5.7316,5.7519,5.9163,5.9149,5.8878,6.0373,6.0806,6.0777,6.0642,6.0604,6.0584,6.0519,5.988,5.93,5.9381,5.8816,5.8283,5.8302,5.7646,5.7093,5.7093,5.6522,5.6044,5.5986,5.6091,5.6149,5.6081,5.6189,5.5978,5.5165,5.5196,5.4877,5.3866,5.2375,5.149,5.1487,5.1431,5.1042,5.0221,5.0964,5.0614,4.8935,4.9637,4.9617,4.8798,4.8807,4.8833,4.8898,4.8903,4.8475,2.6683,0.0,2.7815,2.7815,2.7347,2.6859,0.0,2.6136,2.5707,2.5707,2.5707,2.6312,2.8304,2.8635,2.9455,3.2089,3.3237,3.4492,3.6412,0.0,0.0,4.7832,0.0,0.0,0.0,0.0,0.0,0.0,0.0,0.0,0.0,0.0,5.435,5.3648,5.4185,5.3849,5.2521,5.271,5.2315,5.1352,5.2207,5.2655,5.2779,5.369,0.0,0.0,0.0,0.0,5.3734,5.3774,5.3803,5.3832,5.4159,5.4701,5.5207,5.4709,5.5451,5.6525,5.5155,5.5363,5.6273,5.6506,5.6481,5.6641,5.8005,5.8851,5.9551,6.0527,6.0806,6.0788,6.071,6.0642,6.0584,6.0519,6.0346,6.0021,5.9453,5.9228,5.8955,5.8404,5.8127,5.7992,5.7992,5.7844,5.751,5.6841,5.6771,5.6589,5.6015,5.5971,5.5728,5.5015,5.4975,5.463,5.3721,5.2875,5.2355,5.2242,5.1703,5.1316,5.1101,5.1297,5.0886,4.9812,4.9344,4.8993,4.8798,4.8846,4.885,4.8813,4.8882,4.8787,2.5707,2.5981,2.6293,2.6293,2.6293,2.6293,2.6293,2.5981,2.5707,2.5707,2.5707,2.6253,2.807,2.8343,2.9415,3.283,3.3954,0.0,0.0,0.0,4.7639,4.962,0.0,0.0,0.0,0.0,0.0,0.0,0.0,0.0,0.0,0.0,5.4061,5.3138,5.356,5.3407,5.2589,5.2951,5.2642,5.1635,5.248,5.285,5.2822,5.3706,5.3889,0.0,0.0,0.0,5.3608,5.3648,5.3697,5.3774,5.3954,5.4325,5.4706,5.4157,5.4764,5.5725,5.4657,5.5087,5.6039,5.5748,5.6095,5.6772,5.7632,5.8691,5.9734,6.039,6.0565,6.0578,6.0679,6.0655,6.0584,6.0519,6.0479,6.0345,5.9984,5.992,5.9841,5.9513,5.9127,5.8858,5.8858,5.8544,5.8146,5.7671,5.7267,5.6867,5.6459,5.6109,5.5751,5.5393,5.541,5.5226,5.4706,5.3713,5.3118,5.3106,5.2399,5.2,5.2,5.1609,5.118,5.071,5.0223,4.9989,4.9989,5.0033,5.0035,4.9996,5.0031,4.982,2.6019,2.682,2.7445,2.6938,2.6996,2.7152,2.7036,2.6527,2.6097,2.6097,2.6097,2.6448,2.7557,2.8379,2.9998,3.3401,0.0,0.0,4.2906,4.587,4.8485,5.1197,0.0,0.0,0.0,0.0,0.0,0.0,0.0,0.0,0.0,0.0,0.0,5.3124,5.296,5.2856,5.2801,5.3535,5.3488,5.2641,5.3339,5.3401,5.296,5.3713,5.3861,0.0,0.0,0.0,5.3461,5.3499,5.3568,5.3666,5.3666,5.3716,5.3784,5.3784,5.4221,5.4825,5.4805,5.522,5.5631,5.5084,5.5844,5.7072,5.7581,5.8557,5.9593,6.006,6.0286,6.0429,6.0667,6.0673,6.0597,6.0532,6.0465,6.0451,6.0571,6.0597,6.0642,6.0777,6.0204,5.9704,5.9704,5.9127,5.8646,5.8511,5.7857,5.7286,5.7036,5.644,5.6022,5.5886,5.5967,5.5994,5.588,5.4695,5.4004,5.4134,5.3225,5.2677,5.2703,5.1863,5.1394,5.1394,5.1394,5.1394,5.1394,5.1394,5.1394,5.1394,5.1391,5.1007,2.7502,2.9025,2.9513,2.6624,2.7015,2.7913,2.7172,2.7464,2.7893,2.7893,2.7893,2.8589,3.0822,3.139,3.2596,3.5903,0.0,4.2044,0.0,0.0,0.0,0.0,0.0,0.0,0.0,0.0,0.0,0.0,0.0,0.0,0.0,0.0,5.249,5.3075,5.2335,5.19,5.1894,5.2097,5.2374,5.2767,5.2944,5.3193,5.3494,5.4086,5.4086,0.0,0.0,5.343,5.3349,5.344,5.3509,5.3529,5.3529,5.3608,5.3715,5.3715,5.3819,5.3979,5.3929,5.3983,5.4148,5.4722,5.5412,5.6192,5.7095,5.8127,5.9122,5.9585,6.0199,6.0734,6.0763,6.0728,6.068,6.0604,6.0532,6.0505,6.0584,6.0597,6.0642,6.0777,6.0691,6.0589,6.0589,6.0498,6.0165,5.9435,5.9204,5.8588,5.717,5.6895,5.655,5.5814,5.5748,5.5753,5.5722,5.5613,5.5599,5.5747,5.3725,5.2578,5.2702,5.1863,5.1394,5.1394,5.1394,5.1394,5.1394,5.1394,5.1394,5.1394,5.1407,5.1335,2.6683,2.8146,2.9064,2.7502,2.9103,3.0703,2.9357,2.9357,2.9644,2.9604,2.9637,3.0121,3.1661,3.274,3.4911,3.9589,0.0,4.4801,0.0,0.0,0.0,0.0,0.0,0.0,0.0,0.0,0.0,0.0,0.0,0.0,0.0,0.0,5.182,5.175,5.134,5.1289,5.1697,5.1338,5.1502,5.2211,5.2706,5.3193,5.3682,5.4397,5.4382,5.3749,0.0,5.3504,5.3261,5.3314,5.3357,5.339,5.339,5.3528,5.3695,5.3735,5.3765,5.3784,5.3647,5.3646,5.374,5.3963,5.4869,5.5926,5.6356,5.7608,5.897,5.9375,5.9992,6.0565,6.0746,6.0759,6.0673,6.0617,6.0578,6.0565,6.0591,6.0636,6.0673,6.0788,6.0806,6.0806,6.0806,6.0806,6.0666,6.0262,5.98,5.9223,5.8454,5.7973,5.7376,5.6497,5.6401,5.6209,5.5747,5.5354,5.5251,5.5539,5.4596,5.3831,5.3424,5.2566,5.2098,5.2098,5.1648,5.1394,5.1394,5.1394,5.1394,5.1394,5.1405,5.1391,2.6195,2.7561,2.8888,2.8888,3.0859,3.2596,3.1874,3.1718,3.1868,3.2423,3.2394,3.2444,3.2992,3.4623,0.0,4.2679,4.5058,0.0,0.0,0.0,0.0,0.0,0.0,0.0,0.0,0.0,0.0,0.0,0.0,0.0,0.0,0.0,5.1302,5.0642,5.0608,5.0678,5.0858,5.0694,5.1081,5.2009,5.2486,5.3111,5.3861,5.4429,5.4474,5.4065,5.3878,5.3643,5.3318,5.323,5.323,5.3285,5.3285,5.3408,5.3626,5.3697,5.3736,5.3716,5.3541,5.3568,5.3682,5.3842,5.4799,5.5937,5.6267,5.7534,5.8912,5.9204,5.9755,6.0342,6.0696,6.0752,6.0717,6.0642,6.0629,6.0629,6.0629,6.0654,6.071,6.0794,6.0806,6.0806,6.0806,6.0806,6.0806,6.0806,6.0223,5.9723,5.9531,5.8954,5.8165,5.7118,5.7003,5.6651,5.5766,5.5185,5.5001,5.53,5.5319,5.5006,5.4322,5.3464,5.2996,5.2996,5.2156,5.1707,5.1707,5.1492,5.1394,5.1394,5.1403,5.1407,2.7678,2.9337,3.0625,3.0625,3.0801,3.1582,3.3886,3.4413,3.5115,3.7534,3.7289,3.6649,3.6637,3.8525,4.1018,4.3925,4.6389,0.0,0.0,0.0,0.0,0.0,0.0,0.0,0.0,0.0,0.0,0.0,0.0,0.0,0.0,0.0,0.0,5.0683,5.0628,4.9869,4.838,4.9909,5.1435,5.2897,5.2203,5.2724,5.425,5.3944,5.4196,5.4867,5.4117,5.3777,5.373,5.3349,5.3196,5.3206,5.3206,5.3261,5.3349,5.3471,5.3529,5.3529,5.3509,5.3509,5.3749,5.5233,5.5749,5.608,5.7571,5.8352,5.8753,5.8882,5.9504,6.0222,6.0684,6.08,6.0783,6.0703,6.0685,6.0685,6.0685,6.0691,6.071,6.0794,6.0806,6.0806,6.0806,6.0806,6.0806,6.0806,6.0748,6.0416,5.9608,5.9454,5.8781,5.7176,5.7003,5.6651,5.5766,5.5876,5.6003,5.6032,5.5564,5.526,5.5202,5.4361,5.3912,5.3912,5.3054,5.2606,5.2606,5.1785,5.1394,5.1394,5.1395,5.1401,2.6507,2.8323,3.0041,3.0041,3.123,3.2967,3.5036,3.6345,3.7532,3.8992,3.9412,3.9624,3.999,4.0737,4.2163,4.4765,4.6395,0.0,0.0,0.0,0.0,0.0,0.0,0.0,0.0,0.0,0.0,0.0,0.0,0.0,0.0,0.0,0.0,4.988,4.9875,4.9215,4.7857,4.9036,4.9843,5.0278,5.1178,5.2316,5.3623,5.3796,5.4319,5.5021,5.4484,5.4066,5.3768,5.3369,5.3196,5.3196,5.3251,5.3277,5.3328,5.344,5.3549,5.3608,5.3529,5.3571,5.3853,5.4833,5.5523,5.6198,5.726,5.7961,5.8476,5.8909,5.9331,5.98,6.0356,6.0641,6.0788,6.0729,6.0722,6.0697,6.0448,6.0591,6.071,6.0527,6.0654,6.0806,6.0806,6.0806,6.0806,6.0806,6.0806,6.0691,6.0339,6.03,5.9858,5.869,5.8107,5.7453,5.6574,5.6748,5.6677,5.6136,5.6106,5.6118,5.6118,5.5279,5.481,5.481,5.3951,5.3502,5.3502,5.3171,5.3014,5.3014,5.3014,5.3016,2.5707,2.7406,2.926,2.9534,3.1719,3.4412,3.6675,3.8121,3.9498,4.1344,4.1717,4.1823,4.2238,4.2263,0.0,0.0,0.0,0.0,0.0,0.0,0.0,0.0,0.0,0.0,0.0,0.0,0.0,0.0,0.0,0.0,0.0,0.0,0.0,0.0,4.899,4.8317,4.6926,4.8307,4.874,4.8212,4.998,5.1427,5.2545,5.2926,5.3619,5.4545,5.4138,5.3752,5.3405,5.3259,5.3196,5.3196,5.3243,5.3277,5.33,5.34,5.3519,5.3636,5.3578,5.3638,5.3884,5.4542,5.5209,5.585,5.6578,5.7294,5.7902,5.8107,5.8586,5.9158,5.9611,6.0258,6.0794,6.0734,6.0771,6.0728,6.0455,6.061,6.0734,6.0488,6.0641,6.0806,6.0806,6.0806,6.0806,6.0806,6.0806,6.0806,6.0806,6.0806,6.0473,5.9588,5.8781,5.8069,5.7459,5.7622,5.7518,5.6968,5.6916,5.6821,5.6605,5.602,5.5708,5.5708,5.4849,5.44,5.44,5.4127,5.401,5.401,5.401,5.3854,2.5707,2.6976,2.8518,2.9397,3.2188,3.5603,3.9039,3.9819,4.1017,4.5235,4.4557,4.3199,4.3215,4.3165,0.0,0.0,0.0,0.0,0.0,0.0,0.0,0.0,0.0,0.0,0.0,0.0,0.0,0.0,0.0,0.0,0.0,0.0,0.0,0.0,4.8082,4.7165,4.522,4.7706,4.8405,4.7308,4.8704,4.9992,5.1108,5.1101,5.1931,5.3369,5.2961,5.2729,5.2622,5.3029,5.3196,5.3196,5.3196,5.3251,5.3289,5.3289,5.339,5.3519,5.3656,5.3704,5.3833,5.463,5.4907,5.5035,5.5699,5.6462,5.6945,5.6284,5.7155,5.8307,5.8456,5.9639,6.0781,6.0806,6.0806,6.0806,6.08,6.08,6.0806,6.08,6.08,6.0806,6.0806,6.0806,6.0806,6.0806,6.0806,6.0806,6.0806,6.0806,6.0473,5.9608,5.88,5.8313,5.8313,5.8423,5.8557,5.8686,5.8012,5.7313,5.6642,5.6605,5.6605,5.6605,5.5747,5.5319,5.5319,5.4459,5.4029,5.4029,5.4029,5.3561,2.6606,2.7445,2.8791,3.0841,3.3495,3.65,3.9937,4.0718,4.1711,4.5231,4.4482,4.3554,4.4689,4.4373,0.0,0.0,0.0,0.0,0.0,0.0,0.0,0.0,0.0,0.0,0.0,0.0,0.0,0.0,0.0,0.0,0.0,0.0,0.0,0.0,4.7255,4.6497,4.4933,4.6288,4.6592,4.5907,4.689,4.8678,5.1101,5.0861,5.1435,5.2598,5.2094,5.2204,5.2768,5.3068,5.322,5.3274,5.3227,5.3303,5.342,5.332,5.3449,5.3646,5.3694,5.3734,5.3913,5.4701,5.4961,5.5128,5.5952,5.627,5.6368,5.6277,5.6668,5.733,5.8267,5.9052,5.9805,6.0611,6.0806,6.0734,6.0507,6.0635,6.0734,6.0488,6.0641,6.0806,6.0806,6.0806,6.0806,6.0806,6.0806,6.0806,6.0806,6.0806,6.071,6.0441,6.0204,5.98,5.9204,5.9267,5.8869,5.7729,5.8109,5.8082,5.7461,5.6899,5.6605,5.6605,5.6352,5.6216,5.6216,5.5941,5.5824,5.5824,5.5824,5.5688,2.6897,2.8128,2.9903,3.2481,3.5349,3.8316,4.1421,4.2584,4.3557,4.5507,4.4686,4.4064,4.5433,4.4929,0.0,0.0,0.0,0.0,0.0,0.0,0.0,0.0,0.0,0.0,0.0,0.0,0.0,0.0,0.0,0.0,0.0,0.0,0.0,0.0,4.645,4.5768,4.4819,4.5533,4.5695,4.5313,4.6131,4.7634,4.9706,4.9864,5.0453,5.1367,5.0961,5.124,5.1992,5.1867,5.2208,5.2784,5.2496,5.2642,5.3013,5.2611,5.2598,5.2826,5.3151,5.3291,5.345,5.4249,5.4509,5.462,5.515,5.5472,5.5618,5.5372,5.5716,5.6419,5.7549,5.8198,5.8954,6.0439,6.0806,6.0746,6.0546,6.0654,6.074,6.054,6.066,6.0806,6.0806,6.0806,6.0806,6.0806,6.0806,6.0806,6.0806,6.0806,6.0806,6.0806,6.0806,6.0589,6.0069,6.0096,5.9727,5.8764,5.8946,5.8846,5.8263,5.7447,5.6874,5.6605,5.6605,5.6605,5.6605,5.6605,5.6605,5.6605,5.6605,5.641,2.6949,2.8926,3.1386,3.4316,3.7692,4.0912,4.3373,4.4963,4.5902,4.5899,4.5112,4.4717,4.5718,4.5086,0.0,0.0,0.0,0.0,0.0,0.0,0.0,0.0,0.0,0.0,0.0,0.0,0.0,0.0,0.0,0.0,0.0,0.0,0.0,0.0,4.5724,4.5063,4.4794,4.5254,4.5387,0.0,4.5992,4.6768,4.7535,4.841,4.9182,4.9871,4.9768,5.0084,5.0657,5.0057,5.0677,5.1959,5.1337,5.16,5.2222,5.1472,5.1278,5.1491,5.2234,5.2549,5.2717,5.346,5.3729,5.3803,5.3803,5.4304,5.4732,5.4007,5.4549,5.5558,5.6464,5.7224,5.8239,6.0167,6.0706,6.0794,6.0794,6.0794,6.0763,6.0746,6.0763,6.0788,6.0752,6.0788,6.0806,6.0806,6.08,6.08,6.0806,6.0806,6.0806,6.0806,6.0806,6.0806,6.0806,6.0806,6.082,6.0862,6.0191,5.9513,5.8895,5.814,5.7373,5.6604,5.6663,5.6663,5.6605,5.6605,5.6605,5.6605,5.6605,5.6177,2.8543,2.9402,3.1134,3.6444,4.0854,4.421,4.5461,4.5822,4.5899,4.5908,4.5585,4.5603,4.65,0.0,0.0,0.0,0.0,0.0,0.0,0.0,0.0,0.0,0.0,0.0,0.0,0.0,0.0,0.0,0.0,0.0,0.0,0.0,0.0,4.556,4.5281,4.5019,4.4794,4.4721,4.4534,0.0,4.5138,4.5966,4.6766,4.7581,4.8355,4.9074,4.9575,4.9841,4.9975,5.0445,5.0909,5.131,5.1163,5.1314,5.1575,5.1297,5.1278,5.1416,5.1602,5.2067,5.2624,5.281,5.3292,5.3803,5.3803,5.3914,5.4007,5.384,5.3981,5.4429,5.5567,5.6582,5.7666,5.8986,6.0035,6.0716,6.0716,6.0686,6.0578,6.0361,6.0533,6.0647,6.0442,6.0629,6.0806,6.0806,6.0765,6.0734,6.08,6.0806,6.0806,6.0806,6.0806,6.0806,6.0806,6.0806,6.0516,5.9854,6.0297,5.9971,5.8644,5.8604,5.7979,5.6623,5.7211,5.7231,5.6605,5.6605,5.6605,5.6605,5.6605,5.6507,2.7883,2.9807,3.2871,3.8903,4.304,4.5636,4.5675,4.5783,4.5899,4.5891,4.5743,4.5744,4.6182,0.0,0.0,0.0,0.0,0.0,0.0,0.0,0.0,0.0,0.0,0.0,0.0,0.0,0.0,0.0,0.0,0.0,0.0,4.4637,4.4843,4.5007,4.4849,4.472,4.4612,4.4303,4.4098,4.4005,4.443,4.5079,4.5974,4.7553,4.8467,4.8833,4.9113,4.9206,4.9214,4.9629,5.0091,5.0537,5.0185,5.036,5.072,5.0276,5.0137,5.0265,5.0636,5.1152,5.1677,5.1936,5.2669,5.3393,5.3247,5.3487,5.3832,5.3981,5.4035,5.4312,5.5499,5.6609,5.768,5.8671,5.9796,6.0661,6.0661,6.0468,6.0279,6.0201,6.0314,6.0396,6.0314,6.0572,6.0794,6.0765,6.0759,6.0771,6.08,6.0806,6.0806,6.0806,6.0806,6.0806,6.0806,6.0806,6.0614,6.0146,6.055,6.0286,5.9122,5.9603,5.9218,5.773,5.8104,5.7944,5.7172,5.7172,5.6977,5.6605,5.6605,5.6605,2.6814,3.0407,3.5114,4.0424,4.3704,4.5479,4.4909,4.5133,4.5472,4.5442,4.5527,4.5556,0.0,0.0,0.0,0.0,0.0,0.0,0.0,0.0,0.0,0.0,0.0,0.0,0.0,0.0,0.0,0.0,0.0,0.0,4.4112,4.4168,4.4279,4.4518,4.4424,4.4395,4.439,4.4071,4.3929,4.3981,4.4077,4.4538,4.5361,4.7499,4.8421,4.8406,4.841,4.8393,4.8393,4.8375,4.8928,4.9704,4.9107,4.93,4.981,4.915,4.8909,4.901,4.974,5.0243,5.0676,5.112,5.2045,5.2946,5.2679,5.3153,5.387,5.4203,5.4306,5.4541,5.5533,5.6705,5.7782,5.842,5.9564,6.0506,6.0571,6.0258,5.9981,6.0061,6.0045,6.0067,6.0272,6.0553,6.0759,6.0717,6.0747,6.0777,6.0788,6.0794,6.0806,6.0806,6.0806,6.0806,6.0806,6.0806,6.0806,6.0806,6.0806,6.052,5.9925,6.0577,6.0443,5.9311,5.9177,5.8763,5.8011,5.8011,5.768,5.7034,5.7034,5.7034,2.7501,3.1715,3.6208,3.8532,4.103,4.3094,4.3722,4.3792,4.3728,0.0,4.4695,0.0,0.0,0.0,0.0,0.0,0.0,0.0,0.0,0.0,0.0,0.0,0.0,0.0,0.0,0.0,0.0,0.0,0.0,0.0,4.3014,4.3181,4.3323,4.3406,4.3999,4.4339,4.439,4.4071,4.3897,4.3931,4.4601,4.5076,4.5324,4.6244,4.6708,4.684,4.7337,4.7562,4.7553,4.7499,4.7997,4.879,4.8815,4.8913,4.9057,4.8946,4.8909,4.8952,4.9372,4.9979,5.0603,5.0668,5.1753,5.2946,5.2679,5.3153,5.387,5.4203,5.4306,5.4391,5.4848,5.6121,5.7267,5.7262,5.8696,6.0155,6.0458,6.0147,5.9766,5.9558,5.9587,5.9798,6.0237,6.0487,6.0648,6.0685,6.0667,6.0655,6.0717,6.0752,6.0806,6.0806,6.0806,6.0806,6.0806,6.0806,6.0806,6.0806,6.0806,6.076,6.0654,6.0756,6.0852,6.088,6.0327,5.966,5.8928,5.8928,5.8869,5.8772,5.8772,5.8772,2.8322,3.0967,3.3723,3.6367,3.892,4.0997,4.1823,4.2645,4.3221,4.3192,0.0,0.0,0.0,0.0,0.0,0.0,0.0,0.0,0.0,0.0,0.0,0.0,0.0,0.0,0.0,0.0,0.0,0.0,0.0,4.244,4.2308,4.2847,4.3109,4.2982,4.3722,4.4151,4.4181,4.3968,4.381,4.3742,4.4623,4.4854,4.4546,4.5716,4.6298,4.6392,4.6583,4.6696,4.6722,4.6661,4.6899,4.7355,4.7827,4.81,4.8287,4.8689,4.883,4.8865,4.9052,4.9423,4.9792,4.9691,5.085,5.2282,5.2009,5.281,5.387,5.4203,5.4306,5.4372,5.4716,5.5636,5.6463,5.6404,5.7689,5.8975,5.911,5.9326,5.936,5.9065,5.9168,5.9492,6.0034,6.0293,6.0487,6.0617,6.0686,6.0717,6.0691,6.0765,6.0806,6.0806,6.0806,6.0806,6.0806,6.0806,6.0806,6.0806,6.0806,6.0806,6.0806,6.0872,6.1007,6.1206,6.0916,6.0448,5.9827,5.9827,5.9572,5.9103,5.9103,5.9103,2.8062,2.9352,3.0776,3.3497,3.6043,3.8164,3.9209,0.0,4.1554,0.0,0.0,0.0,0.0,0.0,0.0,0.0,0.0,0.0,0.0,0.0,0.0,0.0,0.0,0.0,0.0,0.0,0.0,0.0,0.0,4.188,4.1617,4.2204,4.245,4.2199,4.3146,4.3677,4.3677,4.3724,4.3711,4.3617,4.4301,4.4366,4.3912,4.5031,4.5577,4.5609,4.5739,4.5814,4.5848,4.5778,4.5942,4.6302,4.6851,4.7161,4.7402,4.8175,4.8316,4.8222,4.8759,4.8926,4.8888,4.8959,5.0243,5.1732,5.1478,5.2512,5.387,5.4203,5.4306,5.4372,5.4716,5.5306,5.5799,5.5756,5.6847,5.7938,5.8182,5.8662,5.895,5.863,5.8811,5.9187,5.9779,6.009,6.03,6.0552,6.0704,6.0759,6.0673,6.0753,6.0806,6.0806,6.0806,6.0806,6.0806,6.0806,6.0806,6.0806,6.0806,6.0806,6.0806,6.0896,6.102,6.1143,6.1188,6.1048,6.0725,6.0725,6.0393,5.9767,5.9767,5.9767,2.583,2.7048,2.8489,2.9485,3.1655,3.3952,3.5594,0.0,3.7347,0.0,0.0,0.0,0.0,0.0,0.0,0.0,0.0,0.0,0.0,0.0,0.0,0.0,0.0,0.0,0.0,0.0,0.0,0.0,0.0,4.1041,4.0785,4.081,4.0742,4.0527,4.1979,4.2767,4.2767,4.333,4.3599,4.3599,4.3654,4.3713,4.3804,4.376,4.3736,4.38,4.461,4.4923,4.4877,4.4799,4.5303,4.61,4.6156,4.6209,4.637,4.7183,4.6989,4.6598,4.8458,4.86,4.8101,4.8931,5.0332,5.1675,5.1461,5.2512,5.387,5.4203,5.4306,5.4372,5.4716,5.5155,5.549,5.5356,5.6312,5.749,5.8381,5.8601,5.8553,5.8272,5.849,5.8922,5.9515,5.9846,6.0148,6.0539,6.0667,6.0673,6.0617,6.0723,6.0806,6.0806,6.0806,6.0806,6.0806,6.0806,6.0806,6.0806,6.0806,6.0806,6.0806,6.0818,6.0877,6.1011,6.1132,6.134,6.1621,6.1621,6.1602,6.1563,6.1563,6.1563,2.5561,2.5957,2.6704,2.8086,2.9517,3.1,3.2633,3.4044,3.5225,0.0,0.0,0.0,0.0,0.0,0.0,0.0,0.0,0.0,0.0,0.0,0.0,0.0,0.0,0.0,0.0,0.0,0.0,0.0,0.0,0.0,4.0146,4.0646,4.0791,4.0404,4.1939,4.2976,4.3401,4.3537,4.3573,4.3549,4.3549,4.3573,4.3667,4.3615,4.3651,4.3746,4.4068,4.4111,4.3953,4.3937,4.4155,4.4537,4.5018,4.5291,4.5587,4.6863,4.7176,4.7163,4.8448,4.8722,4.8627,4.9486,5.0554,5.158,5.2038,5.294,5.3841,5.3944,5.3981,5.4018,5.4134,5.4268,5.469,5.5864,5.645,5.717,5.8728,5.8599,5.8186,5.8088,5.8249,5.8605,5.9296,5.9591,5.9935,6.052,6.0679,6.0747,6.066,6.0734,6.0806,6.0806,6.0806,6.0806,6.0806,6.0806,6.0806,6.0806,6.0806,6.0806,6.0806,6.0869,6.0944,6.0997,6.1262,6.1452,6.1578,6.1663,6.1699,6.1699,6.1699,6.1699,2.5508,2.5432,2.5693,2.7105,2.7856,2.8662,3.0327,3.1533,3.2648,0.0,0.0,0.0,0.0,0.0,0.0,0.0,0.0,0.0,0.0,0.0,0.0,0.0,0.0,0.0,0.0,0.0,0.0,0.0,0.0,0.0,3.981,4.0347,4.0558,4.0343,4.1646,4.2545,4.2924,4.3123,4.3057,4.269,4.273,4.2919,4.3202,4.3227,4.3443,4.3796,4.3796,4.3694,4.3522,4.3522,4.3558,4.363,4.4102,4.4384,4.4653,4.5954,4.6303,4.6336,4.7792,4.8132,4.8168,4.959,5.0647,5.1482,5.2336,5.3153,5.3803,5.3803,5.3803,5.3803,5.3803,5.387,5.4372,5.6021,5.6547,5.7138,5.8744,5.8628,5.8209,5.8209,5.8275,5.855,5.9196,5.9549,5.9927,6.052,6.0717,6.0783,6.0703,6.0765,6.0806,6.0806,6.0806,6.0806,6.0806,6.0806,6.0806,6.0806,6.0806,6.0806,6.0806,6.0894,6.0933,6.0933,6.1205,6.1355,6.1398,6.16,6.1699,6.1699,6.1699,6.1699,0.0,0.0,0.0,2.6343,2.6513,2.6913,2.8592,0.0,2.942,0.0,0.0,0.0,0.0,0.0,0.0,0.0,0.0,0.0,0.0,0.0,0.0,0.0,0.0,0.0,0.0,0.0,0.0,0.0,0.0,3.9399,3.9738,3.9762,3.9919,4.0207,4.1019,4.1368,4.1212,4.2031,4.2001,4.1111,4.1246,4.1673,4.2372,4.2463,4.2965,4.3767,4.3786,4.3736,4.3599,4.3599,4.3556,4.3506,4.3506,4.3506,4.3598,4.4425,4.4275,4.3985,4.6478,4.6854,4.6656,4.9213,5.0574,5.1371,5.2336,5.3181,5.3803,5.3803,5.3803,5.3803,5.3803,5.4044,5.4595,5.5723,5.6571,5.7412,5.8494,5.8684,5.8638,5.8628,5.8618,5.8772,5.9232,5.9707,6.0141,6.0539,6.0717,6.0783,6.0703,6.0771,6.0806,6.0806,6.0806,6.0806,6.0806,6.0806,6.0806,6.0806,6.0806,6.0806,6.0806,6.0806,6.0806,6.0806,6.0933,6.1053,6.1183,6.1534,6.1697,6.1699,6.1699,6.1699,2.5434,0.0,0.0,0.0,0.0,0.0,2.6236,2.6793,2.7508,0.0,0.0,0.0,0.0,0.0,0.0,0.0,0.0,0.0,0.0,0.0,0.0,0.0,0.0,0.0,0.0,0.0,0.0,0.0,3.8542,3.869,3.8579,3.8976,3.9569,4.0317,4.0474,4.0848,4.142,4.1551,4.1504,4.1262,4.1283,4.1409,4.1633,4.2329,4.2783,4.3042,4.3661,4.3865,4.3736,4.3642,4.3556,4.3506,4.3506,4.3506,4.3671,4.5057,4.5129,4.4894,4.7388,4.7792,4.7621,5.0183,5.1157,5.1603,5.3042,5.3617,5.3803,5.3803,5.3803,5.3803,5.3803,5.4044,5.4595,5.5723,5.68,5.7837,5.8955,5.9424,5.9513,5.9168,5.9065,5.9187,5.9643,5.9877,6.0141,6.0539,6.0717,6.08,6.0763,6.0794,6.0806,6.0806,6.0806,6.0806,6.0806,6.0806,6.0806,6.0806,6.0806,6.0806,6.0806,6.0806,6.0806,6.0806,6.0933,6.1025,6.1064,6.139,6.1616,6.1699,6.1699,6.1699,0.0,2.5372,2.5418,2.576,0.0,0.0,2.6215,2.6186,2.6345,0.0,0.0,0.0,0.0,0.0,0.0,0.0,0.0,0.0,0.0,0.0,0.0,0.0,0.0,0.0,0.0,0.0,0.0,3.7375,3.7466,3.7532,3.7596,3.8209,3.8778,3.9307,3.9935,4.0352,4.0463,4.0763,4.0718,4.0299,4.0366,4.054,4.0861,4.1812,4.2224,4.2248,4.3089,4.3362,4.3211,4.3135,4.327,4.3506,4.3506,4.3506,4.3653,4.4929,4.5166,4.5171,4.7341,4.7883,4.7961,5.0145,5.0859,5.1101,5.2401,5.281,5.281,5.281,5.3042,5.3423,5.3879,5.4264,5.4807,5.5945,5.7107,5.8215,5.9182,5.9862,6.0144,5.9671,5.9557,5.9601,5.986,6.0112,6.0356,6.0565,6.0717,6.0806,6.0806,6.0806,6.0806,6.0806,6.0806,6.0806,6.0806,6.0806,6.0806,6.0806,6.0806,6.0806,6.0806,6.0806,6.0806,6.0806,6.0883,6.0934,6.0997,6.1337,6.1576,6.1699,6.1699,6.1699,0.0,0.0,0.0,0.0,2.6156,0.0,2.7313,2.656,2.5954,2.7253,0.0,0.0,0.0,0.0,0.0,0.0,0.0,0.0,0.0,0.0,0.0,0.0,0.0,0.0,0.0,3.5998,3.6178,3.6745,3.6214,3.616,3.6836,3.7441,3.7767,3.7812,3.9314,3.9753,3.9026,3.9846,3.9817,3.8914,3.9038,3.943,4.01,4.1026,4.1408,4.1389,4.2219,4.2496,4.2409,4.2409,4.2829,4.3506,4.3506,4.3506,4.3598,4.4406,4.4735,4.5043,4.6788,4.7477,4.7869,4.9552,5.0089,5.0256,5.1138,5.1398,5.1416,5.1509,5.2104,5.2977,5.4024,5.4544,5.5044,5.6107,5.7262,5.8348,5.9103,5.9948,6.0463,6.0139,6.0078,6.0041,5.9992,6.0388,6.0673,6.0623,6.0723,6.0806,6.0806,6.0806,6.0806,6.0806,6.0806,6.0806,6.0806,6.0806,6.0806,6.0806,6.0806,6.0806,6.0806,6.0806,6.0806,6.0806,6.0806,6.0861,6.0997,6.1302,6.1543,6.1671,6.1671,6.1693,0.0,0.0,0.0,0.0,0.0,0.0,2.6195,2.6637,2.708,0.0,0.0,0.0,0.0,0.0,0.0,0.0,0.0,0.0,0.0,0.0,0.0,0.0,0.0,0.0,0.0,3.46,3.4333,3.2996,3.3876,3.5126,3.6586,3.6781,3.717,3.7855,3.8209,3.8611,3.908,3.9261,3.9254,3.9059,3.9087,3.9187,3.9333,4.0118,4.047,4.0493,4.1299,4.1942,4.2409,4.2409,4.2829,4.3506,4.3506,4.3506,4.3598,4.4406,4.4709,4.4965,4.6709,4.736,4.7717,4.9462,5.0054,5.0256,5.1138,5.1398,5.1546,5.2178,5.2958,5.3675,5.4174,5.4511,5.4837,5.5334,5.6319,5.7399,5.8246,5.9113,5.9919,6.0531,6.0565,6.05,6.0546,6.0623,6.071,6.0673,6.0759,6.0806,6.0806,6.0806,6.0806,6.0806,6.0806,6.0806,6.0806,6.0806,6.0806,6.0806,6.0806,6.0806,6.0806,6.0806,6.0806,6.0806,6.0806,6.0861,6.0997,6.1162,6.1356,6.1537,6.1537,6.1591,0.0,0.0,0.0,2.7367,0.0,0.0,0.0,2.7566,2.7777,2.7294,2.6844,0.0,0.0,0.0,0.0,0.0,0.0,0.0,0.0,0.0,0.0,0.0,0.0,0.0,0.0,3.3105,3.2816,3.1873,3.2515,3.3475,3.4685,3.5162,3.5799,3.6628,3.7453,3.79,3.79,3.8309,3.8488,3.8488,3.8488,3.8711,3.912,3.9931,4.0036,3.9634,4.0425,4.0914,4.1232,4.1597,4.2218,4.2937,4.3341,4.3513,4.3649,4.4458,4.4797,4.5042,4.6345,4.7108,4.765,4.8553,4.9152,4.9569,5.0023,5.0153,5.0413,5.1658,5.2389,5.3076,5.4256,5.4776,5.5083,5.5382,5.6215,5.7068,5.751,5.8604,5.9627,6.0069,6.0439,6.0704,6.0691,6.0741,6.0747,6.0717,6.0765,6.0806,6.0806,6.0806,6.0806,6.0806,6.0806,6.0806,6.0806,6.0806,6.0806,6.0806,6.0806,6.0806,6.0806,6.0806,6.0806,6.0806,6.0806,6.0825,6.0901,6.1033,6.1248,6.149,6.149,6.1578,0.0,0.0,0.0,0.0,0.0,2.8854,0.0,0.0,0.0,2.8547,0.0,0.0,0.0,0.0,0.0,0.0,0.0,0.0,0.0,0.0,0.0,0.0,0.0,0.0,0.0,3.1376,3.1348,3.1979,3.1608,3.1808,3.2863,3.3597,3.4346,3.5131,3.6648,3.7194,3.6693,3.7343,3.7752,3.79,3.788,3.83,3.9092,3.979,3.9691,3.9008,3.9616,3.9925,4.007,4.0827,4.1611,4.242,4.3201,4.3548,4.3672,4.436,4.477,4.5105,4.581,4.663,4.7396,4.7613,4.8223,4.8909,4.8909,4.9132,4.9688,5.1106,5.1882,5.2693,5.4439,5.509,5.5345,5.5613,5.6212,5.6769,5.6942,5.8044,5.9108,5.9435,6.0069,6.0596,6.0702,6.0752,6.0788,6.0741,6.0771,6.0806,6.0806,6.0806,6.0806,6.0806,6.0806,6.0806,6.0806,6.0806,6.0806,6.0806,6.0806,6.0806,6.0806,6.0806,6.0806,6.0806,6.0806,6.0804,6.0836,6.0958,6.1151,6.1441,6.1481,6.1578,0.0,0.0,0.0,0.0,3.1234,0.0,0.0,0.0,2.8566,2.7178,0.0,0.0,0.0,0.0,0.0,0.0,0.0,0.0,0.0,0.0,0.0,0.0,0.0,0.0,0.0,0.0,2.9731,3.2643,3.0883,3.0641,3.2878,3.3083,3.351,3.4302,3.5274,3.6061,3.6693,3.6786,3.7194,3.79,3.7838,3.8229,3.9007,3.9054,3.9006,3.8918,3.9003,3.9438,4.0151,4.0955,4.176,4.2547,4.3302,4.359,4.3625,4.3838,4.436,4.5004,4.5105,4.5719,4.6583,4.7359,4.819,4.8909,4.8909,4.9949,5.121,5.1705,5.2882,5.4202,5.5033,5.523,5.5275,5.5551,5.5684,5.5972,5.6746,5.7118,5.7728,5.9204,5.9588,5.9896,6.066,6.08,6.08,6.0794,6.08,6.0806,6.0806,6.0806,6.0806,6.0806,6.0806,6.0806,6.0806,6.0806,6.0806,6.0806,6.0806,6.0806,6.0806,6.0806,6.0806,6.0806,6.0806,6.0869,6.0983,6.0988,6.107,6.1237,6.1428,6.1578,0.0,0.0,0.0,0.0,0.0,0.0,3.0525,0.0,3.0275,0.0,0.0,0.0,0.0,0.0,0.0,0.0,2.6058,0.0,0.0,0.0,0.0,0.0,0.0,0.0,0.0,0.0,0.0,0.0,0.0,2.9508,3.1496,3.2054,3.2661,3.3479,3.4798,3.5411,3.5244,3.5707,3.6349,3.714,3.7084,3.7708,3.8935,3.8943,3.8968,3.8968,3.8968,3.9153,3.956,4.0798,4.1496,4.1939,4.3258,4.3775,4.3783,4.3843,4.4095,4.4413,4.4413,4.4994,4.5935,4.7242,4.8224,4.8909,4.8909,4.9392,5.0121,5.0924,5.212,5.3361,5.4294,5.5025,5.5527,5.5624,5.5671,5.5767,5.6113,5.6615,5.7363,5.8569,5.9184,5.9781,6.0646,6.0806,6.0806,6.0806,6.0806,6.0806,6.0806,6.0806,6.0806,6.0806,6.0806,6.0806,6.0806,6.0806,6.0806,6.0806,6.0806,6.0831,6.0902,6.0927,6.0949,6.1028,6.1033,6.1053,6.1124,6.1237,6.1327,6.1384,6.1452,6.1578,3.3718,0.0,0.0,0.0,0.0,0.0,0.0,0.0,0.0,0.0,0.0,0.0,0.0,0.0,0.0,0.0,0.0,2.642,0.0,0.0,0.0,0.0,0.0,0.0,0.0,0.0,0.0,2.8366,2.8021,2.8597,3.0493,3.1143,3.1849,3.2643,3.4073,3.4606,3.4173,3.4742,3.5556,3.6578,3.6281,3.7109,3.8892,3.8721,3.8768,3.8993,3.9021,3.9028,3.9133,4.0448,4.0991,4.1165,4.2887,4.3532,4.3577,4.382,4.3968,4.4005,4.4005,4.4562,4.5528,4.6921,4.7924,4.8574,4.8574,4.889,4.9394,5.0163,5.1483,5.2872,5.388,5.4904,5.5708,5.5708,5.5708,5.5708,5.5708,5.6209,5.6978,5.8088,5.8775,5.9511,6.0614,6.0589,6.0512,6.0768,6.0589,6.0531,6.0762,6.0806,6.0806,6.0806,6.0806,6.0806,6.0806,6.0806,6.0806,6.0806,6.0825,6.0896,6.0993,6.1033,6.1103,6.1206,6.1209,6.123,6.1285,6.1434,6.1524,6.1547,6.1547,6.1618,0.0,0.0,0.0,3.4375,0.0,0.0,0.0,0.0,3.1445,0.0,0.0,0.0,0.0,0.0,0.0,0.0,0.0,0.0,0.0,0.0,0.0,0.0,0.0,0.0,0.0,0.0,0.0,2.9179,2.7859,2.8003,3.0474,3.0623,3.1013,3.1812,3.2643,3.3412,3.4105,3.4136,3.4931,3.6484,3.5653,3.6526,3.8873,3.8098,3.8207,3.8993,3.9059,3.9101,3.9168,3.9911,4.0233,4.0393,4.2004,4.2646,4.2754,4.3672,4.3997,4.4005,4.4005,4.4562,4.5443,4.6279,4.707,4.7738,4.7738,4.8834,5.0023,4.9866,5.1632,5.3705,5.4328,5.5082,5.5708,5.5708,5.5708,5.5708,5.5708,5.5728,5.6242,5.7967,5.8313,5.8858,6.0517,6.0108,5.9838,6.0671,6.0089,5.9858,6.0691,6.0806,6.0806,6.0806,6.0806,6.0806,6.0806,6.0806,6.0806,6.0806,6.0918,6.0993,6.0997,6.1116,6.1206,6.1209,6.1209,6.1295,6.1486,6.1507,6.1575,6.1697,6.1697,6.1697,0.0,0.0,3.5423,3.5138,0.0,0.0,0.0,0.0,0.0,0.0,0.0,0.0,0.0,0.0,0.0,0.0,0.0,0.0,0.0,0.0,0.0,0.0,0.0,0.0,0.0,0.0,0.0,2.7604,2.7227,2.7748,0.0,3.0307,3.0976,3.1775,3.2587,3.335,3.408,3.4061,3.4545,3.559,3.5816,3.6676,3.8044,3.8371,3.8688,3.8993,3.9066,3.9101,3.915,3.9899,4.0537,4.1159,4.2208,4.2947,4.3495,4.3828,4.3937,4.3945,4.3981,4.4562,4.535,4.5621,4.6252,4.6903,4.6903,4.7664,4.8698,4.9566,5.1228,5.3016,5.4186,5.5093,5.5708,5.5708,5.5708,5.5708,5.5708,5.5708,5.6222,5.7953,5.8294,5.8833,6.0517,6.0089,5.98,6.0671,6.055,6.0473,6.0768,6.0806,6.0806,6.0806,6.0806,6.0806,6.0806,6.0806,6.0806,6.0806,6.0923,6.1037,6.1124,6.1292,6.1432,6.1534,6.1534,6.1566,6.163,6.163,6.1661,6.1699,6.1699,6.1699,3.55,3.5712,0.0,3.5923,3.6154,0.0,3.5295,0.0,0.0,0.0,0.0,0.0,0.0,0.0,0.0,0.0,0.0,0.0,0.0,2.728,0.0,0.0,0.0,0.0,0.0,0.0,2.5263,2.6786,2.6907,2.7626,0.0,0.0,3.0965,3.1735,3.2575,3.335,3.408,3.4036,3.4384,3.5144,3.5321,3.6048,3.7233,3.7781,3.8247,3.8635,3.8969,3.9101,3.9168,3.987,4.0341,4.0752,4.2039,4.2712,4.3042,4.3677,4.3913,4.3945,4.3981,4.4376,4.4886,4.5202,4.5639,4.6067,4.6067,4.6828,4.7853,4.8581,5.0463,5.2519,5.3472,5.4698,5.5687,5.5585,5.5629,5.5708,5.5708,5.5939,5.6593,5.803,5.8525,5.9165,6.0556,6.0319,6.0146,6.0723,6.0531,6.0454,6.0768,6.0806,6.0806,6.0806,6.0806,6.0806,6.0806,6.0806,6.0806,6.0806,6.0978,6.1251,6.1652,6.1902,6.2363,6.3066,6.248,6.2304,6.2618,6.1992,6.1699,6.1699,6.1699,6.1699]}]]